<?xml version="1.0" encoding="UTF-8" standalone="no" ?>
<gpx xmlns="http://www.topografix.com/GPX/1/1" xmlns:xsi="http://www.w3.org/2001/XMLSchema-instance" xsi:schemaLocation="http://www.topografix.com/GPX/1/1 http://www.topografix.com/GPX/1/1/gpx.xsd" version="1.1" creator="VisuGPX - https://www.visugpx.com">
  <metadata>
    <name>R.A.F. 2021 / 1100 km</name>
  </metadata>
  <trk>
    <name><![CDATA[R.A.F. 2021 / 1100 km]]></name>
    <extensions>
      <line xmlns="http://www.topografix.com/GPX/gpx_style/0/2">
        <color>0000FF</color>
        <width>4</width>
      </line>
    </extensions>
    <trkseg>
      <trkpt lat="44.83277" lon="5.39285">
        <ele>1024</ele>
        <time>2021-03-28T02:42:43.016Z</time>
      </trkpt>
      <trkpt lat="44.83269" lon="5.39284">
        <ele>1024</ele>
        <time>2021-03-28T02:42:46.037Z</time>
      </trkpt>
      <trkpt lat="44.83261" lon="5.39285">
        <ele>1024</ele>
        <time>2021-03-28T02:42:49.058Z</time>
      </trkpt>
      <trkpt lat="44.8323" lon="5.39303">
        <ele>1017</ele>
        <time>2021-03-28T02:42:53.487Z</time>
      </trkpt>
      <trkpt lat="44.83209" lon="5.39306">
        <ele>1016</ele>
        <time>2021-03-28T02:42:56.478Z</time>
      </trkpt>
      <trkpt lat="44.83172" lon="5.39288">
        <ele>1024</ele>
        <time>2021-03-28T02:43:53.268Z</time>
      </trkpt>
      <trkpt lat="44.83117" lon="5.39278">
        <ele>1026</ele>
        <time>2021-03-28T02:44:24.420Z</time>
      </trkpt>
      <trkpt lat="44.83102" lon="5.39272">
        <ele>1028</ele>
        <time>2021-03-28T02:44:45.472Z</time>
      </trkpt>
      <trkpt lat="44.83068" lon="5.3925">
        <ele>1035</ele>
        <time>2021-03-28T02:45:39.750Z</time>
      </trkpt>
      <trkpt lat="44.83059" lon="5.39248">
        <ele>1034</ele>
        <time>2021-03-28T02:45:40.953Z</time>
      </trkpt>
      <trkpt lat="44.83048" lon="5.3925">
        <ele>1032</ele>
        <time>2021-03-28T02:45:42.418Z</time>
      </trkpt>
      <trkpt lat="44.83026" lon="5.39245">
        <ele>1031</ele>
        <time>2021-03-28T02:45:45.649Z</time>
      </trkpt>
      <trkpt lat="44.83011" lon="5.39236">
        <ele>1033</ele>
        <time>2021-03-28T02:46:06.121Z</time>
      </trkpt>
      <trkpt lat="44.82982" lon="5.39213">
        <ele>1038</ele>
        <time>2021-03-28T02:46:54.398Z</time>
      </trkpt>
      <trkpt lat="44.82901" lon="5.39165">
        <ele>1040</ele>
        <time>2021-03-28T02:47:36.156Z</time>
      </trkpt>
      <trkpt lat="44.82878" lon="5.39159">
        <ele>1039</ele>
        <time>2021-03-28T02:47:39.613Z</time>
      </trkpt>
      <trkpt lat="44.8285" lon="5.39158">
        <ele>1035</ele>
        <time>2021-03-28T02:47:43.313Z</time>
      </trkpt>
      <trkpt lat="44.82831" lon="5.39154">
        <ele>1034</ele>
        <time>2021-03-28T02:47:45.927Z</time>
      </trkpt>
      <trkpt lat="44.82815" lon="5.39142">
        <ele>1038</ele>
        <time>2021-03-28T02:48:12.222Z</time>
      </trkpt>
      <trkpt lat="44.82786" lon="5.39118">
        <ele>1046</ele>
        <time>2021-03-28T02:49:01.011Z</time>
      </trkpt>
      <trkpt lat="44.82762" lon="5.39103">
        <ele>1049</ele>
        <time>2021-03-28T02:49:30.842Z</time>
      </trkpt>
      <trkpt lat="44.82667" lon="5.39052">
        <ele>1052</ele>
        <time>2021-03-28T02:50:23.247Z</time>
      </trkpt>
      <trkpt lat="44.82656" lon="5.39042">
        <ele>1051</ele>
        <time>2021-03-28T02:50:24.976Z</time>
      </trkpt>
      <trkpt lat="44.82644" lon="5.39026">
        <ele>1051</ele>
        <time>2021-03-28T02:50:31.189Z</time>
      </trkpt>
      <trkpt lat="44.82626" lon="5.38987">
        <ele>1056</ele>
        <time>2021-03-28T02:51:19.072Z</time>
      </trkpt>
      <trkpt lat="44.82603" lon="5.38929">
        <ele>1061</ele>
        <time>2021-03-28T02:52:08.084Z</time>
      </trkpt>
      <trkpt lat="44.82564" lon="5.38849">
        <ele>1058</ele>
        <time>2021-03-28T02:52:18.184Z</time>
      </trkpt>
      <trkpt lat="44.82557" lon="5.38832">
        <ele>1057</ele>
        <time>2021-03-28T02:52:20.025Z</time>
      </trkpt>
      <trkpt lat="44.82553" lon="5.38814">
        <ele>1055</ele>
        <time>2021-03-28T02:52:21.793Z</time>
      </trkpt>
      <trkpt lat="44.82552" lon="5.38796">
        <ele>1056</ele>
        <time>2021-03-28T02:52:32.115Z</time>
      </trkpt>
      <trkpt lat="44.82566" lon="5.38737">
        <ele>1069</ele>
        <time>2021-03-28T02:53:36.139Z</time>
      </trkpt>
      <trkpt lat="44.82566" lon="5.38714">
        <ele>1072</ele>
        <time>2021-03-28T02:53:59.808Z</time>
      </trkpt>
      <trkpt lat="44.82562" lon="5.38658">
        <ele>1076</ele>
        <time>2021-03-28T02:54:38.936Z</time>
      </trkpt>
      <trkpt lat="44.82556" lon="5.38607">
        <ele>1081</ele>
        <time>2021-03-28T02:55:32.136Z</time>
      </trkpt>
      <trkpt lat="44.82547" lon="5.38552">
        <ele>1089</ele>
        <time>2021-03-28T02:56:30.223Z</time>
      </trkpt>
      <trkpt lat="44.82533" lon="5.38513">
        <ele>1092</ele>
        <time>2021-03-28T02:56:59.624Z</time>
      </trkpt>
      <trkpt lat="44.82523" lon="5.38497">
        <ele>1091</ele>
        <time>2021-03-28T02:57:01.462Z</time>
      </trkpt>
      <trkpt lat="44.82511" lon="5.38483">
        <ele>1087</ele>
        <time>2021-03-28T02:57:03.519Z</time>
      </trkpt>
      <trkpt lat="44.82478" lon="5.38465">
        <ele>1077</ele>
        <time>2021-03-28T02:57:08.193Z</time>
      </trkpt>
      <trkpt lat="44.82465" lon="5.38454">
        <ele>1074</ele>
        <time>2021-03-28T02:57:10.196Z</time>
      </trkpt>
      <trkpt lat="44.82459" lon="5.38443">
        <ele>1074</ele>
        <time>2021-03-28T02:57:13.898Z</time>
      </trkpt>
      <trkpt lat="44.82457" lon="5.38432">
        <ele>1076</ele>
        <time>2021-03-28T02:57:25.585Z</time>
      </trkpt>
      <trkpt lat="44.82461" lon="5.38426">
        <ele>1079</ele>
        <time>2021-03-28T02:57:34.059Z</time>
      </trkpt>
      <trkpt lat="44.82464" lon="5.38425">
        <ele>1080</ele>
        <time>2021-03-28T02:57:38.531Z</time>
      </trkpt>
      <trkpt lat="44.8247" lon="5.38426">
        <ele>1083</ele>
        <time>2021-03-28T02:57:47.298Z</time>
      </trkpt>
      <trkpt lat="44.82476" lon="5.38434">
        <ele>1083</ele>
        <time>2021-03-28T02:57:50.404Z</time>
      </trkpt>
      <trkpt lat="44.82487" lon="5.38453">
        <ele>1083</ele>
        <time>2021-03-28T02:57:56.948Z</time>
      </trkpt>
      <trkpt lat="44.82516" lon="5.38465">
        <ele>1095</ele>
        <time>2021-03-28T02:58:40.800Z</time>
      </trkpt>
      <trkpt lat="44.82526" lon="5.38472">
        <ele>1098</ele>
        <time>2021-03-28T02:58:56.999Z</time>
      </trkpt>
      <trkpt lat="44.82535" lon="5.38482">
        <ele>1101</ele>
        <time>2021-03-28T02:59:13.625Z</time>
      </trkpt>
      <trkpt lat="44.82557" lon="5.38519">
        <ele>1104</ele>
        <time>2021-03-28T02:59:43.514Z</time>
      </trkpt>
      <trkpt lat="44.82565" lon="5.38537">
        <ele>1103</ele>
        <time>2021-03-28T02:59:45.341Z</time>
      </trkpt>
      <trkpt lat="44.82571" lon="5.3856">
        <ele>1100</ele>
        <time>2021-03-28T02:59:47.637Z</time>
      </trkpt>
      <trkpt lat="44.8258" lon="5.38612">
        <ele>1095</ele>
        <time>2021-03-28T02:59:52.652Z</time>
      </trkpt>
      <trkpt lat="44.82595" lon="5.3867">
        <ele>1096</ele>
        <time>2021-03-28T03:00:13.480Z</time>
      </trkpt>
      <trkpt lat="44.826" lon="5.38704">
        <ele>1096</ele>
        <time>2021-03-28T03:00:22.744Z</time>
      </trkpt>
      <trkpt lat="44.826" lon="5.38779">
        <ele>1089</ele>
        <time>2021-03-28T03:00:29.770Z</time>
      </trkpt>
      <trkpt lat="44.82604" lon="5.38799">
        <ele>1091</ele>
        <time>2021-03-28T03:00:51.155Z</time>
      </trkpt>
      <trkpt lat="44.82609" lon="5.38812">
        <ele>1093</ele>
        <time>2021-03-28T03:01:06.373Z</time>
      </trkpt>
      <trkpt lat="44.82624" lon="5.38835">
        <ele>1100</ele>
        <time>2021-03-28T03:01:38.527Z</time>
      </trkpt>
      <trkpt lat="44.82678" lon="5.38938">
        <ele>1102</ele>
        <time>2021-03-28T03:02:21.332Z</time>
      </trkpt>
      <trkpt lat="44.82688" lon="5.38954">
        <ele>1101</ele>
        <time>2021-03-28T03:02:23.170Z</time>
      </trkpt>
      <trkpt lat="44.827" lon="5.38966">
        <ele>1101</ele>
        <time>2021-03-28T03:02:28.704Z</time>
      </trkpt>
      <trkpt lat="44.82717" lon="5.38978">
        <ele>1103</ele>
        <time>2021-03-28T03:02:48.294Z</time>
      </trkpt>
      <trkpt lat="44.8275" lon="5.38995">
        <ele>1108</ele>
        <time>2021-03-28T03:03:39.271Z</time>
      </trkpt>
      <trkpt lat="44.82817" lon="5.39013">
        <ele>1108</ele>
        <time>2021-03-28T03:04:04.927Z</time>
      </trkpt>
      <trkpt lat="44.82836" lon="5.39015">
        <ele>1110</ele>
        <time>2021-03-28T03:04:24.514Z</time>
      </trkpt>
      <trkpt lat="44.82891" lon="5.39013">
        <ele>1116</ele>
        <time>2021-03-28T03:05:23.543Z</time>
      </trkpt>
      <trkpt lat="44.8291" lon="5.39015">
        <ele>1116</ele>
        <time>2021-03-28T03:05:30.710Z</time>
      </trkpt>
      <trkpt lat="44.83033" lon="5.39053">
        <ele>1125</ele>
        <time>2021-03-28T03:07:07.095Z</time>
      </trkpt>
      <trkpt lat="44.83047" lon="5.39056">
        <ele>1126</ele>
        <time>2021-03-28T03:07:17.864Z</time>
      </trkpt>
      <trkpt lat="44.83091" lon="5.39057">
        <ele>1129</ele>
        <time>2021-03-28T03:07:50.721Z</time>
      </trkpt>
      <trkpt lat="44.83131" lon="5.39066">
        <ele>1125</ele>
        <time>2021-03-28T03:07:56.072Z</time>
      </trkpt>
      <trkpt lat="44.83146" lon="5.39064">
        <ele>1126</ele>
        <time>2021-03-28T03:08:07.173Z</time>
      </trkpt>
      <trkpt lat="44.83197" lon="5.39051">
        <ele>1130</ele>
        <time>2021-03-28T03:08:48.648Z</time>
      </trkpt>
      <trkpt lat="44.83217" lon="5.39044">
        <ele>1131</ele>
        <time>2021-03-28T03:09:02.073Z</time>
      </trkpt>
      <trkpt lat="44.83257" lon="5.39019">
        <ele>1142</ele>
        <time>2021-03-28T03:10:05.556Z</time>
      </trkpt>
      <trkpt lat="44.83277" lon="5.39012">
        <ele>1149</ele>
        <time>2021-03-28T03:10:35.455Z</time>
      </trkpt>
      <trkpt lat="44.83295" lon="5.3901">
        <ele>1154</ele>
        <time>2021-03-28T03:11:01.653Z</time>
      </trkpt>
      <trkpt lat="44.83307" lon="5.39017">
        <ele>1152</ele>
        <time>2021-03-28T03:11:03.369Z</time>
      </trkpt>
      <trkpt lat="44.83334" lon="5.39046">
        <ele>1135</ele>
        <time>2021-03-28T03:11:07.852Z</time>
      </trkpt>
      <trkpt lat="44.83348" lon="5.39047">
        <ele>1136</ele>
        <time>2021-03-28T03:11:18.571Z</time>
      </trkpt>
      <trkpt lat="44.8336" lon="5.3904">
        <ele>1142</ele>
        <time>2021-03-28T03:11:37.413Z</time>
      </trkpt>
      <trkpt lat="44.83372" lon="5.39023">
        <ele>1155</ele>
        <time>2021-03-28T03:12:02.093Z</time>
      </trkpt>
      <trkpt lat="44.83393" lon="5.39">
        <ele>1173</ele>
        <time>2021-03-28T03:12:40.674Z</time>
      </trkpt>
      <trkpt lat="44.83407" lon="5.38993">
        <ele>1183</ele>
        <time>2021-03-28T03:13:02.226Z</time>
      </trkpt>
      <trkpt lat="44.83423" lon="5.38991">
        <ele>1191</ele>
        <time>2021-03-28T03:13:25.532Z</time>
      </trkpt>
      <trkpt lat="44.83436" lon="5.38995">
        <ele>1195</ele>
        <time>2021-03-28T03:13:44.838Z</time>
      </trkpt>
      <trkpt lat="44.83448" lon="5.39001">
        <ele>1197</ele>
        <time>2021-03-28T03:14:03.312Z</time>
      </trkpt>
      <trkpt lat="44.83654" lon="5.39215">
        <ele>1163</ele>
        <time>2021-03-28T03:14:37.109Z</time>
      </trkpt>
      <trkpt lat="44.83747" lon="5.39305">
        <ele>1175</ele>
        <time>2021-03-28T03:16:34.772Z</time>
      </trkpt>
      <trkpt lat="44.83764" lon="5.39323">
        <ele>1177</ele>
        <time>2021-03-28T03:16:54.434Z</time>
      </trkpt>
      <trkpt lat="44.83775" lon="5.39339">
        <ele>1179</ele>
        <time>2021-03-28T03:17:15.291Z</time>
      </trkpt>
      <trkpt lat="44.83782" lon="5.39354">
        <ele>1182</ele>
        <time>2021-03-28T03:17:33.766Z</time>
      </trkpt>
      <trkpt lat="44.83784" lon="5.39364">
        <ele>1183</ele>
        <time>2021-03-28T03:17:44.456Z</time>
      </trkpt>
      <trkpt lat="44.83784" lon="5.39375">
        <ele>1182</ele>
        <time>2021-03-28T03:17:45.486Z</time>
      </trkpt>
      <trkpt lat="44.83774" lon="5.3941">
        <ele>1177</ele>
        <time>2021-03-28T03:17:49.021Z</time>
      </trkpt>
      <trkpt lat="44.83751" lon="5.39468">
        <ele>1175</ele>
        <time>2021-03-28T03:17:56.006Z</time>
      </trkpt>
      <trkpt lat="44.83715" lon="5.3954">
        <ele>1172</ele>
        <time>2021-03-28T03:18:04.809Z</time>
      </trkpt>
      <trkpt lat="44.83705" lon="5.39572">
        <ele>1173</ele>
        <time>2021-03-28T03:18:19.601Z</time>
      </trkpt>
      <trkpt lat="44.83698" lon="5.39606">
        <ele>1175</ele>
        <time>2021-03-28T03:18:40.098Z</time>
      </trkpt>
      <trkpt lat="44.83694" lon="5.39682">
        <ele>1184</ele>
        <time>2021-03-28T03:19:58.509Z</time>
      </trkpt>
      <trkpt lat="44.83692" lon="5.39692">
        <ele>1185</ele>
        <time>2021-03-28T03:20:09.199Z</time>
      </trkpt>
      <trkpt lat="44.83675" lon="5.3972">
        <ele>1180</ele>
        <time>2021-03-28T03:20:12.652Z</time>
      </trkpt>
      <trkpt lat="44.83659" lon="5.39753">
        <ele>1177</ele>
        <time>2021-03-28T03:20:16.396Z</time>
      </trkpt>
      <trkpt lat="44.8366" lon="5.39765">
        <ele>1182</ele>
        <time>2021-03-28T03:20:28.828Z</time>
      </trkpt>
      <trkpt lat="44.83663" lon="5.39768">
        <ele>1184</ele>
        <time>2021-03-28T03:20:34.164Z</time>
      </trkpt>
      <trkpt lat="44.83668" lon="5.39769">
        <ele>1187</ele>
        <time>2021-03-28T03:20:41.491Z</time>
      </trkpt>
      <trkpt lat="44.83673" lon="5.39764">
        <ele>1188</ele>
        <time>2021-03-28T03:20:50.385Z</time>
      </trkpt>
      <trkpt lat="44.83677" lon="5.39756">
        <ele>1187</ele>
        <time>2021-03-28T03:20:51.302Z</time>
      </trkpt>
      <trkpt lat="44.83679" lon="5.39744">
        <ele>1186</ele>
        <time>2021-03-28T03:20:52.456Z</time>
      </trkpt>
      <trkpt lat="44.83684" lon="5.39729">
        <ele>1186</ele>
        <time>2021-03-28T03:20:56.878Z</time>
      </trkpt>
      <trkpt lat="44.83694" lon="5.39713">
        <ele>1189</ele>
        <time>2021-03-28T03:21:18.821Z</time>
      </trkpt>
      <trkpt lat="44.83704" lon="5.39704">
        <ele>1193</ele>
        <time>2021-03-28T03:21:36.034Z</time>
      </trkpt>
      <trkpt lat="44.83709" lon="5.39694">
        <ele>1194</ele>
        <time>2021-03-28T03:21:46.003Z</time>
      </trkpt>
      <trkpt lat="44.83713" lon="5.39676">
        <ele>1193</ele>
        <time>2021-03-28T03:21:47.770Z</time>
      </trkpt>
      <trkpt lat="44.83714" lon="5.39656">
        <ele>1191</ele>
        <time>2021-03-28T03:21:49.648Z</time>
      </trkpt>
      <trkpt lat="44.83721" lon="5.39618">
        <ele>1189</ele>
        <time>2021-03-28T03:21:53.325Z</time>
      </trkpt>
      <trkpt lat="44.8373" lon="5.39587">
        <ele>1190</ele>
        <time>2021-03-28T03:22:07.869Z</time>
      </trkpt>
      <trkpt lat="44.83742" lon="5.39557">
        <ele>1190</ele>
        <time>2021-03-28T03:22:17.057Z</time>
      </trkpt>
      <trkpt lat="44.83757" lon="5.39537">
        <ele>1193</ele>
        <time>2021-03-28T03:22:47.009Z</time>
      </trkpt>
      <trkpt lat="44.83774" lon="5.39518">
        <ele>1197</ele>
        <time>2021-03-28T03:23:18.482Z</time>
      </trkpt>
      <trkpt lat="44.83803" lon="5.39467">
        <ele>1201</ele>
        <time>2021-03-28T03:23:58.484Z</time>
      </trkpt>
      <trkpt lat="44.8384" lon="5.39413">
        <ele>1210</ele>
        <time>2021-03-28T03:25:15.742Z</time>
      </trkpt>
      <trkpt lat="44.83855" lon="5.39379">
        <ele>1216</ele>
        <time>2021-03-28T03:25:56.941Z</time>
      </trkpt>
      <trkpt lat="44.83857" lon="5.39367">
        <ele>1217</ele>
        <time>2021-03-28T03:26:06.887Z</time>
      </trkpt>
      <trkpt lat="44.83857" lon="5.39355">
        <ele>1217</ele>
        <time>2021-03-28T03:26:10.088Z</time>
      </trkpt>
      <trkpt lat="44.83852" lon="5.39338">
        <ele>1215</ele>
        <time>2021-03-28T03:26:11.812Z</time>
      </trkpt>
      <trkpt lat="44.83838" lon="5.39309">
        <ele>1215</ele>
        <time>2021-03-28T03:26:21.170Z</time>
      </trkpt>
      <trkpt lat="44.83797" lon="5.39254">
        <ele>1212</ele>
        <time>2021-03-28T03:26:28.808Z</time>
      </trkpt>
      <trkpt lat="44.83758" lon="5.39211">
        <ele>1213</ele>
        <time>2021-03-28T03:26:51.658Z</time>
      </trkpt>
      <trkpt lat="44.83708" lon="5.39149">
        <ele>1224</ele>
        <time>2021-03-28T03:28:28.262Z</time>
      </trkpt>
      <trkpt lat="44.83689" lon="5.39133">
        <ele>1230</ele>
        <time>2021-03-28T03:29:00.371Z</time>
      </trkpt>
      <trkpt lat="44.83686" lon="5.39129">
        <ele>1233</ele>
        <time>2021-03-28T03:29:06.361Z</time>
      </trkpt>
      <trkpt lat="44.83684" lon="5.39123">
        <ele>1238</ele>
        <time>2021-03-28T03:29:13.182Z</time>
      </trkpt>
      <trkpt lat="44.83685" lon="5.39116">
        <ele>1245</ele>
        <time>2021-03-28T03:29:20.529Z</time>
      </trkpt>
      <trkpt lat="44.83688" lon="5.39112">
        <ele>1250</ele>
        <time>2021-03-28T03:29:26.520Z</time>
      </trkpt>
      <trkpt lat="44.83692" lon="5.39109">
        <ele>1255</ele>
        <time>2021-03-28T03:29:33.093Z</time>
      </trkpt>
      <trkpt lat="44.83699" lon="5.39112">
        <ele>1256</ele>
        <time>2021-03-28T03:29:43.709Z</time>
      </trkpt>
      <trkpt lat="44.8371" lon="5.39132">
        <ele>1242</ele>
        <time>2021-03-28T03:29:46.079Z</time>
      </trkpt>
      <trkpt lat="44.83727" lon="5.39152">
        <ele>1229</ele>
        <time>2021-03-28T03:29:49.004Z</time>
      </trkpt>
      <trkpt lat="44.83835" lon="5.39248">
        <ele>1230</ele>
        <time>2021-03-28T03:30:40.739Z</time>
      </trkpt>
      <trkpt lat="44.83873" lon="5.39287">
        <ele>1237</ele>
        <time>2021-03-28T03:31:48.930Z</time>
      </trkpt>
      <trkpt lat="44.83887" lon="5.39307">
        <ele>1238</ele>
        <time>2021-03-28T03:32:02.053Z</time>
      </trkpt>
      <trkpt lat="44.8391" lon="5.39352">
        <ele>1240</ele>
        <time>2021-03-28T03:32:28.070Z</time>
      </trkpt>
      <trkpt lat="44.83916" lon="5.39372">
        <ele>1242</ele>
        <time>2021-03-28T03:32:49.321Z</time>
      </trkpt>
      <trkpt lat="44.83916" lon="5.39392">
        <ele>1242</ele>
        <time>2021-03-28T03:32:54.655Z</time>
      </trkpt>
      <trkpt lat="44.83903" lon="5.39433">
        <ele>1240</ele>
        <time>2021-03-28T03:32:58.626Z</time>
      </trkpt>
      <trkpt lat="44.83872" lon="5.39487">
        <ele>1239</ele>
        <time>2021-03-28T03:33:07.818Z</time>
      </trkpt>
      <trkpt lat="44.83851" lon="5.39531">
        <ele>1239</ele>
        <time>2021-03-28T03:33:21.965Z</time>
      </trkpt>
      <trkpt lat="44.83834" lon="5.39571">
        <ele>1240</ele>
        <time>2021-03-28T03:33:39.170Z</time>
      </trkpt>
      <trkpt lat="44.83829" lon="5.39587">
        <ele>1241</ele>
        <time>2021-03-28T03:33:49.375Z</time>
      </trkpt>
      <trkpt lat="44.83815" lon="5.39621">
        <ele>1240</ele>
        <time>2021-03-28T03:33:53.776Z</time>
      </trkpt>
      <trkpt lat="44.83811" lon="5.39645">
        <ele>1242</ele>
        <time>2021-03-28T03:34:13.670Z</time>
      </trkpt>
      <trkpt lat="44.83811" lon="5.3971">
        <ele>1254</ele>
        <time>2021-03-28T03:35:20.546Z</time>
      </trkpt>
      <trkpt lat="44.83815" lon="5.39751">
        <ele>1264</ele>
        <time>2021-03-28T03:36:03.127Z</time>
      </trkpt>
      <trkpt lat="44.84035" lon="5.40542">
        <ele>1268</ele>
        <time>2021-03-28T03:40:04.440Z</time>
      </trkpt>
      <trkpt lat="44.84039" lon="5.40556">
        <ele>1263</ele>
        <time>2021-03-28T03:40:05.854Z</time>
      </trkpt>
      <trkpt lat="44.84043" lon="5.40575">
        <ele>1256</ele>
        <time>2021-03-28T03:40:07.710Z</time>
      </trkpt>
      <trkpt lat="44.84046" lon="5.40595">
        <ele>1254</ele>
        <time>2021-03-28T03:40:09.625Z</time>
      </trkpt>
      <trkpt lat="44.84045" lon="5.40601">
        <ele>1254</ele>
        <time>2021-03-28T03:40:11.269Z</time>
      </trkpt>
      <trkpt lat="44.84046" lon="5.40607">
        <ele>1254</ele>
        <time>2021-03-28T03:40:12.913Z</time>
      </trkpt>
      <trkpt lat="44.84051" lon="5.40614">
        <ele>1254</ele>
        <time>2021-03-28T03:40:15.563Z</time>
      </trkpt>
      <trkpt lat="44.84057" lon="5.40614">
        <ele>1254</ele>
        <time>2021-03-28T03:40:17.820Z</time>
      </trkpt>
      <trkpt lat="44.84061" lon="5.40612">
        <ele>1254</ele>
        <time>2021-03-28T03:40:19.417Z</time>
      </trkpt>
      <trkpt lat="44.84063" lon="5.40608">
        <ele>1254</ele>
        <time>2021-03-28T03:40:20.722Z</time>
      </trkpt>
      <trkpt lat="44.84086" lon="5.40587">
        <ele>1252</ele>
        <time>2021-03-28T03:40:24.342Z</time>
      </trkpt>
      <trkpt lat="44.84148" lon="5.40558">
        <ele>1254</ele>
        <time>2021-03-28T03:40:58.491Z</time>
      </trkpt>
      <trkpt lat="44.84212" lon="5.4053">
        <ele>1253</ele>
        <time>2021-03-28T03:41:11.831Z</time>
      </trkpt>
      <trkpt lat="44.84245" lon="5.4052">
        <ele>1253</ele>
        <time>2021-03-28T03:41:24.528Z</time>
      </trkpt>
      <trkpt lat="44.84297" lon="5.40509">
        <ele>1251</ele>
        <time>2021-03-28T03:41:32.655Z</time>
      </trkpt>
      <trkpt lat="44.84386" lon="5.40507">
        <ele>1244</ele>
        <time>2021-03-28T03:41:44.412Z</time>
      </trkpt>
      <trkpt lat="44.84463" lon="5.40493">
        <ele>1241</ele>
        <time>2021-03-28T03:41:56.341Z</time>
      </trkpt>
      <trkpt lat="44.84515" lon="5.40493">
        <ele>1234</ele>
        <time>2021-03-28T03:42:03.210Z</time>
      </trkpt>
      <trkpt lat="44.84663" lon="5.40473">
        <ele>1228</ele>
        <time>2021-03-28T03:42:25.683Z</time>
      </trkpt>
      <trkpt lat="44.84665" lon="5.40466">
        <ele>1231</ele>
        <time>2021-03-28T03:42:33.447Z</time>
      </trkpt>
      <trkpt lat="44.84675" lon="5.4046">
        <ele>1233</ele>
        <time>2021-03-28T03:42:49.214Z</time>
      </trkpt>
      <trkpt lat="44.84706" lon="5.4046">
        <ele>1230</ele>
        <time>2021-03-28T03:42:53.309Z</time>
      </trkpt>
      <trkpt lat="44.84759" lon="5.40446">
        <ele>1233</ele>
        <time>2021-03-28T03:43:30.136Z</time>
      </trkpt>
      <trkpt lat="44.84783" lon="5.40453">
        <ele>1230</ele>
        <time>2021-03-28T03:43:33.373Z</time>
      </trkpt>
      <trkpt lat="44.84801" lon="5.40456">
        <ele>1229</ele>
        <time>2021-03-28T03:43:35.776Z</time>
      </trkpt>
      <trkpt lat="44.84886" lon="5.40447">
        <ele>1234</ele>
        <time>2021-03-28T03:44:35.214Z</time>
      </trkpt>
      <trkpt lat="44.84937" lon="5.40455">
        <ele>1230</ele>
        <time>2021-03-28T03:44:41.993Z</time>
      </trkpt>
      <trkpt lat="44.85057" lon="5.40453">
        <ele>1233</ele>
        <time>2021-03-28T03:45:40.543Z</time>
      </trkpt>
      <trkpt lat="44.85093" lon="5.40451">
        <ele>1235</ele>
        <time>2021-03-28T03:46:05.128Z</time>
      </trkpt>
      <trkpt lat="44.85132" lon="5.40447">
        <ele>1232</ele>
        <time>2021-03-28T03:46:10.293Z</time>
      </trkpt>
      <trkpt lat="44.85169" lon="5.40439">
        <ele>1230</ele>
        <time>2021-03-28T03:46:15.328Z</time>
      </trkpt>
      <trkpt lat="44.85183" lon="5.40434">
        <ele>1231</ele>
        <time>2021-03-28T03:46:26.198Z</time>
      </trkpt>
      <trkpt lat="44.85226" lon="5.40403">
        <ele>1242</ele>
        <time>2021-03-28T03:47:36.264Z</time>
      </trkpt>
      <trkpt lat="44.85237" lon="5.40399">
        <ele>1243</ele>
        <time>2021-03-28T03:47:46.216Z</time>
      </trkpt>
      <trkpt lat="44.85249" lon="5.40399">
        <ele>1241</ele>
        <time>2021-03-28T03:47:47.801Z</time>
      </trkpt>
      <trkpt lat="44.8529" lon="5.40422">
        <ele>1232</ele>
        <time>2021-03-28T03:47:53.629Z</time>
      </trkpt>
      <trkpt lat="44.85308" lon="5.40427">
        <ele>1231</ele>
        <time>2021-03-28T03:47:56.075Z</time>
      </trkpt>
      <trkpt lat="44.85373" lon="5.40432">
        <ele>1237</ele>
        <time>2021-03-28T03:48:55.240Z</time>
      </trkpt>
      <trkpt lat="44.85458" lon="5.4045">
        <ele>1234</ele>
        <time>2021-03-28T03:49:08.939Z</time>
      </trkpt>
      <trkpt lat="44.8548" lon="5.4045">
        <ele>1235</ele>
        <time>2021-03-28T03:49:22.991Z</time>
      </trkpt>
      <trkpt lat="44.85539" lon="5.40441">
        <ele>1233</ele>
        <time>2021-03-28T03:49:32.565Z</time>
      </trkpt>
      <trkpt lat="44.85571" lon="5.40429">
        <ele>1233</ele>
        <time>2021-03-28T03:49:45.020Z</time>
      </trkpt>
      <trkpt lat="44.85599" lon="5.40409">
        <ele>1243</ele>
        <time>2021-03-28T03:50:30.557Z</time>
      </trkpt>
      <trkpt lat="44.85611" lon="5.40404">
        <ele>1247</ele>
        <time>2021-03-28T03:50:48.712Z</time>
      </trkpt>
      <trkpt lat="44.85638" lon="5.404">
        <ele>1251</ele>
        <time>2021-03-28T03:51:28.103Z</time>
      </trkpt>
      <trkpt lat="44.8565" lon="5.40404">
        <ele>1248</ele>
        <time>2021-03-28T03:51:29.732Z</time>
      </trkpt>
      <trkpt lat="44.8566" lon="5.40409">
        <ele>1246</ele>
        <time>2021-03-28T03:51:31.133Z</time>
      </trkpt>
      <trkpt lat="44.85672" lon="5.40417">
        <ele>1242</ele>
        <time>2021-03-28T03:51:32.887Z</time>
      </trkpt>
      <trkpt lat="44.85698" lon="5.40442">
        <ele>1232</ele>
        <time>2021-03-28T03:51:37.043Z</time>
      </trkpt>
      <trkpt lat="44.85709" lon="5.40447">
        <ele>1231</ele>
        <time>2021-03-28T03:51:38.569Z</time>
      </trkpt>
      <trkpt lat="44.85734" lon="5.40448">
        <ele>1234</ele>
        <time>2021-03-28T03:52:08.939Z</time>
      </trkpt>
      <trkpt lat="44.85774" lon="5.40436">
        <ele>1245</ele>
        <time>2021-03-28T03:53:08.275Z</time>
      </trkpt>
      <trkpt lat="44.85787" lon="5.40434">
        <ele>1246</ele>
        <time>2021-03-28T03:53:18.681Z</time>
      </trkpt>
      <trkpt lat="44.85811" lon="5.40437">
        <ele>1246</ele>
        <time>2021-03-28T03:53:27.745Z</time>
      </trkpt>
      <trkpt lat="44.85837" lon="5.40452">
        <ele>1239</ele>
        <time>2021-03-28T03:53:31.455Z</time>
      </trkpt>
      <trkpt lat="44.85852" lon="5.40455">
        <ele>1238</ele>
        <time>2021-03-28T03:53:33.298Z</time>
      </trkpt>
      <trkpt lat="44.85868" lon="5.40457">
        <ele>1239</ele>
        <time>2021-03-28T03:53:44.785Z</time>
      </trkpt>
      <trkpt lat="44.85954" lon="5.40456">
        <ele>1247</ele>
        <time>2021-03-28T03:55:03.558Z</time>
      </trkpt>
      <trkpt lat="44.85978" lon="5.4046">
        <ele>1247</ele>
        <time>2021-03-28T03:55:12.649Z</time>
      </trkpt>
      <trkpt lat="44.85988" lon="5.40464">
        <ele>1245</ele>
        <time>2021-03-28T03:55:14.022Z</time>
      </trkpt>
      <trkpt lat="44.86018" lon="5.40488">
        <ele>1236</ele>
        <time>2021-03-28T03:55:18.577Z</time>
      </trkpt>
      <trkpt lat="44.86031" lon="5.40494">
        <ele>1235</ele>
        <time>2021-03-28T03:55:20.384Z</time>
      </trkpt>
      <trkpt lat="44.86059" lon="5.40499">
        <ele>1238</ele>
        <time>2021-03-28T03:55:49.797Z</time>
      </trkpt>
      <trkpt lat="44.86086" lon="5.405">
        <ele>1244</ele>
        <time>2021-03-28T03:56:28.986Z</time>
      </trkpt>
      <trkpt lat="44.86096" lon="5.40503">
        <ele>1244</ele>
        <time>2021-03-28T03:56:32.832Z</time>
      </trkpt>
      <trkpt lat="44.8614" lon="5.40523">
        <ele>1243</ele>
        <time>2021-03-28T03:56:41.325Z</time>
      </trkpt>
      <trkpt lat="44.86175" lon="5.40535">
        <ele>1243</ele>
        <time>2021-03-28T03:56:54.874Z</time>
      </trkpt>
      <trkpt lat="44.86229" lon="5.40555">
        <ele>1238</ele>
        <time>2021-03-28T03:57:02.248Z</time>
      </trkpt>
      <trkpt lat="44.86388" lon="5.40595">
        <ele>1239</ele>
        <time>2021-03-28T03:58:06.656Z</time>
      </trkpt>
      <trkpt lat="44.86416" lon="5.406">
        <ele>1241</ele>
        <time>2021-03-28T03:58:28.159Z</time>
      </trkpt>
      <trkpt lat="44.86437" lon="5.406">
        <ele>1243</ele>
        <time>2021-03-28T03:58:47.791Z</time>
      </trkpt>
      <trkpt lat="44.86473" lon="5.40595">
        <ele>1248</ele>
        <time>2021-03-28T03:59:40.277Z</time>
      </trkpt>
      <trkpt lat="44.86489" lon="5.40598">
        <ele>1247</ele>
        <time>2021-03-28T03:59:42.303Z</time>
      </trkpt>
      <trkpt lat="44.86526" lon="5.40613">
        <ele>1245</ele>
        <time>2021-03-28T03:59:47.546Z</time>
      </trkpt>
      <trkpt lat="44.86548" lon="5.40625">
        <ele>1242</ele>
        <time>2021-03-28T03:59:50.662Z</time>
      </trkpt>
      <trkpt lat="44.86579" lon="5.40649">
        <ele>1234</ele>
        <time>2021-03-28T03:59:55.332Z</time>
      </trkpt>
      <trkpt lat="44.86611" lon="5.40662">
        <ele>1233</ele>
        <time>2021-03-28T04:00:00.911Z</time>
      </trkpt>
      <trkpt lat="44.86685" lon="5.4067">
        <ele>1241</ele>
        <time>2021-03-28T04:01:19.478Z</time>
      </trkpt>
      <trkpt lat="44.86702" lon="5.4067">
        <ele>1242</ele>
        <time>2021-03-28T04:01:31.346Z</time>
      </trkpt>
      <trkpt lat="44.86717" lon="5.40667">
        <ele>1245</ele>
        <time>2021-03-28T04:01:53.327Z</time>
      </trkpt>
      <trkpt lat="44.86755" lon="5.40654">
        <ele>1254</ele>
        <time>2021-03-28T04:02:50.061Z</time>
      </trkpt>
      <trkpt lat="44.86773" lon="5.40654">
        <ele>1255</ele>
        <time>2021-03-28T04:03:02.347Z</time>
      </trkpt>
      <trkpt lat="44.86792" lon="5.40658">
        <ele>1253</ele>
        <time>2021-03-28T04:03:04.885Z</time>
      </trkpt>
      <trkpt lat="44.86809" lon="5.40664">
        <ele>1251</ele>
        <time>2021-03-28T04:03:07.200Z</time>
      </trkpt>
      <trkpt lat="44.86821" lon="5.40673">
        <ele>1247</ele>
        <time>2021-03-28T04:03:08.995Z</time>
      </trkpt>
      <trkpt lat="44.86832" lon="5.40685">
        <ele>1241</ele>
        <time>2021-03-28T04:03:10.831Z</time>
      </trkpt>
      <trkpt lat="44.86851" lon="5.40696">
        <ele>1237</ele>
        <time>2021-03-28T04:03:13.544Z</time>
      </trkpt>
      <trkpt lat="44.86916" lon="5.40725">
        <ele>1232</ele>
        <time>2021-03-28T04:03:22.549Z</time>
      </trkpt>
      <trkpt lat="44.87121" lon="5.40749">
        <ele>1232</ele>
        <time>2021-03-28T04:04:39.929Z</time>
      </trkpt>
      <trkpt lat="44.87149" lon="5.40746">
        <ele>1232</ele>
        <time>2021-03-28T04:04:50.492Z</time>
      </trkpt>
      <trkpt lat="44.87229" lon="5.40722">
        <ele>1233</ele>
        <time>2021-03-28T04:05:25.138Z</time>
      </trkpt>
      <trkpt lat="44.87248" lon="5.40708">
        <ele>1232</ele>
        <time>2021-03-28T04:05:28.196Z</time>
      </trkpt>
      <trkpt lat="44.87276" lon="5.4067">
        <ele>1235</ele>
        <time>2021-03-28T04:05:59.296Z</time>
      </trkpt>
      <trkpt lat="44.87293" lon="5.40655">
        <ele>1235</ele>
        <time>2021-03-28T04:06:06.838Z</time>
      </trkpt>
      <trkpt lat="44.87322" lon="5.40634">
        <ele>1233</ele>
        <time>2021-03-28T04:06:10.948Z</time>
      </trkpt>
      <trkpt lat="44.87374" lon="5.40605">
        <ele>1228</ele>
        <time>2021-03-28T04:06:18.334Z</time>
      </trkpt>
      <trkpt lat="44.87393" lon="5.40598">
        <ele>1227</ele>
        <time>2021-03-28T04:06:21.032Z</time>
      </trkpt>
      <trkpt lat="44.87408" lon="5.40595">
        <ele>1226</ele>
        <time>2021-03-28T04:06:22.874Z</time>
      </trkpt>
      <trkpt lat="44.87437" lon="5.40598">
        <ele>1227</ele>
        <time>2021-03-28T04:06:38.843Z</time>
      </trkpt>
      <trkpt lat="44.87479" lon="5.40585">
        <ele>1224</ele>
        <time>2021-03-28T04:06:44.522Z</time>
      </trkpt>
      <trkpt lat="44.87491" lon="5.40583">
        <ele>1223</ele>
        <time>2021-03-28T04:06:46.118Z</time>
      </trkpt>
      <trkpt lat="44.87522" lon="5.40586">
        <ele>1220</ele>
        <time>2021-03-28T04:06:50.223Z</time>
      </trkpt>
      <trkpt lat="44.8756" lon="5.406">
        <ele>1218</ele>
        <time>2021-03-28T04:06:55.619Z</time>
      </trkpt>
      <trkpt lat="44.87588" lon="5.40602">
        <ele>1214</ele>
        <time>2021-03-28T04:06:59.323Z</time>
      </trkpt>
      <trkpt lat="44.87609" lon="5.40607">
        <ele>1213</ele>
        <time>2021-03-28T04:07:02.352Z</time>
      </trkpt>
      <trkpt lat="44.87624" lon="5.40614">
        <ele>1213</ele>
        <time>2021-03-28T04:07:08.295Z</time>
      </trkpt>
      <trkpt lat="44.87658" lon="5.40638">
        <ele>1214</ele>
        <time>2021-03-28T04:07:27.135Z</time>
      </trkpt>
      <trkpt lat="44.87664" lon="5.40634">
        <ele>1212</ele>
        <time>2021-03-28T04:07:28.012Z</time>
      </trkpt>
      <trkpt lat="44.87666" lon="5.40629">
        <ele>1211</ele>
        <time>2021-03-28T04:07:28.549Z</time>
      </trkpt>
      <trkpt lat="44.87664" lon="5.4062">
        <ele>1209</ele>
        <time>2021-03-28T04:07:29.432Z</time>
      </trkpt>
      <trkpt lat="44.8766" lon="5.40613">
        <ele>1208</ele>
        <time>2021-03-28T04:07:30.274Z</time>
      </trkpt>
      <trkpt lat="44.87608" lon="5.40568">
        <ele>1204</ele>
        <time>2021-03-28T04:07:37.717Z</time>
      </trkpt>
      <trkpt lat="44.87573" lon="5.40564">
        <ele>1207</ele>
        <time>2021-03-28T04:08:07.798Z</time>
      </trkpt>
      <trkpt lat="44.87563" lon="5.40557">
        <ele>1207</ele>
        <time>2021-03-28T04:08:11.997Z</time>
      </trkpt>
      <trkpt lat="44.87534" lon="5.40522">
        <ele>1203</ele>
        <time>2021-03-28T04:08:17.037Z</time>
      </trkpt>
      <trkpt lat="44.87522" lon="5.40513">
        <ele>1202</ele>
        <time>2021-03-28T04:08:18.832Z</time>
      </trkpt>
      <trkpt lat="44.87498" lon="5.40497">
        <ele>1201</ele>
        <time>2021-03-28T04:08:22.949Z</time>
      </trkpt>
      <trkpt lat="44.87492" lon="5.40486">
        <ele>1200</ele>
        <time>2021-03-28T04:08:24.248Z</time>
      </trkpt>
      <trkpt lat="44.87469" lon="5.40405">
        <ele>1196</ele>
        <time>2021-03-28T04:08:31.845Z</time>
      </trkpt>
      <trkpt lat="44.87461" lon="5.40381">
        <ele>1196</ele>
        <time>2021-03-28T04:08:38.915Z</time>
      </trkpt>
      <trkpt lat="44.87448" lon="5.40352">
        <ele>1198</ele>
        <time>2021-03-28T04:08:59.195Z</time>
      </trkpt>
      <trkpt lat="44.87444" lon="5.40339">
        <ele>1198</ele>
        <time>2021-03-28T04:09:02.973Z</time>
      </trkpt>
      <trkpt lat="44.87444" lon="5.40326">
        <ele>1198</ele>
        <time>2021-03-28T04:09:06.438Z</time>
      </trkpt>
      <trkpt lat="44.87445" lon="5.40312">
        <ele>1197</ele>
        <time>2021-03-28T04:09:07.755Z</time>
      </trkpt>
      <trkpt lat="44.87466" lon="5.40238">
        <ele>1189</ele>
        <time>2021-03-28T04:09:15.217Z</time>
      </trkpt>
      <trkpt lat="44.8747" lon="5.40197">
        <ele>1185</ele>
        <time>2021-03-28T04:09:19.091Z</time>
      </trkpt>
      <trkpt lat="44.87469" lon="5.40177">
        <ele>1184</ele>
        <time>2021-03-28T04:09:20.968Z</time>
      </trkpt>
      <trkpt lat="44.87466" lon="5.40162">
        <ele>1183</ele>
        <time>2021-03-28T04:09:22.427Z</time>
      </trkpt>
      <trkpt lat="44.87461" lon="5.40147">
        <ele>1183</ele>
        <time>2021-03-28T04:09:26.846Z</time>
      </trkpt>
      <trkpt lat="44.87438" lon="5.40114">
        <ele>1182</ele>
        <time>2021-03-28T04:09:32.315Z</time>
      </trkpt>
      <trkpt lat="44.87428" lon="5.40096">
        <ele>1181</ele>
        <time>2021-03-28T04:09:34.353Z</time>
      </trkpt>
      <trkpt lat="44.87425" lon="5.40076">
        <ele>1180</ele>
        <time>2021-03-28T04:09:36.267Z</time>
      </trkpt>
      <trkpt lat="44.87424" lon="5.40056">
        <ele>1178</ele>
        <time>2021-03-28T04:09:38.143Z</time>
      </trkpt>
      <trkpt lat="44.87426" lon="5.40041">
        <ele>1177</ele>
        <time>2021-03-28T04:09:39.572Z</time>
      </trkpt>
      <trkpt lat="44.8743" lon="5.40023">
        <ele>1175</ele>
        <time>2021-03-28T04:09:41.338Z</time>
      </trkpt>
      <trkpt lat="44.87454" lon="5.39968">
        <ele>1172</ele>
        <time>2021-03-28T04:09:46.924Z</time>
      </trkpt>
      <trkpt lat="44.87463" lon="5.3993">
        <ele>1172</ele>
        <time>2021-03-28T04:09:57.605Z</time>
      </trkpt>
      <trkpt lat="44.87466" lon="5.39905">
        <ele>1173</ele>
        <time>2021-03-28T04:10:09.878Z</time>
      </trkpt>
      <trkpt lat="44.8747" lon="5.39896">
        <ele>1172</ele>
        <time>2021-03-28T04:10:10.873Z</time>
      </trkpt>
      <trkpt lat="44.87473" lon="5.39894">
        <ele>1172</ele>
        <time>2021-03-28T04:10:12.121Z</time>
      </trkpt>
      <trkpt lat="44.87481" lon="5.39899">
        <ele>1170</ele>
        <time>2021-03-28T04:10:13.277Z</time>
      </trkpt>
      <trkpt lat="44.87496" lon="5.39946">
        <ele>1166</ele>
        <time>2021-03-28T04:10:18.102Z</time>
      </trkpt>
      <trkpt lat="44.87511" lon="5.39976">
        <ele>1165</ele>
        <time>2021-03-28T04:10:22.107Z</time>
      </trkpt>
      <trkpt lat="44.87522" lon="5.39987">
        <ele>1165</ele>
        <time>2021-03-28T04:10:27.179Z</time>
      </trkpt>
      <trkpt lat="44.87534" lon="5.3999">
        <ele>1165</ele>
        <time>2021-03-28T04:10:31.763Z</time>
      </trkpt>
      <trkpt lat="44.87545" lon="5.39989">
        <ele>1164</ele>
        <time>2021-03-28T04:10:33.219Z</time>
      </trkpt>
      <trkpt lat="44.87555" lon="5.39984">
        <ele>1163</ele>
        <time>2021-03-28T04:10:34.621Z</time>
      </trkpt>
      <trkpt lat="44.87586" lon="5.39962">
        <ele>1159</ele>
        <time>2021-03-28T04:10:39.204Z</time>
      </trkpt>
      <trkpt lat="44.87658" lon="5.39931">
        <ele>1152</ele>
        <time>2021-03-28T04:10:49.148Z</time>
      </trkpt>
      <trkpt lat="44.87694" lon="5.39923">
        <ele>1149</ele>
        <time>2021-03-28T04:10:53.962Z</time>
      </trkpt>
      <trkpt lat="44.87725" lon="5.39922">
        <ele>1149</ele>
        <time>2021-03-28T04:11:05.626Z</time>
      </trkpt>
      <trkpt lat="44.87743" lon="5.3992">
        <ele>1148</ele>
        <time>2021-03-28T04:11:08.015Z</time>
      </trkpt>
      <trkpt lat="44.87794" lon="5.39907">
        <ele>1150</ele>
        <time>2021-03-28T04:11:38.169Z</time>
      </trkpt>
      <trkpt lat="44.87823" lon="5.39888">
        <ele>1146</ele>
        <time>2021-03-28T04:11:42.393Z</time>
      </trkpt>
      <trkpt lat="44.87842" lon="5.39872">
        <ele>1142</ele>
        <time>2021-03-28T04:11:45.315Z</time>
      </trkpt>
      <trkpt lat="44.8787" lon="5.39837">
        <ele>1132</ele>
        <time>2021-03-28T04:11:50.256Z</time>
      </trkpt>
      <trkpt lat="44.87951" lon="5.39757">
        <ele>1129</ele>
        <time>2021-03-28T04:12:06.765Z</time>
      </trkpt>
      <trkpt lat="44.87969" lon="5.39734">
        <ele>1127</ele>
        <time>2021-03-28T04:12:09.972Z</time>
      </trkpt>
      <trkpt lat="44.87999" lon="5.39682">
        <ele>1122</ele>
        <time>2021-03-28T04:12:16.248Z</time>
      </trkpt>
      <trkpt lat="44.8802" lon="5.39658">
        <ele>1121</ele>
        <time>2021-03-28T04:12:20.467Z</time>
      </trkpt>
      <trkpt lat="44.88072" lon="5.39615">
        <ele>1123</ele>
        <time>2021-03-28T04:12:53.039Z</time>
      </trkpt>
      <trkpt lat="44.88115" lon="5.39568">
        <ele>1117</ele>
        <time>2021-03-28T04:13:00.223Z</time>
      </trkpt>
      <trkpt lat="44.88184" lon="5.39516">
        <ele>1113</ele>
        <time>2021-03-28T04:13:10.951Z</time>
      </trkpt>
      <trkpt lat="44.882" lon="5.39497">
        <ele>1112</ele>
        <time>2021-03-28T04:13:13.903Z</time>
      </trkpt>
      <trkpt lat="44.88212" lon="5.39467">
        <ele>1111</ele>
        <time>2021-03-28T04:13:17.572Z</time>
      </trkpt>
      <trkpt lat="44.88218" lon="5.39436">
        <ele>1109</ele>
        <time>2021-03-28T04:13:20.579Z</time>
      </trkpt>
      <trkpt lat="44.88231" lon="5.39263">
        <ele>1099</ele>
        <time>2021-03-28T04:13:36.862Z</time>
      </trkpt>
      <trkpt lat="44.88235" lon="5.39235">
        <ele>1097</ele>
        <time>2021-03-28T04:13:39.535Z</time>
      </trkpt>
      <trkpt lat="44.88261" lon="5.39179">
        <ele>1093</ele>
        <time>2021-03-28T04:13:45.802Z</time>
      </trkpt>
      <trkpt lat="44.88298" lon="5.39107">
        <ele>1086</ele>
        <time>2021-03-28T04:13:54.126Z</time>
      </trkpt>
      <trkpt lat="44.88312" lon="5.39089">
        <ele>1084</ele>
        <time>2021-03-28T04:13:56.628Z</time>
      </trkpt>
      <trkpt lat="44.88467" lon="5.38925">
        <ele>1078</ele>
        <time>2021-03-28T04:14:28.764Z</time>
      </trkpt>
      <trkpt lat="44.88498" lon="5.38889">
        <ele>1079</ele>
        <time>2021-03-28T04:14:48.330Z</time>
      </trkpt>
      <trkpt lat="44.88737" lon="5.38583">
        <ele>1074</ele>
        <time>2021-03-28T04:15:52.118Z</time>
      </trkpt>
      <trkpt lat="44.88769" lon="5.38553">
        <ele>1074</ele>
        <time>2021-03-28T04:16:06.569Z</time>
      </trkpt>
      <trkpt lat="44.88802" lon="5.38531">
        <ele>1073</ele>
        <time>2021-03-28T04:16:12.857Z</time>
      </trkpt>
      <trkpt lat="44.88888" lon="5.38485">
        <ele>1072</ele>
        <time>2021-03-28T04:16:32.141Z</time>
      </trkpt>
      <trkpt lat="44.88936" lon="5.38449">
        <ele>1072</ele>
        <time>2021-03-28T04:16:52.588Z</time>
      </trkpt>
      <trkpt lat="44.88962" lon="5.38422">
        <ele>1073</ele>
        <time>2021-03-28T04:17:09.541Z</time>
      </trkpt>
      <trkpt lat="44.88985" lon="5.38389">
        <ele>1073</ele>
        <time>2021-03-28T04:17:21.878Z</time>
      </trkpt>
      <trkpt lat="44.89128" lon="5.38045">
        <ele>1067</ele>
        <time>2021-03-28T04:18:14.030Z</time>
      </trkpt>
      <trkpt lat="44.89135" lon="5.38014">
        <ele>1067</ele>
        <time>2021-03-28T04:18:22.701Z</time>
      </trkpt>
      <trkpt lat="44.89137" lon="5.37951">
        <ele>1067</ele>
        <time>2021-03-28T04:18:39.507Z</time>
      </trkpt>
      <trkpt lat="44.8914" lon="5.37928">
        <ele>1066</ele>
        <time>2021-03-28T04:18:41.612Z</time>
      </trkpt>
      <trkpt lat="44.89145" lon="5.37902">
        <ele>1066</ele>
        <time>2021-03-28T04:18:48.792Z</time>
      </trkpt>
      <trkpt lat="44.89154" lon="5.37876">
        <ele>1065</ele>
        <time>2021-03-28T04:18:51.662Z</time>
      </trkpt>
      <trkpt lat="44.89163" lon="5.37858">
        <ele>1064</ele>
        <time>2021-03-28T04:18:53.588Z</time>
      </trkpt>
      <trkpt lat="44.89189" lon="5.37818">
        <ele>1061</ele>
        <time>2021-03-28T04:18:58.668Z</time>
      </trkpt>
      <trkpt lat="44.89201" lon="5.37792">
        <ele>1060</ele>
        <time>2021-03-28T04:19:01.837Z</time>
      </trkpt>
      <trkpt lat="44.89207" lon="5.37772">
        <ele>1059</ele>
        <time>2021-03-28T04:19:03.723Z</time>
      </trkpt>
      <trkpt lat="44.89205" lon="5.37749">
        <ele>1059</ele>
        <time>2021-03-28T04:19:09.898Z</time>
      </trkpt>
      <trkpt lat="44.89206" lon="5.37721">
        <ele>1058</ele>
        <time>2021-03-28T04:19:12.641Z</time>
      </trkpt>
      <trkpt lat="44.8921" lon="5.37694">
        <ele>1058</ele>
        <time>2021-03-28T04:19:19.992Z</time>
      </trkpt>
      <trkpt lat="44.89226" lon="5.37653">
        <ele>1056</ele>
        <time>2021-03-28T04:19:24.208Z</time>
      </trkpt>
      <trkpt lat="44.89406" lon="5.37326">
        <ele>1058</ele>
        <time>2021-03-28T04:21:21.914Z</time>
      </trkpt>
      <trkpt lat="44.8943" lon="5.3729">
        <ele>1059</ele>
        <time>2021-03-28T04:21:39.753Z</time>
      </trkpt>
      <trkpt lat="44.89536" lon="5.37079">
        <ele>1058</ele>
        <time>2021-03-28T04:22:43.365Z</time>
      </trkpt>
      <trkpt lat="44.89538" lon="5.37082">
        <ele>1058</ele>
        <time>2021-03-28T04:22:44.463Z</time>
      </trkpt>
      <trkpt lat="44.89543" lon="5.37083">
        <ele>1058</ele>
        <time>2021-03-28T04:22:46.362Z</time>
      </trkpt>
      <trkpt lat="44.89547" lon="5.37078">
        <ele>1058</ele>
        <time>2021-03-28T04:22:48.372Z</time>
      </trkpt>
      <trkpt lat="44.89547" lon="5.37075">
        <ele>1058</ele>
        <time>2021-03-28T04:22:49.172Z</time>
      </trkpt>
      <trkpt lat="44.89578" lon="5.37073">
        <ele>1058</ele>
        <time>2021-03-28T04:23:00.845Z</time>
      </trkpt>
      <trkpt lat="44.89595" lon="5.37066">
        <ele>1056</ele>
        <time>2021-03-28T04:23:03.184Z</time>
      </trkpt>
      <trkpt lat="44.89605" lon="5.37055">
        <ele>1054</ele>
        <time>2021-03-28T04:23:04.859Z</time>
      </trkpt>
      <trkpt lat="44.89613" lon="5.37037">
        <ele>1052</ele>
        <time>2021-03-28T04:23:06.847Z</time>
      </trkpt>
      <trkpt lat="44.89624" lon="5.36991">
        <ele>1049</ele>
        <time>2021-03-28T04:23:11.390Z</time>
      </trkpt>
      <trkpt lat="44.8963" lon="5.36971">
        <ele>1049</ele>
        <time>2021-03-28T04:23:17.178Z</time>
      </trkpt>
      <trkpt lat="44.89644" lon="5.36946">
        <ele>1047</ele>
        <time>2021-03-28T04:23:20.160Z</time>
      </trkpt>
      <trkpt lat="44.89653" lon="5.36936">
        <ele>1045</ele>
        <time>2021-03-28T04:23:21.673Z</time>
      </trkpt>
      <trkpt lat="44.89662" lon="5.3693">
        <ele>1044</ele>
        <time>2021-03-28T04:23:22.987Z</time>
      </trkpt>
      <trkpt lat="44.89673" lon="5.36923">
        <ele>1043</ele>
        <time>2021-03-28T04:23:24.581Z</time>
      </trkpt>
      <trkpt lat="44.89695" lon="5.36914">
        <ele>1043</ele>
        <time>2021-03-28T04:23:33.197Z</time>
      </trkpt>
      <trkpt lat="44.89747" lon="5.369">
        <ele>1043</ele>
        <time>2021-03-28T04:23:53.111Z</time>
      </trkpt>
      <trkpt lat="44.89779" lon="5.36896">
        <ele>1043</ele>
        <time>2021-03-28T04:24:05.195Z</time>
      </trkpt>
      <trkpt lat="44.89812" lon="5.36898">
        <ele>1043</ele>
        <time>2021-03-28T04:24:17.620Z</time>
      </trkpt>
      <trkpt lat="44.89846" lon="5.36909">
        <ele>1044</ele>
        <time>2021-03-28T04:24:35.414Z</time>
      </trkpt>
      <trkpt lat="44.89877" lon="5.36925">
        <ele>1045</ele>
        <time>2021-03-28T04:24:52.599Z</time>
      </trkpt>
      <trkpt lat="44.89896" lon="5.36939">
        <ele>1045</ele>
        <time>2021-03-28T04:25:00.662Z</time>
      </trkpt>
      <trkpt lat="44.89978" lon="5.37001">
        <ele>1047</ele>
        <time>2021-03-28T04:25:44.234Z</time>
      </trkpt>
      <trkpt lat="44.89995" lon="5.37018">
        <ele>1048</ele>
        <time>2021-03-28T04:25:57.760Z</time>
      </trkpt>
      <trkpt lat="44.9002" lon="5.37045">
        <ele>1049</ele>
        <time>2021-03-28T04:26:14.460Z</time>
      </trkpt>
      <trkpt lat="44.90075" lon="5.37112">
        <ele>1051</ele>
        <time>2021-03-28T04:26:51.002Z</time>
      </trkpt>
      <trkpt lat="44.90095" lon="5.37129">
        <ele>1052</ele>
        <time>2021-03-28T04:27:05.454Z</time>
      </trkpt>
      <trkpt lat="44.90112" lon="5.3714">
        <ele>1053</ele>
        <time>2021-03-28T04:27:18.041Z</time>
      </trkpt>
      <trkpt lat="44.90137" lon="5.37147">
        <ele>1054</ele>
        <time>2021-03-28T04:27:33.007Z</time>
      </trkpt>
      <trkpt lat="44.90289" lon="5.37157">
        <ele>1062</ele>
        <time>2021-03-28T04:29:14.812Z</time>
      </trkpt>
      <trkpt lat="44.90329" lon="5.37161">
        <ele>1063</ele>
        <time>2021-03-28T04:29:34.362Z</time>
      </trkpt>
      <trkpt lat="44.9036" lon="5.37169">
        <ele>1063</ele>
        <time>2021-03-28T04:29:46.216Z</time>
      </trkpt>
      <trkpt lat="44.90361" lon="5.37163">
        <ele>1063</ele>
        <time>2021-03-28T04:29:47.859Z</time>
      </trkpt>
      <trkpt lat="44.90373" lon="5.37136">
        <ele>1065</ele>
        <time>2021-03-28T04:30:07.733Z</time>
      </trkpt>
      <trkpt lat="44.90398" lon="5.371">
        <ele>1067</ele>
        <time>2021-03-28T04:30:32.184Z</time>
      </trkpt>
      <trkpt lat="44.90492" lon="5.36969">
        <ele>1076</ele>
        <time>2021-03-28T04:32:10.779Z</time>
      </trkpt>
      <trkpt lat="44.90552" lon="5.36884">
        <ele>1084</ele>
        <time>2021-03-28T04:33:29.420Z</time>
      </trkpt>
      <trkpt lat="44.90579" lon="5.36848">
        <ele>1089</ele>
        <time>2021-03-28T04:34:23.303Z</time>
      </trkpt>
      <trkpt lat="44.90616" lon="5.36796">
        <ele>1094</ele>
        <time>2021-03-28T04:35:12.353Z</time>
      </trkpt>
      <trkpt lat="44.90661" lon="5.3674">
        <ele>1102</ele>
        <time>2021-03-28T04:36:39.304Z</time>
      </trkpt>
      <trkpt lat="44.90681" lon="5.36716">
        <ele>1106</ele>
        <time>2021-03-28T04:37:17.387Z</time>
      </trkpt>
      <trkpt lat="44.90687" lon="5.36709">
        <ele>1107</ele>
        <time>2021-03-28T04:37:27.926Z</time>
      </trkpt>
      <trkpt lat="44.90704" lon="5.36694">
        <ele>1110</ele>
        <time>2021-03-28T04:37:57.012Z</time>
      </trkpt>
      <trkpt lat="44.90717" lon="5.36687">
        <ele>1112</ele>
        <time>2021-03-28T04:38:17.200Z</time>
      </trkpt>
      <trkpt lat="44.9073" lon="5.36687">
        <ele>1113</ele>
        <time>2021-03-28T04:38:27.582Z</time>
      </trkpt>
      <trkpt lat="44.90741" lon="5.36694">
        <ele>1112</ele>
        <time>2021-03-28T04:38:29.176Z</time>
      </trkpt>
      <trkpt lat="44.90778" lon="5.36734">
        <ele>1111</ele>
        <time>2021-03-28T04:38:37.754Z</time>
      </trkpt>
      <trkpt lat="44.90823" lon="5.36777">
        <ele>1114</ele>
        <time>2021-03-28T04:39:14.758Z</time>
      </trkpt>
      <trkpt lat="44.90847" lon="5.36806">
        <ele>1114</ele>
        <time>2021-03-28T04:39:26.640Z</time>
      </trkpt>
      <trkpt lat="44.90857" lon="5.36816">
        <ele>1114</ele>
        <time>2021-03-28T04:39:31.250Z</time>
      </trkpt>
      <trkpt lat="44.90868" lon="5.36822">
        <ele>1115</ele>
        <time>2021-03-28T04:39:41.297Z</time>
      </trkpt>
      <trkpt lat="44.90881" lon="5.36826">
        <ele>1117</ele>
        <time>2021-03-28T04:40:00.602Z</time>
      </trkpt>
      <trkpt lat="44.90959" lon="5.36825">
        <ele>1129</ele>
        <time>2021-03-28T04:41:53.780Z</time>
      </trkpt>
      <trkpt lat="44.90979" lon="5.36831">
        <ele>1129</ele>
        <time>2021-03-28T04:42:01.472Z</time>
      </trkpt>
      <trkpt lat="44.91048" lon="5.36867">
        <ele>1135</ele>
        <time>2021-03-28T04:43:02.472Z</time>
      </trkpt>
      <trkpt lat="44.9107" lon="5.36876">
        <ele>1136</ele>
        <time>2021-03-28T04:43:16.830Z</time>
      </trkpt>
      <trkpt lat="44.91119" lon="5.36881">
        <ele>1144</ele>
        <time>2021-03-28T04:44:28.112Z</time>
      </trkpt>
      <trkpt lat="44.9114" lon="5.36887">
        <ele>1147</ele>
        <time>2021-03-28T04:44:59.199Z</time>
      </trkpt>
      <trkpt lat="44.9116" lon="5.36896">
        <ele>1149</ele>
        <time>2021-03-28T04:45:18.830Z</time>
      </trkpt>
      <trkpt lat="44.91177" lon="5.36907">
        <ele>1150</ele>
        <time>2021-03-28T04:45:31.416Z</time>
      </trkpt>
      <trkpt lat="44.9119" lon="5.36918">
        <ele>1151</ele>
        <time>2021-03-28T04:45:42.551Z</time>
      </trkpt>
      <trkpt lat="44.91205" lon="5.36938">
        <ele>1152</ele>
        <time>2021-03-28T04:45:55.986Z</time>
      </trkpt>
      <trkpt lat="44.9122" lon="5.36963">
        <ele>1152</ele>
        <time>2021-03-28T04:46:04.715Z</time>
      </trkpt>
      <trkpt lat="44.91236" lon="5.36986">
        <ele>1152</ele>
        <time>2021-03-28T04:46:13.304Z</time>
      </trkpt>
      <trkpt lat="44.91252" lon="5.36998">
        <ele>1155</ele>
        <time>2021-03-28T04:46:39.590Z</time>
      </trkpt>
      <trkpt lat="44.91267" lon="5.37004">
        <ele>1156</ele>
        <time>2021-03-28T04:46:50.892Z</time>
      </trkpt>
      <trkpt lat="44.91285" lon="5.37007">
        <ele>1158</ele>
        <time>2021-03-28T04:47:10.610Z</time>
      </trkpt>
      <trkpt lat="44.91298" lon="5.37005">
        <ele>1160</ele>
        <time>2021-03-28T04:47:29.584Z</time>
      </trkpt>
      <trkpt lat="44.91354" lon="5.36982">
        <ele>1175</ele>
        <time>2021-03-28T04:48:54.204Z</time>
      </trkpt>
      <trkpt lat="44.91375" lon="5.36978">
        <ele>1180</ele>
        <time>2021-03-28T04:49:24.949Z</time>
      </trkpt>
      <trkpt lat="44.91392" lon="5.36981">
        <ele>1182</ele>
        <time>2021-03-28T04:49:44.975Z</time>
      </trkpt>
      <trkpt lat="44.91429" lon="5.36998">
        <ele>1184</ele>
        <time>2021-03-28T04:50:10.805Z</time>
      </trkpt>
      <trkpt lat="44.91447" lon="5.3701">
        <ele>1186</ele>
        <time>2021-03-28T04:50:30.367Z</time>
      </trkpt>
      <trkpt lat="44.9152" lon="5.37077">
        <ele>1186</ele>
        <time>2021-03-28T04:51:03.118Z</time>
      </trkpt>
      <trkpt lat="44.91539" lon="5.37091">
        <ele>1186</ele>
        <time>2021-03-28T04:51:11.180Z</time>
      </trkpt>
      <trkpt lat="44.91556" lon="5.37099">
        <ele>1188</ele>
        <time>2021-03-28T04:51:30.946Z</time>
      </trkpt>
      <trkpt lat="44.91602" lon="5.37114">
        <ele>1193</ele>
        <time>2021-03-28T04:52:19.950Z</time>
      </trkpt>
      <trkpt lat="44.91635" lon="5.37121">
        <ele>1197</ele>
        <time>2021-03-28T04:53:00.430Z</time>
      </trkpt>
      <trkpt lat="44.91676" lon="5.37128">
        <ele>1202</ele>
        <time>2021-03-28T04:53:51.267Z</time>
      </trkpt>
      <trkpt lat="44.91716" lon="5.37144">
        <ele>1201</ele>
        <time>2021-03-28T04:53:58.698Z</time>
      </trkpt>
      <trkpt lat="44.91738" lon="5.3715">
        <ele>1201</ele>
        <time>2021-03-28T04:54:07.127Z</time>
      </trkpt>
      <trkpt lat="44.91799" lon="5.3716">
        <ele>1203</ele>
        <time>2021-03-28T04:54:40.048Z</time>
      </trkpt>
      <trkpt lat="44.91808" lon="5.37156">
        <ele>1206</ele>
        <time>2021-03-28T04:54:53.738Z</time>
      </trkpt>
      <trkpt lat="44.9181" lon="5.37151">
        <ele>1208</ele>
        <time>2021-03-28T04:54:59.638Z</time>
      </trkpt>
      <trkpt lat="44.9181" lon="5.37148">
        <ele>1210</ele>
        <time>2021-03-28T04:55:02.720Z</time>
      </trkpt>
      <trkpt lat="44.91808" lon="5.37141">
        <ele>1213</ele>
        <time>2021-03-28T04:55:10.476Z</time>
      </trkpt>
      <trkpt lat="44.91801" lon="5.37137">
        <ele>1214</ele>
        <time>2021-03-28T04:55:21.275Z</time>
      </trkpt>
      <trkpt lat="44.9177" lon="5.37141">
        <ele>1209</ele>
        <time>2021-03-28T04:55:25.387Z</time>
      </trkpt>
      <trkpt lat="44.91755" lon="5.37138">
        <ele>1209</ele>
        <time>2021-03-28T04:55:31.086Z</time>
      </trkpt>
      <trkpt lat="44.9174" lon="5.37131">
        <ele>1211</ele>
        <time>2021-03-28T04:55:51.947Z</time>
      </trkpt>
      <trkpt lat="44.91672" lon="5.37078">
        <ele>1222</ele>
        <time>2021-03-28T04:57:44.641Z</time>
      </trkpt>
      <trkpt lat="44.9163" lon="5.37054">
        <ele>1223</ele>
        <time>2021-03-28T04:58:06.003Z</time>
      </trkpt>
      <trkpt lat="44.91616" lon="5.37043">
        <ele>1225</ele>
        <time>2021-03-28T04:58:26.679Z</time>
      </trkpt>
      <trkpt lat="44.9156" lon="5.36987">
        <ele>1231</ele>
        <time>2021-03-28T04:59:26.484Z</time>
      </trkpt>
      <trkpt lat="44.9153" lon="5.36939">
        <ele>1239</ele>
        <time>2021-03-28T05:00:32.265Z</time>
      </trkpt>
      <trkpt lat="44.91513" lon="5.36918">
        <ele>1242</ele>
        <time>2021-03-28T05:01:04.749Z</time>
      </trkpt>
      <trkpt lat="44.91486" lon="5.36892">
        <ele>1242</ele>
        <time>2021-03-28T05:01:17.043Z</time>
      </trkpt>
      <trkpt lat="44.91412" lon="5.36808">
        <ele>1247</ele>
        <time>2021-03-28T05:02:20.602Z</time>
      </trkpt>
      <trkpt lat="44.9138" lon="5.36758">
        <ele>1256</ele>
        <time>2021-03-28T05:03:29.849Z</time>
      </trkpt>
      <trkpt lat="44.91347" lon="5.3672">
        <ele>1259</ele>
        <time>2021-03-28T05:04:02.191Z</time>
      </trkpt>
      <trkpt lat="44.91306" lon="5.36684">
        <ele>1258</ele>
        <time>2021-03-28T05:04:11.156Z</time>
      </trkpt>
      <trkpt lat="44.91272" lon="5.36652">
        <ele>1261</ele>
        <time>2021-03-28T05:04:42.904Z</time>
      </trkpt>
      <trkpt lat="44.91241" lon="5.36628">
        <ele>1264</ele>
        <time>2021-03-28T05:05:13.041Z</time>
      </trkpt>
      <trkpt lat="44.91208" lon="5.36589">
        <ele>1270</ele>
        <time>2021-03-28T05:06:15.479Z</time>
      </trkpt>
      <trkpt lat="44.9119" lon="5.36572">
        <ele>1271</ele>
        <time>2021-03-28T05:06:29.375Z</time>
      </trkpt>
      <trkpt lat="44.91159" lon="5.3655">
        <ele>1270</ele>
        <time>2021-03-28T05:06:35.262Z</time>
      </trkpt>
      <trkpt lat="44.9115" lon="5.36541">
        <ele>1271</ele>
        <time>2021-03-28T05:06:45.151Z</time>
      </trkpt>
      <trkpt lat="44.91119" lon="5.365">
        <ele>1281</ele>
        <time>2021-03-28T05:07:46.780Z</time>
      </trkpt>
      <trkpt lat="44.911" lon="5.36481">
        <ele>1283</ele>
        <time>2021-03-28T05:08:06.804Z</time>
      </trkpt>
      <trkpt lat="44.91045" lon="5.36432">
        <ele>1288</ele>
        <time>2021-03-28T05:08:58.726Z</time>
      </trkpt>
      <trkpt lat="44.90996" lon="5.36393">
        <ele>1291</ele>
        <time>2021-03-28T05:09:36.550Z</time>
      </trkpt>
      <trkpt lat="44.90939" lon="5.36351">
        <ele>1296</ele>
        <time>2021-03-28T05:10:28.245Z</time>
      </trkpt>
      <trkpt lat="44.90896" lon="5.36322">
        <ele>1295</ele>
        <time>2021-03-28T05:10:37.065Z</time>
      </trkpt>
      <trkpt lat="44.90881" lon="5.3631">
        <ele>1295</ele>
        <time>2021-03-28T05:10:43.550Z</time>
      </trkpt>
      <trkpt lat="44.90869" lon="5.36297">
        <ele>1297</ele>
        <time>2021-03-28T05:11:05.121Z</time>
      </trkpt>
      <trkpt lat="44.90843" lon="5.36266">
        <ele>1301</ele>
        <time>2021-03-28T05:11:45.274Z</time>
      </trkpt>
      <trkpt lat="44.90799" lon="5.36207">
        <ele>1305</ele>
        <time>2021-03-28T05:12:29.835Z</time>
      </trkpt>
      <trkpt lat="44.9079" lon="5.36192">
        <ele>1307</ele>
        <time>2021-03-28T05:12:50.037Z</time>
      </trkpt>
      <trkpt lat="44.90781" lon="5.36171">
        <ele>1311</ele>
        <time>2021-03-28T05:13:15.260Z</time>
      </trkpt>
      <trkpt lat="44.90769" lon="5.36136">
        <ele>1315</ele>
        <time>2021-03-28T05:13:55.220Z</time>
      </trkpt>
      <trkpt lat="44.9076" lon="5.36116">
        <ele>1317</ele>
        <time>2021-03-28T05:14:15.408Z</time>
      </trkpt>
      <trkpt lat="44.9075" lon="5.36102">
        <ele>1316</ele>
        <time>2021-03-28T05:14:17.269Z</time>
      </trkpt>
      <trkpt lat="44.90736" lon="5.36082">
        <ele>1316</ele>
        <time>2021-03-28T05:14:24.760Z</time>
      </trkpt>
      <trkpt lat="44.9073" lon="5.36067">
        <ele>1316</ele>
        <time>2021-03-28T05:14:29.350Z</time>
      </trkpt>
      <trkpt lat="44.90725" lon="5.36051">
        <ele>1316</ele>
        <time>2021-03-28T05:14:34.009Z</time>
      </trkpt>
      <trkpt lat="44.90723" lon="5.36033">
        <ele>1319</ele>
        <time>2021-03-28T05:14:52.733Z</time>
      </trkpt>
      <trkpt lat="44.90724" lon="5.35991">
        <ele>1326</ele>
        <time>2021-03-28T05:15:35.918Z</time>
      </trkpt>
      <trkpt lat="44.90729" lon="5.35973">
        <ele>1328</ele>
        <time>2021-03-28T05:15:55.787Z</time>
      </trkpt>
      <trkpt lat="44.90734" lon="5.35954">
        <ele>1331</ele>
        <time>2021-03-28T05:16:16.616Z</time>
      </trkpt>
      <trkpt lat="44.90734" lon="5.35942">
        <ele>1331</ele>
        <time>2021-03-28T05:16:19.813Z</time>
      </trkpt>
      <trkpt lat="44.90732" lon="5.35894">
        <ele>1334</ele>
        <time>2021-03-28T05:16:49.663Z</time>
      </trkpt>
      <trkpt lat="44.90734" lon="5.35878">
        <ele>1336</ele>
        <time>2021-03-28T05:17:06.359Z</time>
      </trkpt>
      <trkpt lat="44.90746" lon="5.3583">
        <ele>1340</ele>
        <time>2021-03-28T05:17:45.839Z</time>
      </trkpt>
      <trkpt lat="44.90747" lon="5.35818">
        <ele>1341</ele>
        <time>2021-03-28T05:17:55.855Z</time>
      </trkpt>
      <trkpt lat="44.90744" lon="5.35799">
        <ele>1342</ele>
        <time>2021-03-28T05:18:06.495Z</time>
      </trkpt>
      <trkpt lat="44.9073" lon="5.3576">
        <ele>1343</ele>
        <time>2021-03-28T05:18:23.036Z</time>
      </trkpt>
      <trkpt lat="44.90726" lon="5.35735">
        <ele>1344</ele>
        <time>2021-03-28T05:18:35.388Z</time>
      </trkpt>
      <trkpt lat="44.90724" lon="5.35717">
        <ele>1344</ele>
        <time>2021-03-28T05:18:40.242Z</time>
      </trkpt>
      <trkpt lat="44.90725" lon="5.35678">
        <ele>1346</ele>
        <time>2021-03-28T05:19:01.543Z</time>
      </trkpt>
      <trkpt lat="44.90728" lon="5.35668">
        <ele>1347</ele>
        <time>2021-03-28T05:19:12.177Z</time>
      </trkpt>
      <trkpt lat="44.90729" lon="5.35665">
        <ele>1347</ele>
        <time>2021-03-28T05:19:13.061Z</time>
      </trkpt>
      <trkpt lat="44.90736" lon="5.35648">
        <ele>1347</ele>
        <time>2021-03-28T05:19:18.300Z</time>
      </trkpt>
      <trkpt lat="44.90746" lon="5.35631">
        <ele>1347</ele>
        <time>2021-03-28T05:19:24.187Z</time>
      </trkpt>
      <trkpt lat="44.90752" lon="5.35624">
        <ele>1347</ele>
        <time>2021-03-28T05:19:27.115Z</time>
      </trkpt>
      <trkpt lat="44.90813" lon="5.35574">
        <ele>1357</ele>
        <time>2021-03-28T05:21:09.455Z</time>
      </trkpt>
      <trkpt lat="44.90823" lon="5.35571">
        <ele>1359</ele>
        <time>2021-03-28T05:21:24.288Z</time>
      </trkpt>
      <trkpt lat="44.90853" lon="5.3558">
        <ele>1365</ele>
        <time>2021-03-28T05:22:08.788Z</time>
      </trkpt>
      <trkpt lat="44.90862" lon="5.35579">
        <ele>1366</ele>
        <time>2021-03-28T05:22:18.655Z</time>
      </trkpt>
      <trkpt lat="44.90872" lon="5.35576">
        <ele>1367</ele>
        <time>2021-03-28T05:22:28.447Z</time>
      </trkpt>
      <trkpt lat="44.90908" lon="5.35553">
        <ele>1369</ele>
        <time>2021-03-28T05:22:54.543Z</time>
      </trkpt>
      <trkpt lat="44.90926" lon="5.35548">
        <ele>1370</ele>
        <time>2021-03-28T05:23:06.977Z</time>
      </trkpt>
      <trkpt lat="44.90955" lon="5.35542">
        <ele>1372</ele>
        <time>2021-03-28T05:23:28.871Z</time>
      </trkpt>
      <trkpt lat="44.9097" lon="5.35538">
        <ele>1373</ele>
        <time>2021-03-28T05:23:40.048Z</time>
      </trkpt>
      <trkpt lat="44.90988" lon="5.35527">
        <ele>1374</ele>
        <time>2021-03-28T05:23:53.033Z</time>
      </trkpt>
      <trkpt lat="44.90992" lon="5.35523">
        <ele>1373</ele>
        <time>2021-03-28T05:23:53.680Z</time>
      </trkpt>
      <trkpt lat="44.91002" lon="5.35514">
        <ele>1373</ele>
        <time>2021-03-28T05:23:58.141Z</time>
      </trkpt>
      <trkpt lat="44.91012" lon="5.35496">
        <ele>1372</ele>
        <time>2021-03-28T05:24:00.178Z</time>
      </trkpt>
      <trkpt lat="44.91019" lon="5.35479">
        <ele>1372</ele>
        <time>2021-03-28T05:24:05.417Z</time>
      </trkpt>
      <trkpt lat="44.91023" lon="5.3546">
        <ele>1372</ele>
        <time>2021-03-28T05:24:10.697Z</time>
      </trkpt>
      <trkpt lat="44.91023" lon="5.35444">
        <ele>1371</ele>
        <time>2021-03-28T05:24:12.194Z</time>
      </trkpt>
      <trkpt lat="44.91019" lon="5.35415">
        <ele>1369</ele>
        <time>2021-03-28T05:24:14.958Z</time>
      </trkpt>
      <trkpt lat="44.91001" lon="5.35329">
        <ele>1370</ele>
        <time>2021-03-28T05:24:42.875Z</time>
      </trkpt>
      <trkpt lat="44.90999" lon="5.35307">
        <ele>1370</ele>
        <time>2021-03-28T05:24:48.784Z</time>
      </trkpt>
      <trkpt lat="44.90999" lon="5.3529">
        <ele>1370</ele>
        <time>2021-03-28T05:24:53.313Z</time>
      </trkpt>
      <trkpt lat="44.91008" lon="5.35208">
        <ele>1373</ele>
        <time>2021-03-28T05:25:32.235Z</time>
      </trkpt>
      <trkpt lat="44.91009" lon="5.35178">
        <ele>1374</ele>
        <time>2021-03-28T05:25:45.957Z</time>
      </trkpt>
      <trkpt lat="44.91006" lon="5.35122">
        <ele>1373</ele>
        <time>2021-03-28T05:25:52.980Z</time>
      </trkpt>
      <trkpt lat="44.90992" lon="5.35019">
        <ele>1375</ele>
        <time>2021-03-28T05:26:30.069Z</time>
      </trkpt>
      <trkpt lat="44.9099" lon="5.35">
        <ele>1376</ele>
        <time>2021-03-28T05:26:40.646Z</time>
      </trkpt>
      <trkpt lat="44.9099" lon="5.34984">
        <ele>1377</ele>
        <time>2021-03-28T05:26:50.592Z</time>
      </trkpt>
      <trkpt lat="44.90998" lon="5.34895">
        <ele>1383</ele>
        <time>2021-03-28T05:27:49.547Z</time>
      </trkpt>
      <trkpt lat="44.90998" lon="5.34869">
        <ele>1385</ele>
        <time>2021-03-28T05:28:09.211Z</time>
      </trkpt>
      <trkpt lat="44.90982" lon="5.34814">
        <ele>1387</ele>
        <time>2021-03-28T05:28:36.461Z</time>
      </trkpt>
      <trkpt lat="44.90977" lon="5.34776">
        <ele>1388</ele>
        <time>2021-03-28T05:28:51.937Z</time>
      </trkpt>
      <trkpt lat="44.90967" lon="5.34677">
        <ele>1394</ele>
        <time>2021-03-28T05:29:52.238Z</time>
      </trkpt>
      <trkpt lat="44.90964" lon="5.34662">
        <ele>1395</ele>
        <time>2021-03-28T05:30:02.130Z</time>
      </trkpt>
      <trkpt lat="44.90958" lon="5.34648">
        <ele>1397</ele>
        <time>2021-03-28T05:30:18.945Z</time>
      </trkpt>
      <trkpt lat="44.90949" lon="5.34638">
        <ele>1398</ele>
        <time>2021-03-28T05:30:28.916Z</time>
      </trkpt>
      <trkpt lat="44.90938" lon="5.34631">
        <ele>1398</ele>
        <time>2021-03-28T05:30:33.454Z</time>
      </trkpt>
      <trkpt lat="44.90927" lon="5.34629">
        <ele>1397</ele>
        <time>2021-03-28T05:30:34.919Z</time>
      </trkpt>
      <trkpt lat="44.90915" lon="5.34631">
        <ele>1396</ele>
        <time>2021-03-28T05:30:36.515Z</time>
      </trkpt>
      <trkpt lat="44.90882" lon="5.34643">
        <ele>1394</ele>
        <time>2021-03-28T05:30:40.904Z</time>
      </trkpt>
      <trkpt lat="44.90873" lon="5.34642">
        <ele>1394</ele>
        <time>2021-03-28T05:30:44.300Z</time>
      </trkpt>
      <trkpt lat="44.90861" lon="5.34632">
        <ele>1395</ele>
        <time>2021-03-28T05:30:54.990Z</time>
      </trkpt>
      <trkpt lat="44.90855" lon="5.34624">
        <ele>1396</ele>
        <time>2021-03-28T05:31:05.162Z</time>
      </trkpt>
      <trkpt lat="44.90837" lon="5.34578">
        <ele>1401</ele>
        <time>2021-03-28T05:31:59.167Z</time>
      </trkpt>
      <trkpt lat="44.90829" lon="5.34564">
        <ele>1402</ele>
        <time>2021-03-28T05:32:09.470Z</time>
      </trkpt>
      <trkpt lat="44.90819" lon="5.34553">
        <ele>1402</ele>
        <time>2021-03-28T05:32:14.239Z</time>
      </trkpt>
      <trkpt lat="44.90801" lon="5.34541">
        <ele>1402</ele>
        <time>2021-03-28T05:32:21.726Z</time>
      </trkpt>
      <trkpt lat="44.9079" lon="5.34531">
        <ele>1402</ele>
        <time>2021-03-28T05:32:26.648Z</time>
      </trkpt>
      <trkpt lat="44.9078" lon="5.34518">
        <ele>1402</ele>
        <time>2021-03-28T05:32:31.761Z</time>
      </trkpt>
      <trkpt lat="44.90776" lon="5.34503">
        <ele>1402</ele>
        <time>2021-03-28T05:32:36.031Z</time>
      </trkpt>
      <trkpt lat="44.90766" lon="5.34438">
        <ele>1406</ele>
        <time>2021-03-28T05:33:16.207Z</time>
      </trkpt>
      <trkpt lat="44.90762" lon="5.34421">
        <ele>1407</ele>
        <time>2021-03-28T05:33:26.495Z</time>
      </trkpt>
      <trkpt lat="44.90755" lon="5.34404">
        <ele>1409</ele>
        <time>2021-03-28T05:33:46.702Z</time>
      </trkpt>
      <trkpt lat="44.90744" lon="5.34387">
        <ele>1410</ele>
        <time>2021-03-28T05:33:58.288Z</time>
      </trkpt>
      <trkpt lat="44.90699" lon="5.34331">
        <ele>1413</ele>
        <time>2021-03-28T05:34:37.746Z</time>
      </trkpt>
      <trkpt lat="44.90688" lon="5.34319">
        <ele>1414</ele>
        <time>2021-03-28T05:34:48.425Z</time>
      </trkpt>
      <trkpt lat="44.90635" lon="5.3428">
        <ele>1416</ele>
        <time>2021-03-28T05:35:20.844Z</time>
      </trkpt>
      <trkpt lat="44.90554" lon="5.34224">
        <ele>1418</ele>
        <time>2021-03-28T05:36:03.418Z</time>
      </trkpt>
      <trkpt lat="44.90545" lon="5.34216">
        <ele>1418</ele>
        <time>2021-03-28T05:36:07.419Z</time>
      </trkpt>
      <trkpt lat="44.90538" lon="5.34206">
        <ele>1418</ele>
        <time>2021-03-28T05:36:11.165Z</time>
      </trkpt>
      <trkpt lat="44.90533" lon="5.34195">
        <ele>1419</ele>
        <time>2021-03-28T05:36:20.989Z</time>
      </trkpt>
      <trkpt lat="44.90531" lon="5.34185">
        <ele>1419</ele>
        <time>2021-03-28T05:36:23.757Z</time>
      </trkpt>
      <trkpt lat="44.9053" lon="5.34171">
        <ele>1420</ele>
        <time>2021-03-28T05:36:33.539Z</time>
      </trkpt>
      <trkpt lat="44.90537" lon="5.3414">
        <ele>1421</ele>
        <time>2021-03-28T05:36:47.926Z</time>
      </trkpt>
      <trkpt lat="44.90545" lon="5.34111">
        <ele>1421</ele>
        <time>2021-03-28T05:36:56.218Z</time>
      </trkpt>
      <trkpt lat="44.90551" lon="5.34097">
        <ele>1421</ele>
        <time>2021-03-28T05:37:00.578Z</time>
      </trkpt>
      <trkpt lat="44.9056" lon="5.34087">
        <ele>1422</ele>
        <time>2021-03-28T05:37:10.549Z</time>
      </trkpt>
      <trkpt lat="44.90573" lon="5.34078">
        <ele>1424</ele>
        <time>2021-03-28T05:37:31.556Z</time>
      </trkpt>
      <trkpt lat="44.9061" lon="5.34057">
        <ele>1428</ele>
        <time>2021-03-28T05:38:10.683Z</time>
      </trkpt>
      <trkpt lat="44.90623" lon="5.34046">
        <ele>1430</ele>
        <time>2021-03-28T05:38:32.215Z</time>
      </trkpt>
      <trkpt lat="44.9063" lon="5.34037">
        <ele>1431</ele>
        <time>2021-03-28T05:38:42.013Z</time>
      </trkpt>
      <trkpt lat="44.90636" lon="5.34023">
        <ele>1432</ele>
        <time>2021-03-28T05:38:52.014Z</time>
      </trkpt>
      <trkpt lat="44.90639" lon="5.34011">
        <ele>1432</ele>
        <time>2021-03-28T05:38:55.404Z</time>
      </trkpt>
      <trkpt lat="44.90638" lon="5.33997">
        <ele>1432</ele>
        <time>2021-03-28T05:38:59.153Z</time>
      </trkpt>
      <trkpt lat="44.90635" lon="5.33984">
        <ele>1433</ele>
        <time>2021-03-28T05:39:08.938Z</time>
      </trkpt>
      <trkpt lat="44.90628" lon="5.33973">
        <ele>1433</ele>
        <time>2021-03-28T05:39:12.877Z</time>
      </trkpt>
      <trkpt lat="44.90619" lon="5.33965">
        <ele>1433</ele>
        <time>2021-03-28T05:39:16.878Z</time>
      </trkpt>
      <trkpt lat="44.90592" lon="5.3395">
        <ele>1430</ele>
        <time>2021-03-28T05:39:20.711Z</time>
      </trkpt>
      <trkpt lat="44.90583" lon="5.33939">
        <ele>1430</ele>
        <time>2021-03-28T05:39:25.189Z</time>
      </trkpt>
      <trkpt lat="44.90576" lon="5.33923">
        <ele>1431</ele>
        <time>2021-03-28T05:39:35.672Z</time>
      </trkpt>
      <trkpt lat="44.90573" lon="5.33902">
        <ele>1432</ele>
        <time>2021-03-28T05:39:46.814Z</time>
      </trkpt>
      <trkpt lat="44.90569" lon="5.3384">
        <ele>1436</ele>
        <time>2021-03-28T05:40:26.369Z</time>
      </trkpt>
      <trkpt lat="44.90566" lon="5.33738">
        <ele>1438</ele>
        <time>2021-03-28T05:41:02.798Z</time>
      </trkpt>
      <trkpt lat="44.90568" lon="5.33705">
        <ele>1439</ele>
        <time>2021-03-28T05:41:17.275Z</time>
      </trkpt>
      <trkpt lat="44.90576" lon="5.33635">
        <ele>1440</ele>
        <time>2021-03-28T05:41:40.380Z</time>
      </trkpt>
      <trkpt lat="44.90582" lon="5.33584">
        <ele>1441</ele>
        <time>2021-03-28T05:41:58.750Z</time>
      </trkpt>
      <trkpt lat="44.90587" lon="5.33541">
        <ele>1438</ele>
        <time>2021-03-28T05:42:02.826Z</time>
      </trkpt>
      <trkpt lat="44.9059" lon="5.33531">
        <ele>1437</ele>
        <time>2021-03-28T05:42:03.842Z</time>
      </trkpt>
      <trkpt lat="44.9061" lon="5.33505">
        <ele>1434</ele>
        <time>2021-03-28T05:42:07.434Z</time>
      </trkpt>
      <trkpt lat="44.90622" lon="5.33497">
        <ele>1433</ele>
        <time>2021-03-28T05:42:09.186Z</time>
      </trkpt>
      <trkpt lat="44.90633" lon="5.33492">
        <ele>1433</ele>
        <time>2021-03-28T05:42:13.533Z</time>
      </trkpt>
      <trkpt lat="44.90658" lon="5.33492">
        <ele>1432</ele>
        <time>2021-03-28T05:42:17.325Z</time>
      </trkpt>
      <trkpt lat="44.90717" lon="5.33497">
        <ele>1433</ele>
        <time>2021-03-28T05:42:43.637Z</time>
      </trkpt>
      <trkpt lat="44.90745" lon="5.3349">
        <ele>1432</ele>
        <time>2021-03-28T05:42:48.157Z</time>
      </trkpt>
      <trkpt lat="44.90862" lon="5.33366">
        <ele>1420</ele>
        <time>2021-03-28T05:43:07.481Z</time>
      </trkpt>
      <trkpt lat="44.90875" lon="5.33318">
        <ele>1418</ele>
        <time>2021-03-28T05:43:12.314Z</time>
      </trkpt>
      <trkpt lat="44.90897" lon="5.33272">
        <ele>1417</ele>
        <time>2021-03-28T05:43:19.233Z</time>
      </trkpt>
      <trkpt lat="44.90915" lon="5.33256">
        <ele>1416</ele>
        <time>2021-03-28T05:43:22.258Z</time>
      </trkpt>
      <trkpt lat="44.90932" lon="5.33261">
        <ele>1415</ele>
        <time>2021-03-28T05:43:24.514Z</time>
      </trkpt>
      <trkpt lat="44.90963" lon="5.33264">
        <ele>1414</ele>
        <time>2021-03-28T05:43:29.605Z</time>
      </trkpt>
      <trkpt lat="44.90986" lon="5.33251">
        <ele>1413</ele>
        <time>2021-03-28T05:43:33.349Z</time>
      </trkpt>
      <trkpt lat="44.91017" lon="5.332">
        <ele>1414</ele>
        <time>2021-03-28T05:43:55.521Z</time>
      </trkpt>
      <trkpt lat="44.91034" lon="5.33188">
        <ele>1413</ele>
        <time>2021-03-28T05:43:58.095Z</time>
      </trkpt>
      <trkpt lat="44.91063" lon="5.33172">
        <ele>1412</ele>
        <time>2021-03-28T05:44:03.199Z</time>
      </trkpt>
      <trkpt lat="44.91071" lon="5.33165">
        <ele>1411</ele>
        <time>2021-03-28T05:44:04.443Z</time>
      </trkpt>
      <trkpt lat="44.91076" lon="5.33157">
        <ele>1410</ele>
        <time>2021-03-28T05:44:05.441Z</time>
      </trkpt>
      <trkpt lat="44.9108" lon="5.33146">
        <ele>1410</ele>
        <time>2021-03-28T05:44:08.735Z</time>
      </trkpt>
      <trkpt lat="44.91083" lon="5.33133">
        <ele>1409</ele>
        <time>2021-03-28T05:44:10.014Z</time>
      </trkpt>
      <trkpt lat="44.91093" lon="5.33077">
        <ele>1409</ele>
        <time>2021-03-28T05:44:25.400Z</time>
      </trkpt>
      <trkpt lat="44.91094" lon="5.33056">
        <ele>1409</ele>
        <time>2021-03-28T05:44:31.007Z</time>
      </trkpt>
      <trkpt lat="44.91093" lon="5.33044">
        <ele>1410</ele>
        <time>2021-03-28T05:44:41.023Z</time>
      </trkpt>
      <trkpt lat="44.91092" lon="5.33035">
        <ele>1410</ele>
        <time>2021-03-28T05:44:43.450Z</time>
      </trkpt>
      <trkpt lat="44.9109" lon="5.33027">
        <ele>1410</ele>
        <time>2021-03-28T05:44:45.710Z</time>
      </trkpt>
      <trkpt lat="44.91085" lon="5.33006">
        <ele>1409</ele>
        <time>2021-03-28T05:44:47.652Z</time>
      </trkpt>
      <trkpt lat="44.91049" lon="5.32899">
        <ele>1407</ele>
        <time>2021-03-28T05:45:02.684Z</time>
      </trkpt>
      <trkpt lat="44.91031" lon="5.32831">
        <ele>1403</ele>
        <time>2021-03-28T05:45:09.475Z</time>
      </trkpt>
      <trkpt lat="44.91026" lon="5.32816">
        <ele>1403</ele>
        <time>2021-03-28T05:45:13.892Z</time>
      </trkpt>
      <trkpt lat="44.91015" lon="5.32796">
        <ele>1402</ele>
        <time>2021-03-28T05:45:16.257Z</time>
      </trkpt>
      <trkpt lat="44.90987" lon="5.32754">
        <ele>1399</ele>
        <time>2021-03-28T05:45:21.653Z</time>
      </trkpt>
      <trkpt lat="44.90978" lon="5.32737">
        <ele>1397</ele>
        <time>2021-03-28T05:45:23.639Z</time>
      </trkpt>
      <trkpt lat="44.90967" lon="5.32701">
        <ele>1393</ele>
        <time>2021-03-28T05:45:27.307Z</time>
      </trkpt>
      <trkpt lat="44.90963" lon="5.32682">
        <ele>1392</ele>
        <time>2021-03-28T05:45:29.161Z</time>
      </trkpt>
      <trkpt lat="44.90963" lon="5.32664">
        <ele>1391</ele>
        <time>2021-03-28T05:45:30.845Z</time>
      </trkpt>
      <trkpt lat="44.90966" lon="5.32645">
        <ele>1390</ele>
        <time>2021-03-28T05:45:32.666Z</time>
      </trkpt>
      <trkpt lat="44.90973" lon="5.3263">
        <ele>1390</ele>
        <time>2021-03-28T05:45:37.452Z</time>
      </trkpt>
      <trkpt lat="44.90984" lon="5.32613">
        <ele>1389</ele>
        <time>2021-03-28T05:45:39.509Z</time>
      </trkpt>
      <trkpt lat="44.90992" lon="5.32597">
        <ele>1388</ele>
        <time>2021-03-28T05:45:41.341Z</time>
      </trkpt>
      <trkpt lat="44.91004" lon="5.32564">
        <ele>1385</ele>
        <time>2021-03-28T05:45:44.811Z</time>
      </trkpt>
      <trkpt lat="44.91005" lon="5.32561">
        <ele>1385</ele>
        <time>2021-03-28T05:45:45.694Z</time>
      </trkpt>
      <trkpt lat="44.91013" lon="5.32547">
        <ele>1383</ele>
        <time>2021-03-28T05:45:47.377Z</time>
      </trkpt>
      <trkpt lat="44.91022" lon="5.32536">
        <ele>1382</ele>
        <time>2021-03-28T05:45:48.950Z</time>
      </trkpt>
      <trkpt lat="44.91035" lon="5.32526">
        <ele>1381</ele>
        <time>2021-03-28T05:45:50.905Z</time>
      </trkpt>
      <trkpt lat="44.91047" lon="5.32522">
        <ele>1380</ele>
        <time>2021-03-28T05:45:52.534Z</time>
      </trkpt>
      <trkpt lat="44.91147" lon="5.32526">
        <ele>1377</ele>
        <time>2021-03-28T05:46:09.301Z</time>
      </trkpt>
      <trkpt lat="44.91222" lon="5.32527">
        <ele>1373</ele>
        <time>2021-03-28T05:46:19.398Z</time>
      </trkpt>
      <trkpt lat="44.91249" lon="5.32526">
        <ele>1371</ele>
        <time>2021-03-28T05:46:22.965Z</time>
      </trkpt>
      <trkpt lat="44.91282" lon="5.32519">
        <ele>1368</ele>
        <time>2021-03-28T05:46:27.373Z</time>
      </trkpt>
      <trkpt lat="44.91299" lon="5.32514">
        <ele>1367</ele>
        <time>2021-03-28T05:46:29.630Z</time>
      </trkpt>
      <trkpt lat="44.91316" lon="5.32515">
        <ele>1366</ele>
        <time>2021-03-28T05:46:31.820Z</time>
      </trkpt>
      <trkpt lat="44.91348" lon="5.32527">
        <ele>1365</ele>
        <time>2021-03-28T05:46:37.357Z</time>
      </trkpt>
      <trkpt lat="44.91392" lon="5.3255">
        <ele>1362</ele>
        <time>2021-03-28T05:46:43.154Z</time>
      </trkpt>
      <trkpt lat="44.91409" lon="5.32555">
        <ele>1361</ele>
        <time>2021-03-28T05:46:45.410Z</time>
      </trkpt>
      <trkpt lat="44.91426" lon="5.32554">
        <ele>1359</ele>
        <time>2021-03-28T05:46:47.658Z</time>
      </trkpt>
      <trkpt lat="44.91441" lon="5.32551">
        <ele>1358</ele>
        <time>2021-03-28T05:46:49.500Z</time>
      </trkpt>
      <trkpt lat="44.91531" lon="5.32521">
        <ele>1351</ele>
        <time>2021-03-28T05:47:01.715Z</time>
      </trkpt>
      <trkpt lat="44.91618" lon="5.32484">
        <ele>1342</ele>
        <time>2021-03-28T05:47:13.717Z</time>
      </trkpt>
      <trkpt lat="44.91626" lon="5.32483">
        <ele>1341</ele>
        <time>2021-03-28T05:47:14.778Z</time>
      </trkpt>
      <trkpt lat="44.91636" lon="5.32483">
        <ele>1341</ele>
        <time>2021-03-28T05:47:18.540Z</time>
      </trkpt>
      <trkpt lat="44.91662" lon="5.32496">
        <ele>1341</ele>
        <time>2021-03-28T05:47:28.915Z</time>
      </trkpt>
      <trkpt lat="44.91707" lon="5.32529">
        <ele>1342</ele>
        <time>2021-03-28T05:47:52.194Z</time>
      </trkpt>
      <trkpt lat="44.91715" lon="5.32533">
        <ele>1342</ele>
        <time>2021-03-28T05:47:55.387Z</time>
      </trkpt>
      <trkpt lat="44.91727" lon="5.32534">
        <ele>1341</ele>
        <time>2021-03-28T05:47:56.975Z</time>
      </trkpt>
      <trkpt lat="44.91826" lon="5.32511">
        <ele>1328</ele>
        <time>2021-03-28T05:48:10.227Z</time>
      </trkpt>
      <trkpt lat="44.91858" lon="5.32517">
        <ele>1326</ele>
        <time>2021-03-28T05:48:14.278Z</time>
      </trkpt>
      <trkpt lat="44.91892" lon="5.32527">
        <ele>1324</ele>
        <time>2021-03-28T05:48:18.791Z</time>
      </trkpt>
      <trkpt lat="44.91921" lon="5.32528">
        <ele>1322</ele>
        <time>2021-03-28T05:48:22.623Z</time>
      </trkpt>
      <trkpt lat="44.91936" lon="5.32525">
        <ele>1321</ele>
        <time>2021-03-28T05:48:24.466Z</time>
      </trkpt>
      <trkpt lat="44.9195" lon="5.32519">
        <ele>1320</ele>
        <time>2021-03-28T05:48:26.398Z</time>
      </trkpt>
      <trkpt lat="44.92" lon="5.32481">
        <ele>1313</ele>
        <time>2021-03-28T05:48:33.898Z</time>
      </trkpt>
      <trkpt lat="44.92002" lon="5.32477">
        <ele>1313</ele>
        <time>2021-03-28T05:48:35.203Z</time>
      </trkpt>
      <trkpt lat="44.9201" lon="5.32465">
        <ele>1312</ele>
        <time>2021-03-28T05:48:36.744Z</time>
      </trkpt>
      <trkpt lat="44.92018" lon="5.32446">
        <ele>1310</ele>
        <time>2021-03-28T05:48:38.812Z</time>
      </trkpt>
      <trkpt lat="44.92037" lon="5.32401">
        <ele>1306</ele>
        <time>2021-03-28T05:48:43.712Z</time>
      </trkpt>
      <trkpt lat="44.92053" lon="5.32383">
        <ele>1304</ele>
        <time>2021-03-28T05:48:46.414Z</time>
      </trkpt>
      <trkpt lat="44.9207" lon="5.32377">
        <ele>1303</ele>
        <time>2021-03-28T05:48:48.701Z</time>
      </trkpt>
      <trkpt lat="44.92113" lon="5.32383">
        <ele>1302</ele>
        <time>2021-03-28T05:48:56.504Z</time>
      </trkpt>
      <trkpt lat="44.92129" lon="5.32388">
        <ele>1302</ele>
        <time>2021-03-28T05:49:02.668Z</time>
      </trkpt>
      <trkpt lat="44.92162" lon="5.324">
        <ele>1302</ele>
        <time>2021-03-28T05:49:15.487Z</time>
      </trkpt>
      <trkpt lat="44.92229" lon="5.3244">
        <ele>1299</ele>
        <time>2021-03-28T05:49:26.390Z</time>
      </trkpt>
      <trkpt lat="44.9224" lon="5.32444">
        <ele>1298</ele>
        <time>2021-03-28T05:49:27.891Z</time>
      </trkpt>
      <trkpt lat="44.92252" lon="5.32445">
        <ele>1297</ele>
        <time>2021-03-28T05:49:29.478Z</time>
      </trkpt>
      <trkpt lat="44.92398" lon="5.32436">
        <ele>1291</ele>
        <time>2021-03-28T05:49:51.422Z</time>
      </trkpt>
      <trkpt lat="44.92415" lon="5.32439">
        <ele>1290</ele>
        <time>2021-03-28T05:49:53.634Z</time>
      </trkpt>
      <trkpt lat="44.9244" lon="5.32449">
        <ele>1289</ele>
        <time>2021-03-28T05:49:57.633Z</time>
      </trkpt>
      <trkpt lat="44.92483" lon="5.32476">
        <ele>1289</ele>
        <time>2021-03-28T05:50:15.334Z</time>
      </trkpt>
      <trkpt lat="44.925" lon="5.32485">
        <ele>1289</ele>
        <time>2021-03-28T05:50:22.164Z</time>
      </trkpt>
      <trkpt lat="44.9252" lon="5.32492">
        <ele>1288</ele>
        <time>2021-03-28T05:50:25.054Z</time>
      </trkpt>
      <trkpt lat="44.92545" lon="5.32493">
        <ele>1286</ele>
        <time>2021-03-28T05:50:28.358Z</time>
      </trkpt>
      <trkpt lat="44.92621" lon="5.3247">
        <ele>1275</ele>
        <time>2021-03-28T05:50:38.625Z</time>
      </trkpt>
      <trkpt lat="44.92673" lon="5.32485">
        <ele>1274</ele>
        <time>2021-03-28T05:50:48.699Z</time>
      </trkpt>
      <trkpt lat="44.9269" lon="5.32475">
        <ele>1275</ele>
        <time>2021-03-28T05:51:01.163Z</time>
      </trkpt>
      <trkpt lat="44.92746" lon="5.32403">
        <ele>1266</ele>
        <time>2021-03-28T05:51:11.166Z</time>
      </trkpt>
      <trkpt lat="44.92771" lon="5.32365">
        <ele>1262</ele>
        <time>2021-03-28T05:51:16.017Z</time>
      </trkpt>
      <trkpt lat="44.92798" lon="5.32334">
        <ele>1259</ele>
        <time>2021-03-28T05:51:20.614Z</time>
      </trkpt>
      <trkpt lat="44.92839" lon="5.32296">
        <ele>1254</ele>
        <time>2021-03-28T05:51:27.091Z</time>
      </trkpt>
      <trkpt lat="44.92852" lon="5.32287">
        <ele>1253</ele>
        <time>2021-03-28T05:51:29.004Z</time>
      </trkpt>
      <trkpt lat="44.92882" lon="5.32275">
        <ele>1253</ele>
        <time>2021-03-28T05:51:40.732Z</time>
      </trkpt>
      <trkpt lat="44.9293" lon="5.32262">
        <ele>1252</ele>
        <time>2021-03-28T05:51:49.834Z</time>
      </trkpt>
      <trkpt lat="44.92988" lon="5.32241">
        <ele>1246</ele>
        <time>2021-03-28T05:51:57.743Z</time>
      </trkpt>
      <trkpt lat="44.93042" lon="5.32228">
        <ele>1240</ele>
        <time>2021-03-28T05:52:04.979Z</time>
      </trkpt>
      <trkpt lat="44.9306" lon="5.32233">
        <ele>1239</ele>
        <time>2021-03-28T05:52:07.424Z</time>
      </trkpt>
      <trkpt lat="44.93073" lon="5.32242">
        <ele>1239</ele>
        <time>2021-03-28T05:52:12.870Z</time>
      </trkpt>
      <trkpt lat="44.93085" lon="5.32254">
        <ele>1240</ele>
        <time>2021-03-28T05:52:23.835Z</time>
      </trkpt>
      <trkpt lat="44.93126" lon="5.32316">
        <ele>1243</ele>
        <time>2021-03-28T05:53:03.329Z</time>
      </trkpt>
      <trkpt lat="44.9314" lon="5.32326">
        <ele>1243</ele>
        <time>2021-03-28T05:53:09.230Z</time>
      </trkpt>
      <trkpt lat="44.93202" lon="5.32343">
        <ele>1239</ele>
        <time>2021-03-28T05:53:17.071Z</time>
      </trkpt>
      <trkpt lat="44.93217" lon="5.32345">
        <ele>1238</ele>
        <time>2021-03-28T05:53:18.898Z</time>
      </trkpt>
      <trkpt lat="44.93234" lon="5.32345">
        <ele>1235</ele>
        <time>2021-03-28T05:53:21.144Z</time>
      </trkpt>
      <trkpt lat="44.93293" lon="5.32337">
        <ele>1225</ele>
        <time>2021-03-28T05:53:28.973Z</time>
      </trkpt>
      <trkpt lat="44.93315" lon="5.32345">
        <ele>1225</ele>
        <time>2021-03-28T05:53:37.518Z</time>
      </trkpt>
      <trkpt lat="44.93321" lon="5.32344">
        <ele>1224</ele>
        <time>2021-03-28T05:53:38.316Z</time>
      </trkpt>
      <trkpt lat="44.93325" lon="5.32341">
        <ele>1222</ele>
        <time>2021-03-28T05:53:38.915Z</time>
      </trkpt>
      <trkpt lat="44.93325" lon="5.32335">
        <ele>1220</ele>
        <time>2021-03-28T05:53:39.476Z</time>
      </trkpt>
      <trkpt lat="44.93322" lon="5.32328">
        <ele>1218</ele>
        <time>2021-03-28T05:53:40.241Z</time>
      </trkpt>
      <trkpt lat="44.93318" lon="5.32324">
        <ele>1217</ele>
        <time>2021-03-28T05:53:40.888Z</time>
      </trkpt>
      <trkpt lat="44.933" lon="5.32317">
        <ele>1218</ele>
        <time>2021-03-28T05:53:53.462Z</time>
      </trkpt>
      <trkpt lat="44.93283" lon="5.32313">
        <ele>1219</ele>
        <time>2021-03-28T05:54:05.427Z</time>
      </trkpt>
      <trkpt lat="44.9327" lon="5.32313">
        <ele>1221</ele>
        <time>2021-03-28T05:54:24.289Z</time>
      </trkpt>
      <trkpt lat="44.93232" lon="5.32318">
        <ele>1227</ele>
        <time>2021-03-28T05:55:19.663Z</time>
      </trkpt>
      <trkpt lat="44.93219" lon="5.32317">
        <ele>1229</ele>
        <time>2021-03-28T05:55:38.554Z</time>
      </trkpt>
      <trkpt lat="44.93208" lon="5.32315">
        <ele>1230</ele>
        <time>2021-03-28T05:55:48.454Z</time>
      </trkpt>
      <trkpt lat="44.93197" lon="5.32309">
        <ele>1230</ele>
        <time>2021-03-28T05:55:52.890Z</time>
      </trkpt>
      <trkpt lat="44.93187" lon="5.323">
        <ele>1229</ele>
        <time>2021-03-28T05:55:54.456Z</time>
      </trkpt>
      <trkpt lat="44.9318" lon="5.32289">
        <ele>1227</ele>
        <time>2021-03-28T05:55:55.839Z</time>
      </trkpt>
      <trkpt lat="44.93173" lon="5.32274">
        <ele>1224</ele>
        <time>2021-03-28T05:55:57.519Z</time>
      </trkpt>
      <trkpt lat="44.93165" lon="5.32251">
        <ele>1219</ele>
        <time>2021-03-28T05:55:59.915Z</time>
      </trkpt>
      <trkpt lat="44.93153" lon="5.32175">
        <ele>1209</ele>
        <time>2021-03-28T05:56:07.197Z</time>
      </trkpt>
      <trkpt lat="44.93148" lon="5.32159">
        <ele>1207</ele>
        <time>2021-03-28T05:56:08.833Z</time>
      </trkpt>
      <trkpt lat="44.9314" lon="5.32144">
        <ele>1207</ele>
        <time>2021-03-28T05:56:13.834Z</time>
      </trkpt>
      <trkpt lat="44.93123" lon="5.3213">
        <ele>1207</ele>
        <time>2021-03-28T05:56:21.236Z</time>
      </trkpt>
      <trkpt lat="44.93106" lon="5.32119">
        <ele>1208</ele>
        <time>2021-03-28T05:56:33.823Z</time>
      </trkpt>
      <trkpt lat="44.93086" lon="5.32108">
        <ele>1208</ele>
        <time>2021-03-28T05:56:41.896Z</time>
      </trkpt>
      <trkpt lat="44.93049" lon="5.32089">
        <ele>1207</ele>
        <time>2021-03-28T05:56:48.828Z</time>
      </trkpt>
      <trkpt lat="44.93037" lon="5.32085">
        <ele>1207</ele>
        <time>2021-03-28T05:56:53.466Z</time>
      </trkpt>
      <trkpt lat="44.93006" lon="5.32078">
        <ele>1208</ele>
        <time>2021-03-28T05:57:10.141Z</time>
      </trkpt>
      <trkpt lat="44.92944" lon="5.32068">
        <ele>1204</ele>
        <time>2021-03-28T05:57:17.842Z</time>
      </trkpt>
      <trkpt lat="44.92913" lon="5.32068">
        <ele>1203</ele>
        <time>2021-03-28T05:57:22.917Z</time>
      </trkpt>
      <trkpt lat="44.92868" lon="5.32082">
        <ele>1201</ele>
        <time>2021-03-28T05:57:29.686Z</time>
      </trkpt>
      <trkpt lat="44.92859" lon="5.32086">
        <ele>1201</ele>
        <time>2021-03-28T05:57:33.236Z</time>
      </trkpt>
      <trkpt lat="44.92853" lon="5.32089">
        <ele>1201</ele>
        <time>2021-03-28T05:57:35.630Z</time>
      </trkpt>
      <trkpt lat="44.92801" lon="5.32121">
        <ele>1209</ele>
        <time>2021-03-28T05:58:57.929Z</time>
      </trkpt>
      <trkpt lat="44.92778" lon="5.32122">
        <ele>1211</ele>
        <time>2021-03-28T05:59:17.893Z</time>
      </trkpt>
      <trkpt lat="44.92773" lon="5.32115">
        <ele>1211</ele>
        <time>2021-03-28T05:59:20.541Z</time>
      </trkpt>
      <trkpt lat="44.92767" lon="5.32097">
        <ele>1212</ele>
        <time>2021-03-28T05:59:31.284Z</time>
      </trkpt>
      <trkpt lat="44.92766" lon="5.32091">
        <ele>1212</ele>
        <time>2021-03-28T05:59:32.926Z</time>
      </trkpt>
      <trkpt lat="44.92773" lon="5.3207">
        <ele>1213</ele>
        <time>2021-03-28T05:59:44.562Z</time>
      </trkpt>
      <trkpt lat="44.92784" lon="5.32047">
        <ele>1213</ele>
        <time>2021-03-28T05:59:51.954Z</time>
      </trkpt>
      <trkpt lat="44.92803" lon="5.32017">
        <ele>1211</ele>
        <time>2021-03-28T05:59:55.719Z</time>
      </trkpt>
      <trkpt lat="44.92874" lon="5.31942">
        <ele>1207</ele>
        <time>2021-03-28T06:00:08.542Z</time>
      </trkpt>
      <trkpt lat="44.9292" lon="5.31915">
        <ele>1201</ele>
        <time>2021-03-28T06:00:15.122Z</time>
      </trkpt>
      <trkpt lat="44.92967" lon="5.31892">
        <ele>1203</ele>
        <time>2021-03-28T06:00:44.742Z</time>
      </trkpt>
      <trkpt lat="44.93108" lon="5.31884">
        <ele>1197</ele>
        <time>2021-03-28T06:01:05.643Z</time>
      </trkpt>
      <trkpt lat="44.93162" lon="5.31898">
        <ele>1190</ele>
        <time>2021-03-28T06:01:12.895Z</time>
      </trkpt>
      <trkpt lat="44.93199" lon="5.31877">
        <ele>1187</ele>
        <time>2021-03-28T06:01:18.163Z</time>
      </trkpt>
      <trkpt lat="44.93225" lon="5.31847">
        <ele>1186</ele>
        <time>2021-03-28T06:01:23.801Z</time>
      </trkpt>
      <trkpt lat="44.93276" lon="5.31737">
        <ele>1191</ele>
        <time>2021-03-28T06:02:26.557Z</time>
      </trkpt>
      <trkpt lat="44.93308" lon="5.31708">
        <ele>1188</ele>
        <time>2021-03-28T06:02:31.579Z</time>
      </trkpt>
      <trkpt lat="44.93361" lon="5.31687">
        <ele>1179</ele>
        <time>2021-03-28T06:02:38.850Z</time>
      </trkpt>
      <trkpt lat="44.93375" lon="5.31664">
        <ele>1178</ele>
        <time>2021-03-28T06:02:41.915Z</time>
      </trkpt>
      <trkpt lat="44.93379" lon="5.31652">
        <ele>1177</ele>
        <time>2021-03-28T06:02:43.155Z</time>
      </trkpt>
      <trkpt lat="44.93379" lon="5.31636">
        <ele>1176</ele>
        <time>2021-03-28T06:02:44.652Z</time>
      </trkpt>
      <trkpt lat="44.93375" lon="5.31615">
        <ele>1176</ele>
        <time>2021-03-28T06:02:50.443Z</time>
      </trkpt>
      <trkpt lat="44.93354" lon="5.31578">
        <ele>1182</ele>
        <time>2021-03-28T06:03:39.154Z</time>
      </trkpt>
      <trkpt lat="44.93346" lon="5.31546">
        <ele>1185</ele>
        <time>2021-03-28T06:04:10.173Z</time>
      </trkpt>
      <trkpt lat="44.93351" lon="5.31512">
        <ele>1184</ele>
        <time>2021-03-28T06:04:13.878Z</time>
      </trkpt>
      <trkpt lat="44.93382" lon="5.3141">
        <ele>1184</ele>
        <time>2021-03-28T06:04:43.438Z</time>
      </trkpt>
      <trkpt lat="44.93394" lon="5.31399">
        <ele>1183</ele>
        <time>2021-03-28T06:04:45.327Z</time>
      </trkpt>
      <trkpt lat="44.93407" lon="5.31391">
        <ele>1182</ele>
        <time>2021-03-28T06:04:47.200Z</time>
      </trkpt>
      <trkpt lat="44.93467" lon="5.31378">
        <ele>1178</ele>
        <time>2021-03-28T06:04:54.589Z</time>
      </trkpt>
      <trkpt lat="44.9348" lon="5.31371">
        <ele>1178</ele>
        <time>2021-03-28T06:04:59.823Z</time>
      </trkpt>
      <trkpt lat="44.93491" lon="5.31356">
        <ele>1178</ele>
        <time>2021-03-28T06:05:05.574Z</time>
      </trkpt>
      <trkpt lat="44.93501" lon="5.31255">
        <ele>1182</ele>
        <time>2021-03-28T06:05:54.804Z</time>
      </trkpt>
      <trkpt lat="44.93511" lon="5.31159">
        <ele>1184</ele>
        <time>2021-03-28T06:06:30.041Z</time>
      </trkpt>
      <trkpt lat="44.93502" lon="5.31099">
        <ele>1180</ele>
        <time>2021-03-28T06:06:35.776Z</time>
      </trkpt>
      <trkpt lat="44.93495" lon="5.31063">
        <ele>1178</ele>
        <time>2021-03-28T06:06:39.267Z</time>
      </trkpt>
      <trkpt lat="44.93485" lon="5.31029">
        <ele>1177</ele>
        <time>2021-03-28T06:06:43.282Z</time>
      </trkpt>
      <trkpt lat="44.93455" lon="5.30973">
        <ele>1177</ele>
        <time>2021-03-28T06:07:01.983Z</time>
      </trkpt>
      <trkpt lat="44.93434" lon="5.30926">
        <ele>1176</ele>
        <time>2021-03-28T06:07:08.910Z</time>
      </trkpt>
      <trkpt lat="44.93446" lon="5.3089">
        <ele>1175</ele>
        <time>2021-03-28T06:07:13.373Z</time>
      </trkpt>
      <trkpt lat="44.93482" lon="5.30795">
        <ele>1174</ele>
        <time>2021-03-28T06:07:28.911Z</time>
      </trkpt>
      <trkpt lat="44.93504" lon="5.3077">
        <ele>1172</ele>
        <time>2021-03-28T06:07:32.641Z</time>
      </trkpt>
      <trkpt lat="44.93533" lon="5.30751">
        <ele>1169</ele>
        <time>2021-03-28T06:07:36.864Z</time>
      </trkpt>
      <trkpt lat="44.93604" lon="5.30715">
        <ele>1163</ele>
        <time>2021-03-28T06:07:46.828Z</time>
      </trkpt>
      <trkpt lat="44.93664" lon="5.30679">
        <ele>1162</ele>
        <time>2021-03-28T06:07:59.739Z</time>
      </trkpt>
      <trkpt lat="44.93685" lon="5.3068">
        <ele>1161</ele>
        <time>2021-03-28T06:08:02.711Z</time>
      </trkpt>
      <trkpt lat="44.93704" lon="5.30689">
        <ele>1160</ele>
        <time>2021-03-28T06:08:05.489Z</time>
      </trkpt>
      <trkpt lat="44.93725" lon="5.30704">
        <ele>1160</ele>
        <time>2021-03-28T06:08:14.341Z</time>
      </trkpt>
      <trkpt lat="44.93732" lon="5.30707">
        <ele>1159</ele>
        <time>2021-03-28T06:08:15.308Z</time>
      </trkpt>
      <trkpt lat="44.93805" lon="5.30783">
        <ele>1155</ele>
        <time>2021-03-28T06:08:28.544Z</time>
      </trkpt>
      <trkpt lat="44.93833" lon="5.30819">
        <ele>1153</ele>
        <time>2021-03-28T06:08:33.662Z</time>
      </trkpt>
      <trkpt lat="44.93865" lon="5.30879">
        <ele>1153</ele>
        <time>2021-03-28T06:08:53.666Z</time>
      </trkpt>
      <trkpt lat="44.93886" lon="5.30909">
        <ele>1152</ele>
        <time>2021-03-28T06:08:58.495Z</time>
      </trkpt>
      <trkpt lat="44.93902" lon="5.30913">
        <ele>1151</ele>
        <time>2021-03-28T06:09:00.540Z</time>
      </trkpt>
      <trkpt lat="44.93918" lon="5.30911">
        <ele>1150</ele>
        <time>2021-03-28T06:09:02.551Z</time>
      </trkpt>
      <trkpt lat="44.93943" lon="5.30903">
        <ele>1147</ele>
        <time>2021-03-28T06:09:05.937Z</time>
      </trkpt>
      <trkpt lat="44.93995" lon="5.30863">
        <ele>1143</ele>
        <time>2021-03-28T06:09:13.758Z</time>
      </trkpt>
      <trkpt lat="44.94028" lon="5.30856">
        <ele>1141</ele>
        <time>2021-03-28T06:09:18.013Z</time>
      </trkpt>
      <trkpt lat="44.94058" lon="5.30865">
        <ele>1138</ele>
        <time>2021-03-28T06:09:22.065Z</time>
      </trkpt>
      <trkpt lat="44.94096" lon="5.30882">
        <ele>1133</ele>
        <time>2021-03-28T06:09:27.330Z</time>
      </trkpt>
      <trkpt lat="44.94123" lon="5.30892">
        <ele>1130</ele>
        <time>2021-03-28T06:09:31.017Z</time>
      </trkpt>
      <trkpt lat="44.94129" lon="5.30894">
        <ele>1129</ele>
        <time>2021-03-28T06:09:31.831Z</time>
      </trkpt>
      <trkpt lat="44.94146" lon="5.30898">
        <ele>1127</ele>
        <time>2021-03-28T06:09:34.108Z</time>
      </trkpt>
      <trkpt lat="44.94212" lon="5.30901">
        <ele>1126</ele>
        <time>2021-03-28T06:09:47.218Z</time>
      </trkpt>
      <trkpt lat="44.94233" lon="5.30905">
        <ele>1125</ele>
        <time>2021-03-28T06:09:50.227Z</time>
      </trkpt>
      <trkpt lat="44.9433" lon="5.30947">
        <ele>1122</ele>
        <time>2021-03-28T06:10:07.305Z</time>
      </trkpt>
      <trkpt lat="44.94484" lon="5.31113">
        <ele>1112</ele>
        <time>2021-03-28T06:10:33.761Z</time>
      </trkpt>
      <trkpt lat="44.9455" lon="5.31175">
        <ele>1104</ele>
        <time>2021-03-28T06:10:44.231Z</time>
      </trkpt>
      <trkpt lat="44.94609" lon="5.31215">
        <ele>1098</ele>
        <time>2021-03-28T06:10:52.875Z</time>
      </trkpt>
      <trkpt lat="44.94633" lon="5.31241">
        <ele>1095</ele>
        <time>2021-03-28T06:10:56.870Z</time>
      </trkpt>
      <trkpt lat="44.9465" lon="5.31269">
        <ele>1094</ele>
        <time>2021-03-28T06:11:00.895Z</time>
      </trkpt>
      <trkpt lat="44.94663" lon="5.31307">
        <ele>1094</ele>
        <time>2021-03-28T06:11:12.132Z</time>
      </trkpt>
      <trkpt lat="44.94671" lon="5.3134">
        <ele>1094</ele>
        <time>2021-03-28T06:11:21.419Z</time>
      </trkpt>
      <trkpt lat="44.94673" lon="5.31374">
        <ele>1095</ele>
        <time>2021-03-28T06:11:36.053Z</time>
      </trkpt>
      <trkpt lat="44.94671" lon="5.31419">
        <ele>1097</ele>
        <time>2021-03-28T06:11:58.944Z</time>
      </trkpt>
      <trkpt lat="44.94639" lon="5.3177">
        <ele>1104</ele>
        <time>2021-03-28T06:14:05.584Z</time>
      </trkpt>
      <trkpt lat="44.94636" lon="5.31822">
        <ele>1102</ele>
        <time>2021-03-28T06:14:10.521Z</time>
      </trkpt>
      <trkpt lat="44.94638" lon="5.31847">
        <ele>1101</ele>
        <time>2021-03-28T06:14:12.862Z</time>
      </trkpt>
      <trkpt lat="44.94642" lon="5.31874">
        <ele>1101</ele>
        <time>2021-03-28T06:14:20.206Z</time>
      </trkpt>
      <trkpt lat="44.9465" lon="5.31902">
        <ele>1101</ele>
        <time>2021-03-28T06:14:28.245Z</time>
      </trkpt>
      <trkpt lat="44.94663" lon="5.31932">
        <ele>1100</ele>
        <time>2021-03-28T06:14:32.015Z</time>
      </trkpt>
      <trkpt lat="44.94683" lon="5.31961">
        <ele>1100</ele>
        <time>2021-03-28T06:14:42.796Z</time>
      </trkpt>
      <trkpt lat="44.94699" lon="5.31977">
        <ele>1100</ele>
        <time>2021-03-28T06:14:50.169Z</time>
      </trkpt>
      <trkpt lat="44.94722" lon="5.31994">
        <ele>1100</ele>
        <time>2021-03-28T06:14:59.934Z</time>
      </trkpt>
      <trkpt lat="44.94814" lon="5.32053">
        <ele>1097</ele>
        <time>2021-03-28T06:15:16.920Z</time>
      </trkpt>
      <trkpt lat="44.9484" lon="5.32073">
        <ele>1094</ele>
        <time>2021-03-28T06:15:20.830Z</time>
      </trkpt>
      <trkpt lat="44.94857" lon="5.3209">
        <ele>1093</ele>
        <time>2021-03-28T06:15:23.765Z</time>
      </trkpt>
      <trkpt lat="44.94872" lon="5.32111">
        <ele>1092</ele>
        <time>2021-03-28T06:15:26.759Z</time>
      </trkpt>
      <trkpt lat="44.94922" lon="5.32197">
        <ele>1086</ele>
        <time>2021-03-28T06:15:37.163Z</time>
      </trkpt>
      <trkpt lat="44.94935" lon="5.32213">
        <ele>1086</ele>
        <time>2021-03-28T06:15:43.649Z</time>
      </trkpt>
      <trkpt lat="44.94949" lon="5.32228">
        <ele>1086</ele>
        <time>2021-03-28T06:15:50.258Z</time>
      </trkpt>
      <trkpt lat="44.94975" lon="5.32252">
        <ele>1084</ele>
        <time>2021-03-28T06:15:54.082Z</time>
      </trkpt>
      <trkpt lat="44.9509" lon="5.32342">
        <ele>1082</ele>
        <time>2021-03-28T06:16:20.160Z</time>
      </trkpt>
      <trkpt lat="44.95207" lon="5.3244">
        <ele>1076</ele>
        <time>2021-03-28T06:16:40.012Z</time>
      </trkpt>
      <trkpt lat="44.95254" lon="5.32471">
        <ele>1075</ele>
        <time>2021-03-28T06:16:49.807Z</time>
      </trkpt>
      <trkpt lat="44.95316" lon="5.32502">
        <ele>1074</ele>
        <time>2021-03-28T06:17:02.854Z</time>
      </trkpt>
      <trkpt lat="44.95336" lon="5.32515">
        <ele>1075</ele>
        <time>2021-03-28T06:17:16.913Z</time>
      </trkpt>
      <trkpt lat="44.95458" lon="5.32627">
        <ele>1073</ele>
        <time>2021-03-28T06:17:46.309Z</time>
      </trkpt>
      <trkpt lat="44.95468" lon="5.32639">
        <ele>1073</ele>
        <time>2021-03-28T06:17:51.244Z</time>
      </trkpt>
      <trkpt lat="44.95477" lon="5.32656">
        <ele>1074</ele>
        <time>2021-03-28T06:18:02.329Z</time>
      </trkpt>
      <trkpt lat="44.95484" lon="5.32676">
        <ele>1075</ele>
        <time>2021-03-28T06:18:13.709Z</time>
      </trkpt>
      <trkpt lat="44.95499" lon="5.32731">
        <ele>1077</ele>
        <time>2021-03-28T06:18:40.781Z</time>
      </trkpt>
      <trkpt lat="44.95506" lon="5.32751">
        <ele>1078</ele>
        <time>2021-03-28T06:18:52.161Z</time>
      </trkpt>
      <trkpt lat="44.95516" lon="5.3277">
        <ele>1078</ele>
        <time>2021-03-28T06:18:58.464Z</time>
      </trkpt>
      <trkpt lat="44.95534" lon="5.32795">
        <ele>1078</ele>
        <time>2021-03-28T06:19:07.958Z</time>
      </trkpt>
      <trkpt lat="44.95587" lon="5.32851">
        <ele>1079</ele>
        <time>2021-03-28T06:19:36.851Z</time>
      </trkpt>
      <trkpt lat="44.95603" lon="5.32872">
        <ele>1079</ele>
        <time>2021-03-28T06:19:45.066Z</time>
      </trkpt>
      <trkpt lat="44.95614" lon="5.32891">
        <ele>1078</ele>
        <time>2021-03-28T06:19:47.323Z</time>
      </trkpt>
      <trkpt lat="44.95623" lon="5.32916">
        <ele>1076</ele>
        <time>2021-03-28T06:19:49.945Z</time>
      </trkpt>
      <trkpt lat="44.95635" lon="5.32978">
        <ele>1074</ele>
        <time>2021-03-28T06:19:56.593Z</time>
      </trkpt>
      <trkpt lat="44.9564" lon="5.32996">
        <ele>1073</ele>
        <time>2021-03-28T06:19:58.401Z</time>
      </trkpt>
      <trkpt lat="44.95648" lon="5.33013">
        <ele>1072</ele>
        <time>2021-03-28T06:20:00.309Z</time>
      </trkpt>
      <trkpt lat="44.95659" lon="5.33025">
        <ele>1072</ele>
        <time>2021-03-28T06:20:05.536Z</time>
      </trkpt>
      <trkpt lat="44.95677" lon="5.33034">
        <ele>1072</ele>
        <time>2021-03-28T06:20:12.719Z</time>
      </trkpt>
      <trkpt lat="44.95783" lon="5.33059">
        <ele>1073</ele>
        <time>2021-03-28T06:20:56.911Z</time>
      </trkpt>
      <trkpt lat="44.9581" lon="5.3306">
        <ele>1073</ele>
        <time>2021-03-28T06:21:07.071Z</time>
      </trkpt>
      <trkpt lat="44.95831" lon="5.33054">
        <ele>1074</ele>
        <time>2021-03-28T06:21:20.863Z</time>
      </trkpt>
      <trkpt lat="44.95849" lon="5.33044">
        <ele>1074</ele>
        <time>2021-03-28T06:21:28.138Z</time>
      </trkpt>
      <trkpt lat="44.95911" lon="5.32999">
        <ele>1076</ele>
        <time>2021-03-28T06:22:03.705Z</time>
      </trkpt>
      <trkpt lat="44.95974" lon="5.3297">
        <ele>1073</ele>
        <time>2021-03-28T06:22:13.274Z</time>
      </trkpt>
      <trkpt lat="44.96005" lon="5.32958">
        <ele>1074</ele>
        <time>2021-03-28T06:22:30.184Z</time>
      </trkpt>
      <trkpt lat="44.96025" lon="5.32956">
        <ele>1077</ele>
        <time>2021-03-28T06:22:59.275Z</time>
      </trkpt>
      <trkpt lat="44.96045" lon="5.32959">
        <ele>1078</ele>
        <time>2021-03-28T06:23:12.480Z</time>
      </trkpt>
      <trkpt lat="44.9606" lon="5.32965">
        <ele>1078</ele>
        <time>2021-03-28T06:23:18.344Z</time>
      </trkpt>
      <trkpt lat="44.96091" lon="5.32984">
        <ele>1076</ele>
        <time>2021-03-28T06:23:22.679Z</time>
      </trkpt>
      <trkpt lat="44.9612" lon="5.33006">
        <ele>1076</ele>
        <time>2021-03-28T06:23:35.060Z</time>
      </trkpt>
      <trkpt lat="44.96135" lon="5.33022">
        <ele>1077</ele>
        <time>2021-03-28T06:23:47.687Z</time>
      </trkpt>
      <trkpt lat="44.96143" lon="5.33038">
        <ele>1075</ele>
        <time>2021-03-28T06:23:49.518Z</time>
      </trkpt>
      <trkpt lat="44.96151" lon="5.33062">
        <ele>1073</ele>
        <time>2021-03-28T06:23:51.998Z</time>
      </trkpt>
      <trkpt lat="44.96163" lon="5.33119">
        <ele>1069</ele>
        <time>2021-03-28T06:23:57.556Z</time>
      </trkpt>
      <trkpt lat="44.96181" lon="5.33167">
        <ele>1071</ele>
        <time>2021-03-28T06:24:23.180Z</time>
      </trkpt>
      <trkpt lat="44.96236" lon="5.33277">
        <ele>1068</ele>
        <time>2021-03-28T06:24:38.908Z</time>
      </trkpt>
      <trkpt lat="44.96254" lon="5.33306">
        <ele>1066</ele>
        <time>2021-03-28T06:24:42.513Z</time>
      </trkpt>
      <trkpt lat="44.96272" lon="5.33326">
        <ele>1067</ele>
        <time>2021-03-28T06:24:56.869Z</time>
      </trkpt>
      <trkpt lat="44.96299" lon="5.33347">
        <ele>1068</ele>
        <time>2021-03-28T06:25:13.365Z</time>
      </trkpt>
      <trkpt lat="44.96372" lon="5.33389">
        <ele>1067</ele>
        <time>2021-03-28T06:25:29.507Z</time>
      </trkpt>
      <trkpt lat="44.96393" lon="5.33395">
        <ele>1067</ele>
        <time>2021-03-28T06:25:37.566Z</time>
      </trkpt>
      <trkpt lat="44.9641" lon="5.33394">
        <ele>1068</ele>
        <time>2021-03-28T06:25:49.440Z</time>
      </trkpt>
      <trkpt lat="44.96454" lon="5.33382">
        <ele>1073</ele>
        <time>2021-03-28T06:26:38.851Z</time>
      </trkpt>
      <trkpt lat="44.96472" lon="5.33382">
        <ele>1074</ele>
        <time>2021-03-28T06:26:51.138Z</time>
      </trkpt>
      <trkpt lat="44.9649" lon="5.3339">
        <ele>1072</ele>
        <time>2021-03-28T06:26:53.630Z</time>
      </trkpt>
      <trkpt lat="44.96503" lon="5.33401">
        <ele>1070</ele>
        <time>2021-03-28T06:26:55.632Z</time>
      </trkpt>
      <trkpt lat="44.96518" lon="5.33419">
        <ele>1069</ele>
        <time>2021-03-28T06:26:58.338Z</time>
      </trkpt>
      <trkpt lat="44.96537" lon="5.33437">
        <ele>1067</ele>
        <time>2021-03-28T06:27:01.359Z</time>
      </trkpt>
      <trkpt lat="44.9655" lon="5.33447">
        <ele>1067</ele>
        <time>2021-03-28T06:27:06.927Z</time>
      </trkpt>
      <trkpt lat="44.96561" lon="5.33454">
        <ele>1066</ele>
        <time>2021-03-28T06:27:08.520Z</time>
      </trkpt>
      <trkpt lat="44.96572" lon="5.3346">
        <ele>1065</ele>
        <time>2021-03-28T06:27:10.078Z</time>
      </trkpt>
      <trkpt lat="44.96588" lon="5.33467">
        <ele>1065</ele>
        <time>2021-03-28T06:27:16.378Z</time>
      </trkpt>
      <trkpt lat="44.96653" lon="5.33482">
        <ele>1067</ele>
        <time>2021-03-28T06:27:50.700Z</time>
      </trkpt>
      <trkpt lat="44.96674" lon="5.33495">
        <ele>1066</ele>
        <time>2021-03-28T06:27:54.061Z</time>
      </trkpt>
      <trkpt lat="44.96697" lon="5.3352">
        <ele>1065</ele>
        <time>2021-03-28T06:27:58.706Z</time>
      </trkpt>
      <trkpt lat="44.96743" lon="5.33588">
        <ele>1060</ele>
        <time>2021-03-28T06:28:07.498Z</time>
      </trkpt>
      <trkpt lat="44.9676" lon="5.33606">
        <ele>1060</ele>
        <time>2021-03-28T06:28:15.489Z</time>
      </trkpt>
      <trkpt lat="44.96776" lon="5.33616">
        <ele>1060</ele>
        <time>2021-03-28T06:28:22.069Z</time>
      </trkpt>
      <trkpt lat="44.96797" lon="5.33619">
        <ele>1060</ele>
        <time>2021-03-28T06:28:30.009Z</time>
      </trkpt>
      <trkpt lat="44.96846" lon="5.33614">
        <ele>1060</ele>
        <time>2021-03-28T06:28:48.490Z</time>
      </trkpt>
      <trkpt lat="44.96873" lon="5.33617">
        <ele>1059</ele>
        <time>2021-03-28T06:28:52.721Z</time>
      </trkpt>
      <trkpt lat="44.96947" lon="5.33649">
        <ele>1055</ele>
        <time>2021-03-28T06:29:03.284Z</time>
      </trkpt>
      <trkpt lat="44.96979" lon="5.33652">
        <ele>1054</ele>
        <time>2021-03-28T06:29:08.593Z</time>
      </trkpt>
      <trkpt lat="44.97022" lon="5.33644">
        <ele>1052</ele>
        <time>2021-03-28T06:29:14.810Z</time>
      </trkpt>
      <trkpt lat="44.9704" lon="5.33632">
        <ele>1052</ele>
        <time>2021-03-28T06:29:22.296Z</time>
      </trkpt>
      <trkpt lat="44.97049" lon="5.3362">
        <ele>1052</ele>
        <time>2021-03-28T06:29:26.950Z</time>
      </trkpt>
      <trkpt lat="44.97059" lon="5.336">
        <ele>1052</ele>
        <time>2021-03-28T06:29:33.468Z</time>
      </trkpt>
      <trkpt lat="44.9708" lon="5.3355">
        <ele>1054</ele>
        <time>2021-03-28T06:30:00.283Z</time>
      </trkpt>
      <trkpt lat="44.97096" lon="5.33528">
        <ele>1055</ele>
        <time>2021-03-28T06:30:14.481Z</time>
      </trkpt>
      <trkpt lat="44.97113" lon="5.33514">
        <ele>1055</ele>
        <time>2021-03-28T06:30:21.882Z</time>
      </trkpt>
      <trkpt lat="44.97134" lon="5.33504">
        <ele>1053</ele>
        <time>2021-03-28T06:30:24.810Z</time>
      </trkpt>
      <trkpt lat="44.97246" lon="5.33464">
        <ele>1050</ele>
        <time>2021-03-28T06:30:45.024Z</time>
      </trkpt>
      <trkpt lat="44.97336" lon="5.33445">
        <ele>1044</ele>
        <time>2021-03-28T06:30:56.097Z</time>
      </trkpt>
      <trkpt lat="44.9736" lon="5.33444">
        <ele>1041</ele>
        <time>2021-03-28T06:30:59.269Z</time>
      </trkpt>
      <trkpt lat="44.97379" lon="5.33446">
        <ele>1038</ele>
        <time>2021-03-28T06:31:01.785Z</time>
      </trkpt>
      <trkpt lat="44.97418" lon="5.33458">
        <ele>1034</ele>
        <time>2021-03-28T06:31:07.057Z</time>
      </trkpt>
      <trkpt lat="44.97438" lon="5.33466">
        <ele>1034</ele>
        <time>2021-03-28T06:31:14.876Z</time>
      </trkpt>
      <trkpt lat="44.97453" lon="5.33472">
        <ele>1034</ele>
        <time>2021-03-28T06:31:20.740Z</time>
      </trkpt>
      <trkpt lat="44.97473" lon="5.33476">
        <ele>1034</ele>
        <time>2021-03-28T06:31:28.339Z</time>
      </trkpt>
      <trkpt lat="44.97481" lon="5.33476">
        <ele>1033</ele>
        <time>2021-03-28T06:31:29.395Z</time>
      </trkpt>
      <trkpt lat="44.97489" lon="5.33474">
        <ele>1033</ele>
        <time>2021-03-28T06:31:32.451Z</time>
      </trkpt>
      <trkpt lat="44.97504" lon="5.33466">
        <ele>1031</ele>
        <time>2021-03-28T06:31:34.569Z</time>
      </trkpt>
      <trkpt lat="44.97561" lon="5.33431">
        <ele>1026</ele>
        <time>2021-03-28T06:31:42.778Z</time>
      </trkpt>
      <trkpt lat="44.97648" lon="5.33366">
        <ele>1016</ele>
        <time>2021-03-28T06:31:55.776Z</time>
      </trkpt>
      <trkpt lat="44.97665" lon="5.33357">
        <ele>1015</ele>
        <time>2021-03-28T06:31:58.184Z</time>
      </trkpt>
      <trkpt lat="44.97691" lon="5.33349">
        <ele>1013</ele>
        <time>2021-03-28T06:32:01.699Z</time>
      </trkpt>
      <trkpt lat="44.97709" lon="5.33347">
        <ele>1012</ele>
        <time>2021-03-28T06:32:04.088Z</time>
      </trkpt>
      <trkpt lat="44.97735" lon="5.33348">
        <ele>1010</ele>
        <time>2021-03-28T06:32:07.524Z</time>
      </trkpt>
      <trkpt lat="44.97746" lon="5.33347">
        <ele>1009</ele>
        <time>2021-03-28T06:32:08.980Z</time>
      </trkpt>
      <trkpt lat="44.9776" lon="5.33342">
        <ele>1008</ele>
        <time>2021-03-28T06:32:10.887Z</time>
      </trkpt>
      <trkpt lat="44.97782" lon="5.33325">
        <ele>1011</ele>
        <time>2021-03-28T06:32:41.224Z</time>
      </trkpt>
      <trkpt lat="44.97793" lon="5.33307">
        <ele>1018</ele>
        <time>2021-03-28T06:33:05.638Z</time>
      </trkpt>
      <trkpt lat="44.97803" lon="5.33294">
        <ele>1023</ele>
        <time>2021-03-28T06:33:25.349Z</time>
      </trkpt>
      <trkpt lat="44.97855" lon="5.33266">
        <ele>1038</ele>
        <time>2021-03-28T06:34:46.086Z</time>
      </trkpt>
      <trkpt lat="44.97905" lon="5.33242">
        <ele>1048</ele>
        <time>2021-03-28T06:36:02.701Z</time>
      </trkpt>
      <trkpt lat="44.97921" lon="5.33243">
        <ele>1047</ele>
        <time>2021-03-28T06:36:04.703Z</time>
      </trkpt>
      <trkpt lat="44.97998" lon="5.3326">
        <ele>1030</ele>
        <time>2021-03-28T06:36:14.997Z</time>
      </trkpt>
      <trkpt lat="44.98007" lon="5.33264">
        <ele>1025</ele>
        <time>2021-03-28T06:36:16.243Z</time>
      </trkpt>
      <trkpt lat="44.98014" lon="5.33274">
        <ele>1016</ele>
        <time>2021-03-28T06:36:17.558Z</time>
      </trkpt>
      <trkpt lat="44.98018" lon="5.33285">
        <ele>1006</ele>
        <time>2021-03-28T06:36:18.714Z</time>
      </trkpt>
      <trkpt lat="44.98025" lon="5.33292">
        <ele>999</ele>
        <time>2021-03-28T06:36:19.846Z</time>
      </trkpt>
      <trkpt lat="44.98034" lon="5.33297">
        <ele>993</ele>
        <time>2021-03-28T06:36:21.124Z</time>
      </trkpt>
      <trkpt lat="44.98044" lon="5.33297">
        <ele>992</ele>
        <time>2021-03-28T06:36:22.444Z</time>
      </trkpt>
      <trkpt lat="44.98062" lon="5.33291">
        <ele>995</ele>
        <time>2021-03-28T06:36:49.277Z</time>
      </trkpt>
      <trkpt lat="44.98078" lon="5.33291">
        <ele>992</ele>
        <time>2021-03-28T06:36:51.391Z</time>
      </trkpt>
      <trkpt lat="44.98102" lon="5.33298">
        <ele>987</ele>
        <time>2021-03-28T06:36:54.628Z</time>
      </trkpt>
      <trkpt lat="44.9812" lon="5.33306">
        <ele>982</ele>
        <time>2021-03-28T06:36:57.120Z</time>
      </trkpt>
      <trkpt lat="44.98138" lon="5.33307">
        <ele>983</ele>
        <time>2021-03-28T06:37:09.413Z</time>
      </trkpt>
      <trkpt lat="44.98165" lon="5.33302">
        <ele>990</ele>
        <time>2021-03-28T06:37:48.923Z</time>
      </trkpt>
      <trkpt lat="44.98211" lon="5.33306">
        <ele>993</ele>
        <time>2021-03-28T06:38:22.564Z</time>
      </trkpt>
      <trkpt lat="44.98252" lon="5.33319">
        <ele>992</ele>
        <time>2021-03-28T06:38:30.096Z</time>
      </trkpt>
      <trkpt lat="44.9827" lon="5.33318">
        <ele>990</ele>
        <time>2021-03-28T06:38:32.475Z</time>
      </trkpt>
      <trkpt lat="44.98309" lon="5.333">
        <ele>992</ele>
        <time>2021-03-28T06:38:59.241Z</time>
      </trkpt>
      <trkpt lat="44.98344" lon="5.33298">
        <ele>987</ele>
        <time>2021-03-28T06:39:03.868Z</time>
      </trkpt>
      <trkpt lat="44.98356" lon="5.33294">
        <ele>987</ele>
        <time>2021-03-28T06:39:08.506Z</time>
      </trkpt>
      <trkpt lat="44.98396" lon="5.33266">
        <ele>994</ele>
        <time>2021-03-28T06:40:13.267Z</time>
      </trkpt>
      <trkpt lat="44.98444" lon="5.33258">
        <ele>994</ele>
        <time>2021-03-28T06:40:31.448Z</time>
      </trkpt>
      <trkpt lat="44.98478" lon="5.33255">
        <ele>994</ele>
        <time>2021-03-28T06:40:44.263Z</time>
      </trkpt>
      <trkpt lat="44.98551" lon="5.33257">
        <ele>991</ele>
        <time>2021-03-28T06:40:55.223Z</time>
      </trkpt>
      <trkpt lat="44.98571" lon="5.33261">
        <ele>989</ele>
        <time>2021-03-28T06:40:57.891Z</time>
      </trkpt>
      <trkpt lat="44.98603" lon="5.33281">
        <ele>983</ele>
        <time>2021-03-28T06:41:02.513Z</time>
      </trkpt>
      <trkpt lat="44.98709" lon="5.33312">
        <ele>986</ele>
        <time>2021-03-28T06:41:57.085Z</time>
      </trkpt>
      <trkpt lat="44.98733" lon="5.33323">
        <ele>985</ele>
        <time>2021-03-28T06:42:00.924Z</time>
      </trkpt>
      <trkpt lat="44.98778" lon="5.33356">
        <ele>975</ele>
        <time>2021-03-28T06:42:07.620Z</time>
      </trkpt>
      <trkpt lat="44.9879" lon="5.33361">
        <ele>974</ele>
        <time>2021-03-28T06:42:09.273Z</time>
      </trkpt>
      <trkpt lat="44.988" lon="5.33361">
        <ele>975</ele>
        <time>2021-03-28T06:42:19.055Z</time>
      </trkpt>
      <trkpt lat="44.98812" lon="5.33359">
        <ele>978</ele>
        <time>2021-03-28T06:42:36.587Z</time>
      </trkpt>
      <trkpt lat="44.98823" lon="5.33351">
        <ele>984</ele>
        <time>2021-03-28T06:42:54.535Z</time>
      </trkpt>
      <trkpt lat="44.98833" lon="5.33341">
        <ele>991</ele>
        <time>2021-03-28T06:43:12.306Z</time>
      </trkpt>
      <trkpt lat="44.98848" lon="5.33314">
        <ele>1020</ele>
        <time>2021-03-28T06:43:47.539Z</time>
      </trkpt>
      <trkpt lat="44.98864" lon="5.33274">
        <ele>1070</ele>
        <time>2021-03-28T06:44:34.696Z</time>
      </trkpt>
      <trkpt lat="44.98874" lon="5.33262">
        <ele>1086</ele>
        <time>2021-03-28T06:44:53.727Z</time>
      </trkpt>
      <trkpt lat="44.98884" lon="5.33257">
        <ele>1093</ele>
        <time>2021-03-28T06:45:09.117Z</time>
      </trkpt>
      <trkpt lat="44.98894" lon="5.33256">
        <ele>1096</ele>
        <time>2021-03-28T06:45:23.662Z</time>
      </trkpt>
      <trkpt lat="44.9891" lon="5.33268">
        <ele>1084</ele>
        <time>2021-03-28T06:45:26.055Z</time>
      </trkpt>
      <trkpt lat="44.98935" lon="5.3332">
        <ele>1028</ele>
        <time>2021-03-28T06:45:31.929Z</time>
      </trkpt>
      <trkpt lat="44.98958" lon="5.33348">
        <ele>1006</ele>
        <time>2021-03-28T06:45:35.938Z</time>
      </trkpt>
      <trkpt lat="44.99017" lon="5.33381">
        <ele>985</ele>
        <time>2021-03-28T06:45:44.319Z</time>
      </trkpt>
      <trkpt lat="44.99044" lon="5.33387">
        <ele>978</ele>
        <time>2021-03-28T06:45:47.929Z</time>
      </trkpt>
      <trkpt lat="44.99069" lon="5.33385">
        <ele>978</ele>
        <time>2021-03-28T06:45:57.348Z</time>
      </trkpt>
      <trkpt lat="44.99117" lon="5.33374">
        <ele>992</ele>
        <time>2021-03-28T06:47:07.902Z</time>
      </trkpt>
      <trkpt lat="44.99142" lon="5.33376">
        <ele>992</ele>
        <time>2021-03-28T06:47:17.321Z</time>
      </trkpt>
      <trkpt lat="44.99175" lon="5.33375">
        <ele>997</ele>
        <time>2021-03-28T06:48:05.213Z</time>
      </trkpt>
      <trkpt lat="44.99211" lon="5.3338">
        <ele>1000</ele>
        <time>2021-03-28T06:48:35.553Z</time>
      </trkpt>
      <trkpt lat="44.99254" lon="5.33396">
        <ele>992</ele>
        <time>2021-03-28T06:48:41.427Z</time>
      </trkpt>
      <trkpt lat="44.99298" lon="5.33398">
        <ele>997</ele>
        <time>2021-03-28T06:49:31.057Z</time>
      </trkpt>
      <trkpt lat="44.99329" lon="5.33405">
        <ele>994</ele>
        <time>2021-03-28T06:49:35.204Z</time>
      </trkpt>
      <trkpt lat="44.99354" lon="5.33406">
        <ele>990</ele>
        <time>2021-03-28T06:49:38.508Z</time>
      </trkpt>
      <trkpt lat="44.99411" lon="5.33387">
        <ele>1000</ele>
        <time>2021-03-28T06:51:03.478Z</time>
      </trkpt>
      <trkpt lat="44.99431" lon="5.33388">
        <ele>998</ele>
        <time>2021-03-28T06:51:06.121Z</time>
      </trkpt>
      <trkpt lat="44.99453" lon="5.33393">
        <ele>994</ele>
        <time>2021-03-28T06:51:09.065Z</time>
      </trkpt>
      <trkpt lat="44.99495" lon="5.33384">
        <ele>1003</ele>
        <time>2021-03-28T06:52:10.700Z</time>
      </trkpt>
      <trkpt lat="44.99522" lon="5.33388">
        <ele>1002</ele>
        <time>2021-03-28T06:52:14.945Z</time>
      </trkpt>
      <trkpt lat="44.99573" lon="5.33406">
        <ele>998</ele>
        <time>2021-03-28T06:52:21.888Z</time>
      </trkpt>
      <trkpt lat="44.99625" lon="5.33434">
        <ele>986</ele>
        <time>2021-03-28T06:52:29.238Z</time>
      </trkpt>
      <trkpt lat="44.99688" lon="5.33459">
        <ele>967</ele>
        <time>2021-03-28T06:52:37.881Z</time>
      </trkpt>
      <trkpt lat="44.99748" lon="5.33452">
        <ele>972</ele>
        <time>2021-03-28T06:53:28.426Z</time>
      </trkpt>
      <trkpt lat="44.99788" lon="5.33445">
        <ele>971</ele>
        <time>2021-03-28T06:53:35.570Z</time>
      </trkpt>
      <trkpt lat="44.99835" lon="5.33427">
        <ele>983</ele>
        <time>2021-03-28T06:54:46.221Z</time>
      </trkpt>
      <trkpt lat="44.99843" lon="5.33423">
        <ele>984</ele>
        <time>2021-03-28T06:54:56.269Z</time>
      </trkpt>
      <trkpt lat="44.99892" lon="5.33391">
        <ele>981</ele>
        <time>2021-03-28T06:55:03.399Z</time>
      </trkpt>
      <trkpt lat="44.99909" lon="5.33391">
        <ele>975</ele>
        <time>2021-03-28T06:55:05.645Z</time>
      </trkpt>
      <trkpt lat="44.99929" lon="5.33397">
        <ele>959</ele>
        <time>2021-03-28T06:55:08.345Z</time>
      </trkpt>
      <trkpt lat="44.99942" lon="5.33397">
        <ele>949</ele>
        <time>2021-03-28T06:55:10.062Z</time>
      </trkpt>
      <trkpt lat="44.99956" lon="5.33389">
        <ele>945</ele>
        <time>2021-03-28T06:55:12.057Z</time>
      </trkpt>
      <trkpt lat="44.99978" lon="5.33363">
        <ele>957</ele>
        <time>2021-03-28T06:55:53.656Z</time>
      </trkpt>
      <trkpt lat="45.00014" lon="5.33334">
        <ele>966</ele>
        <time>2021-03-28T06:56:53.770Z</time>
      </trkpt>
      <trkpt lat="45.00031" lon="5.33296">
        <ele>962</ele>
        <time>2021-03-28T06:56:57.970Z</time>
      </trkpt>
      <trkpt lat="45.00042" lon="5.33278">
        <ele>962</ele>
        <time>2021-03-28T06:57:04.298Z</time>
      </trkpt>
      <trkpt lat="45.00054" lon="5.33262">
        <ele>964</ele>
        <time>2021-03-28T06:57:24.649Z</time>
      </trkpt>
      <trkpt lat="45.00086" lon="5.33241">
        <ele>957</ele>
        <time>2021-03-28T06:57:29.309Z</time>
      </trkpt>
      <trkpt lat="45.00106" lon="5.33238">
        <ele>934</ele>
        <time>2021-03-28T06:57:31.965Z</time>
      </trkpt>
      <trkpt lat="45.00126" lon="5.33237">
        <ele>911</ele>
        <time>2021-03-28T06:57:34.609Z</time>
      </trkpt>
      <trkpt lat="45.0014" lon="5.33236">
        <ele>896</ele>
        <time>2021-03-28T06:57:36.460Z</time>
      </trkpt>
      <trkpt lat="45.00159" lon="5.33221">
        <ele>883</ele>
        <time>2021-03-28T06:57:39.335Z</time>
      </trkpt>
      <trkpt lat="45.00175" lon="5.33199">
        <ele>880</ele>
        <time>2021-03-28T06:57:42.282Z</time>
      </trkpt>
      <trkpt lat="45.00185" lon="5.33178">
        <ele>882</ele>
        <time>2021-03-28T06:58:02.052Z</time>
      </trkpt>
      <trkpt lat="45.00189" lon="5.33155">
        <ele>889</ele>
        <time>2021-03-28T06:58:26.352Z</time>
      </trkpt>
      <trkpt lat="45.00188" lon="5.33126">
        <ele>900</ele>
        <time>2021-03-28T06:58:56.140Z</time>
      </trkpt>
      <trkpt lat="45.00183" lon="5.33092">
        <ele>915</ele>
        <time>2021-03-28T06:59:31.768Z</time>
      </trkpt>
      <trkpt lat="45.00178" lon="5.33052">
        <ele>923</ele>
        <time>2021-03-28T07:00:13.442Z</time>
      </trkpt>
      <trkpt lat="45.00183" lon="5.33029">
        <ele>924</ele>
        <time>2021-03-28T07:00:25.315Z</time>
      </trkpt>
      <trkpt lat="45.00192" lon="5.33014">
        <ele>924</ele>
        <time>2021-03-28T07:00:30.548Z</time>
      </trkpt>
      <trkpt lat="45.00213" lon="5.33008">
        <ele>919</ele>
        <time>2021-03-28T07:00:33.378Z</time>
      </trkpt>
      <trkpt lat="45.00261" lon="5.33006">
        <ele>911</ele>
        <time>2021-03-28T07:00:39.721Z</time>
      </trkpt>
      <trkpt lat="45.00355" lon="5.33007">
        <ele>904</ele>
        <time>2021-03-28T07:00:52.138Z</time>
      </trkpt>
      <trkpt lat="45.00462" lon="5.3299">
        <ele>895</ele>
        <time>2021-03-28T07:01:06.361Z</time>
      </trkpt>
      <trkpt lat="45.00495" lon="5.32981">
        <ele>892</ele>
        <time>2021-03-28T07:01:10.800Z</time>
      </trkpt>
      <trkpt lat="45.00509" lon="5.32967">
        <ele>889</ele>
        <time>2021-03-28T07:01:13.065Z</time>
      </trkpt>
      <trkpt lat="45.00528" lon="5.32939">
        <ele>887</ele>
        <time>2021-03-28T07:01:16.689Z</time>
      </trkpt>
      <trkpt lat="45.00583" lon="5.32854">
        <ele>884</ele>
        <time>2021-03-28T07:01:29.429Z</time>
      </trkpt>
      <trkpt lat="45.00595" lon="5.32828">
        <ele>888</ele>
        <time>2021-03-28T07:02:01.282Z</time>
      </trkpt>
      <trkpt lat="45.00598" lon="5.32806">
        <ele>891</ele>
        <time>2021-03-28T07:02:24.266Z</time>
      </trkpt>
      <trkpt lat="45.00595" lon="5.32771">
        <ele>892</ele>
        <time>2021-03-28T07:02:39.091Z</time>
      </trkpt>
      <trkpt lat="45.00588" lon="5.32751">
        <ele>891</ele>
        <time>2021-03-28T07:02:41.049Z</time>
      </trkpt>
      <trkpt lat="45.00554" lon="5.32695">
        <ele>884</ele>
        <time>2021-03-28T07:02:47.942Z</time>
      </trkpt>
      <trkpt lat="45.00549" lon="5.32671">
        <ele>883</ele>
        <time>2021-03-28T07:02:50.261Z</time>
      </trkpt>
      <trkpt lat="45.00547" lon="5.32649">
        <ele>881</ele>
        <time>2021-03-28T07:02:52.333Z</time>
      </trkpt>
      <trkpt lat="45.0056" lon="5.32611">
        <ele>882</ele>
        <time>2021-03-28T07:03:08.532Z</time>
      </trkpt>
      <trkpt lat="45.00566" lon="5.32588">
        <ele>883</ele>
        <time>2021-03-28T07:03:20.538Z</time>
      </trkpt>
      <trkpt lat="45.00566" lon="5.32566">
        <ele>883</ele>
        <time>2021-03-28T07:03:26.389Z</time>
      </trkpt>
      <trkpt lat="45.00562" lon="5.32548">
        <ele>882</ele>
        <time>2021-03-28T07:03:28.151Z</time>
      </trkpt>
      <trkpt lat="45.00552" lon="5.32528">
        <ele>880</ele>
        <time>2021-03-28T07:03:30.439Z</time>
      </trkpt>
      <trkpt lat="45.00375" lon="5.32275">
        <ele>862</ele>
        <time>2021-03-28T07:04:03.680Z</time>
      </trkpt>
      <trkpt lat="45.00332" lon="5.32238">
        <ele>860</ele>
        <time>2021-03-28T07:04:11.333Z</time>
      </trkpt>
      <trkpt lat="45.00319" lon="5.32222">
        <ele>860</ele>
        <time>2021-03-28T07:04:17.816Z</time>
      </trkpt>
      <trkpt lat="45.00312" lon="5.32211">
        <ele>860</ele>
        <time>2021-03-28T07:04:21.752Z</time>
      </trkpt>
      <trkpt lat="45.00304" lon="5.32188">
        <ele>859</ele>
        <time>2021-03-28T07:04:24.154Z</time>
      </trkpt>
      <trkpt lat="45.00301" lon="5.32164">
        <ele>858</ele>
        <time>2021-03-28T07:04:26.386Z</time>
      </trkpt>
      <trkpt lat="45.00301" lon="5.32138">
        <ele>856</ele>
        <time>2021-03-28T07:04:28.814Z</time>
      </trkpt>
      <trkpt lat="45.00313" lon="5.32059">
        <ele>852</ele>
        <time>2021-03-28T07:04:36.361Z</time>
      </trkpt>
      <trkpt lat="45.00344" lon="5.32">
        <ele>848</ele>
        <time>2021-03-28T07:04:43.226Z</time>
      </trkpt>
      <trkpt lat="45.00365" lon="5.31978">
        <ele>846</ele>
        <time>2021-03-28T07:04:46.678Z</time>
      </trkpt>
      <trkpt lat="45.0039" lon="5.31968">
        <ele>844</ele>
        <time>2021-03-28T07:04:50.110Z</time>
      </trkpt>
      <trkpt lat="45.00455" lon="5.31956">
        <ele>839</ele>
        <time>2021-03-28T07:04:58.769Z</time>
      </trkpt>
      <trkpt lat="45.00531" lon="5.31947">
        <ele>835</ele>
        <time>2021-03-28T07:05:09.112Z</time>
      </trkpt>
      <trkpt lat="45.00551" lon="5.31947">
        <ele>833</ele>
        <time>2021-03-28T07:05:11.754Z</time>
      </trkpt>
      <trkpt lat="45.00648" lon="5.31966">
        <ele>824</ele>
        <time>2021-03-28T07:05:24.689Z</time>
      </trkpt>
      <trkpt lat="45.0067" lon="5.31966">
        <ele>823</ele>
        <time>2021-03-28T07:05:27.862Z</time>
      </trkpt>
      <trkpt lat="45.00693" lon="5.31959">
        <ele>821</ele>
        <time>2021-03-28T07:05:30.969Z</time>
      </trkpt>
      <trkpt lat="45.00721" lon="5.31947">
        <ele>819</ele>
        <time>2021-03-28T07:05:34.834Z</time>
      </trkpt>
      <trkpt lat="45.00786" lon="5.31926">
        <ele>811</ele>
        <time>2021-03-28T07:05:43.641Z</time>
      </trkpt>
      <trkpt lat="45.00873" lon="5.31904">
        <ele>789</ele>
        <time>2021-03-28T07:05:55.315Z</time>
      </trkpt>
      <trkpt lat="45.00879" lon="5.319">
        <ele>786</ele>
        <time>2021-03-28T07:05:56.191Z</time>
      </trkpt>
      <trkpt lat="45.00883" lon="5.31893">
        <ele>784</ele>
        <time>2021-03-28T07:05:57.032Z</time>
      </trkpt>
      <trkpt lat="45.00882" lon="5.31875">
        <ele>783</ele>
        <time>2021-03-28T07:05:58.718Z</time>
      </trkpt>
      <trkpt lat="45.00876" lon="5.31862">
        <ele>784</ele>
        <time>2021-03-28T07:06:08.599Z</time>
      </trkpt>
      <trkpt lat="45.00862" lon="5.3184">
        <ele>789</ele>
        <time>2021-03-28T07:06:38.962Z</time>
      </trkpt>
      <trkpt lat="45.00838" lon="5.31813">
        <ele>793</ele>
        <time>2021-03-28T07:07:21.610Z</time>
      </trkpt>
      <trkpt lat="45.00815" lon="5.31777">
        <ele>793</ele>
        <time>2021-03-28T07:07:34.514Z</time>
      </trkpt>
      <trkpt lat="45.00728" lon="5.31602">
        <ele>781</ele>
        <time>2021-03-28T07:07:54.494Z</time>
      </trkpt>
      <trkpt lat="45.00709" lon="5.31557">
        <ele>777</ele>
        <time>2021-03-28T07:07:59.389Z</time>
      </trkpt>
      <trkpt lat="45.00692" lon="5.31508">
        <ele>770</ele>
        <time>2021-03-28T07:08:04.486Z</time>
      </trkpt>
      <trkpt lat="45.00624" lon="5.31277">
        <ele>754</ele>
        <time>2021-03-28T07:08:27.855Z</time>
      </trkpt>
      <trkpt lat="45.00607" lon="5.3121">
        <ele>743</ele>
        <time>2021-03-28T07:08:34.503Z</time>
      </trkpt>
      <trkpt lat="45.00597" lon="5.31188">
        <ele>739</ele>
        <time>2021-03-28T07:08:36.946Z</time>
      </trkpt>
      <trkpt lat="45.00582" lon="5.31178">
        <ele>741</ele>
        <time>2021-03-28T07:08:57.243Z</time>
      </trkpt>
      <trkpt lat="45.00543" lon="5.31172">
        <ele>748</ele>
        <time>2021-03-28T07:09:54.163Z</time>
      </trkpt>
      <trkpt lat="45.00499" lon="5.31124">
        <ele>733</ele>
        <time>2021-03-28T07:10:01.504Z</time>
      </trkpt>
      <trkpt lat="45.00334" lon="5.30978">
        <ele>719</ele>
        <time>2021-03-28T07:10:27.213Z</time>
      </trkpt>
      <trkpt lat="45.00275" lon="5.30898">
        <ele>719</ele>
        <time>2021-03-28T07:10:57.959Z</time>
      </trkpt>
      <trkpt lat="45.00253" lon="5.3083">
        <ele>713</ele>
        <time>2021-03-28T07:11:04.943Z</time>
      </trkpt>
      <trkpt lat="45.00242" lon="5.30754">
        <ele>702</ele>
        <time>2021-03-28T07:11:12.189Z</time>
      </trkpt>
      <trkpt lat="45.00231" lon="5.30705">
        <ele>697</ele>
        <time>2021-03-28T07:11:16.991Z</time>
      </trkpt>
      <trkpt lat="45.00209" lon="5.30648">
        <ele>692</ele>
        <time>2021-03-28T07:11:23.056Z</time>
      </trkpt>
      <trkpt lat="45.00172" lon="5.306">
        <ele>693</ele>
        <time>2021-03-28T07:11:46.157Z</time>
      </trkpt>
      <trkpt lat="45.0014" lon="5.3055">
        <ele>695</ele>
        <time>2021-03-28T07:12:15.285Z</time>
      </trkpt>
      <trkpt lat="45.00116" lon="5.30431">
        <ele>671</ele>
        <time>2021-03-28T07:12:26.843Z</time>
      </trkpt>
      <trkpt lat="45.00079" lon="5.3038">
        <ele>671</ele>
        <time>2021-03-28T07:12:46.279Z</time>
      </trkpt>
      <trkpt lat="44.9999" lon="5.30275">
        <ele>662</ele>
        <time>2021-03-28T07:13:01.589Z</time>
      </trkpt>
      <trkpt lat="44.99832" lon="5.30145">
        <ele>642</ele>
        <time>2021-03-28T07:13:25.734Z</time>
      </trkpt>
      <trkpt lat="44.99791" lon="5.3013">
        <ele>640</ele>
        <time>2021-03-28T07:13:31.745Z</time>
      </trkpt>
      <trkpt lat="44.99756" lon="5.30133">
        <ele>645</ele>
        <time>2021-03-28T07:14:22.621Z</time>
      </trkpt>
      <trkpt lat="44.99735" lon="5.3012">
        <ele>642</ele>
        <time>2021-03-28T07:14:25.649Z</time>
      </trkpt>
      <trkpt lat="44.99667" lon="5.30056">
        <ele>626</ele>
        <time>2021-03-28T07:14:36.439Z</time>
      </trkpt>
      <trkpt lat="44.99621" lon="5.3004">
        <ele>625</ele>
        <time>2021-03-28T07:14:45.194Z</time>
      </trkpt>
      <trkpt lat="44.99591" lon="5.30023">
        <ele>621</ele>
        <time>2021-03-28T07:14:49.463Z</time>
      </trkpt>
      <trkpt lat="44.99482" lon="5.29921">
        <ele>621</ele>
        <time>2021-03-28T07:15:38.631Z</time>
      </trkpt>
      <trkpt lat="44.99474" lon="5.299">
        <ele>620</ele>
        <time>2021-03-28T07:15:40.793Z</time>
      </trkpt>
      <trkpt lat="44.99469" lon="5.2985">
        <ele>612</ele>
        <time>2021-03-28T07:15:45.510Z</time>
      </trkpt>
      <trkpt lat="44.99461" lon="5.29822">
        <ele>609</ele>
        <time>2021-03-28T07:15:48.331Z</time>
      </trkpt>
      <trkpt lat="44.99453" lon="5.29782">
        <ele>603</ele>
        <time>2021-03-28T07:15:52.214Z</time>
      </trkpt>
      <trkpt lat="44.99436" lon="5.29732">
        <ele>600</ele>
        <time>2021-03-28T07:15:57.396Z</time>
      </trkpt>
      <trkpt lat="44.99421" lon="5.29703">
        <ele>602</ele>
        <time>2021-03-28T07:16:17.982Z</time>
      </trkpt>
      <trkpt lat="44.99412" lon="5.29657">
        <ele>597</ele>
        <time>2021-03-28T07:16:22.440Z</time>
      </trkpt>
      <trkpt lat="44.99396" lon="5.29607">
        <ele>598</ele>
        <time>2021-03-28T07:16:41.549Z</time>
      </trkpt>
      <trkpt lat="44.99395" lon="5.29576">
        <ele>596</ele>
        <time>2021-03-28T07:16:44.448Z</time>
      </trkpt>
      <trkpt lat="44.994" lon="5.29527">
        <ele>596</ele>
        <time>2021-03-28T07:16:57.618Z</time>
      </trkpt>
      <trkpt lat="44.99418" lon="5.29502">
        <ele>590</ele>
        <time>2021-03-28T07:17:00.951Z</time>
      </trkpt>
      <trkpt lat="44.9945" lon="5.29481">
        <ele>584</ele>
        <time>2021-03-28T07:17:05.611Z</time>
      </trkpt>
      <trkpt lat="44.99477" lon="5.29445">
        <ele>586</ele>
        <time>2021-03-28T07:17:30.659Z</time>
      </trkpt>
      <trkpt lat="44.99505" lon="5.29433">
        <ele>583</ele>
        <time>2021-03-28T07:17:34.524Z</time>
      </trkpt>
      <trkpt lat="44.9954" lon="5.29425">
        <ele>577</ele>
        <time>2021-03-28T07:17:39.207Z</time>
      </trkpt>
      <trkpt lat="44.99567" lon="5.29411">
        <ele>576</ele>
        <time>2021-03-28T07:17:43.796Z</time>
      </trkpt>
      <trkpt lat="44.9962" lon="5.29397">
        <ele>566</ele>
        <time>2021-03-28T07:17:50.918Z</time>
      </trkpt>
      <trkpt lat="44.99664" lon="5.2938">
        <ele>560</ele>
        <time>2021-03-28T07:17:56.943Z</time>
      </trkpt>
      <trkpt lat="44.99698" lon="5.29389">
        <ele>549</ele>
        <time>2021-03-28T07:18:01.512Z</time>
      </trkpt>
      <trkpt lat="44.99728" lon="5.29395">
        <ele>541</ele>
        <time>2021-03-28T07:18:05.514Z</time>
      </trkpt>
      <trkpt lat="44.99763" lon="5.29376">
        <ele>534</ele>
        <time>2021-03-28T07:18:10.467Z</time>
      </trkpt>
      <trkpt lat="44.99773" lon="5.29341">
        <ele>533</ele>
        <time>2021-03-28T07:18:14.615Z</time>
      </trkpt>
      <trkpt lat="44.99762" lon="5.29287">
        <ele>531</ele>
        <time>2021-03-28T07:18:20.103Z</time>
      </trkpt>
      <trkpt lat="44.99747" lon="5.29264">
        <ele>534</ele>
        <time>2021-03-28T07:18:52.206Z</time>
      </trkpt>
      <trkpt lat="44.9972" lon="5.29229">
        <ele>539</ele>
        <time>2021-03-28T07:19:45.350Z</time>
      </trkpt>
      <trkpt lat="44.997" lon="5.29187">
        <ele>537</ele>
        <time>2021-03-28T07:19:50.069Z</time>
      </trkpt>
      <trkpt lat="44.99682" lon="5.29136">
        <ele>533</ele>
        <time>2021-03-28T07:19:55.393Z</time>
      </trkpt>
      <trkpt lat="44.99655" lon="5.29088">
        <ele>531</ele>
        <time>2021-03-28T07:20:01.610Z</time>
      </trkpt>
      <trkpt lat="44.99661" lon="5.29074">
        <ele>525</ele>
        <time>2021-03-28T07:20:03.139Z</time>
      </trkpt>
      <trkpt lat="44.99674" lon="5.29079">
        <ele>521</ele>
        <time>2021-03-28T07:20:04.919Z</time>
      </trkpt>
      <trkpt lat="44.99693" lon="5.29119">
        <ele>523</ele>
        <time>2021-03-28T07:20:28.686Z</time>
      </trkpt>
      <trkpt lat="44.9972" lon="5.29162">
        <ele>521</ele>
        <time>2021-03-28T07:20:34.358Z</time>
      </trkpt>
      <trkpt lat="44.99751" lon="5.29197">
        <ele>516</ele>
        <time>2021-03-28T07:20:39.598Z</time>
      </trkpt>
      <trkpt lat="44.99787" lon="5.29222">
        <ele>507</ele>
        <time>2021-03-28T07:20:44.896Z</time>
      </trkpt>
      <trkpt lat="44.9983" lon="5.29295">
        <ele>502</ele>
        <time>2021-03-28T07:20:53.770Z</time>
      </trkpt>
      <trkpt lat="44.99841" lon="5.2934">
        <ele>501</ele>
        <time>2021-03-28T07:20:59.430Z</time>
      </trkpt>
      <trkpt lat="44.99841" lon="5.29375">
        <ele>499</ele>
        <time>2021-03-28T07:21:02.699Z</time>
      </trkpt>
      <trkpt lat="44.99829" lon="5.29419">
        <ele>501</ele>
        <time>2021-03-28T07:21:26.167Z</time>
      </trkpt>
      <trkpt lat="44.99802" lon="5.29448">
        <ele>503</ele>
        <time>2021-03-28T07:21:49.864Z</time>
      </trkpt>
      <trkpt lat="44.99735" lon="5.29541">
        <ele>494</ele>
        <time>2021-03-28T07:22:02.265Z</time>
      </trkpt>
      <trkpt lat="44.99727" lon="5.29574">
        <ele>488</ele>
        <time>2021-03-28T07:22:05.524Z</time>
      </trkpt>
      <trkpt lat="44.99732" lon="5.29601">
        <ele>485</ele>
        <time>2021-03-28T07:22:08.131Z</time>
      </trkpt>
      <trkpt lat="44.99781" lon="5.29691">
        <ele>478</ele>
        <time>2021-03-28T07:22:18.740Z</time>
      </trkpt>
      <trkpt lat="44.99791" lon="5.29702">
        <ele>478</ele>
        <time>2021-03-28T07:22:23.506Z</time>
      </trkpt>
      <trkpt lat="44.99808" lon="5.29711">
        <ele>477</ele>
        <time>2021-03-28T07:22:25.914Z</time>
      </trkpt>
      <trkpt lat="44.99829" lon="5.29718">
        <ele>475</ele>
        <time>2021-03-28T07:22:28.764Z</time>
      </trkpt>
      <trkpt lat="44.9987" lon="5.29748">
        <ele>476</ele>
        <time>2021-03-28T07:22:50.427Z</time>
      </trkpt>
      <trkpt lat="44.99887" lon="5.29748">
        <ele>474</ele>
        <time>2021-03-28T07:22:52.673Z</time>
      </trkpt>
      <trkpt lat="44.99909" lon="5.29753">
        <ele>472</ele>
        <time>2021-03-28T07:22:55.616Z</time>
      </trkpt>
      <trkpt lat="44.9996" lon="5.29771">
        <ele>472</ele>
        <time>2021-03-28T07:23:15.389Z</time>
      </trkpt>
      <trkpt lat="44.99991" lon="5.29773">
        <ele>469</ele>
        <time>2021-03-28T07:23:19.488Z</time>
      </trkpt>
      <trkpt lat="45.0001" lon="5.29765">
        <ele>465</ele>
        <time>2021-03-28T07:23:22.107Z</time>
      </trkpt>
      <trkpt lat="45.00039" lon="5.29737">
        <ele>457</ele>
        <time>2021-03-28T07:23:26.745Z</time>
      </trkpt>
      <trkpt lat="45.00074" lon="5.29715">
        <ele>451</ele>
        <time>2021-03-28T07:23:31.805Z</time>
      </trkpt>
      <trkpt lat="45.00164" lon="5.29691">
        <ele>441</ele>
        <time>2021-03-28T07:23:43.902Z</time>
      </trkpt>
      <trkpt lat="45.00246" lon="5.29657">
        <ele>432</ele>
        <time>2021-03-28T07:23:55.190Z</time>
      </trkpt>
      <trkpt lat="45.00313" lon="5.29646">
        <ele>425</ele>
        <time>2021-03-28T07:24:04.099Z</time>
      </trkpt>
      <trkpt lat="45.0037" lon="5.29645">
        <ele>416</ele>
        <time>2021-03-28T07:24:11.629Z</time>
      </trkpt>
      <trkpt lat="45.00405" lon="5.29661">
        <ele>415</ele>
        <time>2021-03-28T07:24:17.981Z</time>
      </trkpt>
      <trkpt lat="45.00531" lon="5.29774">
        <ele>409</ele>
        <time>2021-03-28T07:24:40.562Z</time>
      </trkpt>
      <trkpt lat="45.00564" lon="5.29791">
        <ele>401</ele>
        <time>2021-03-28T07:24:45.201Z</time>
      </trkpt>
      <trkpt lat="45.00596" lon="5.29818">
        <ele>396</ele>
        <time>2021-03-28T07:24:50.123Z</time>
      </trkpt>
      <trkpt lat="45.00656" lon="5.2989">
        <ele>390</ele>
        <time>2021-03-28T07:25:00.517Z</time>
      </trkpt>
      <trkpt lat="45.00709" lon="5.29988">
        <ele>389</ele>
        <time>2021-03-28T07:25:18.668Z</time>
      </trkpt>
      <trkpt lat="45.00731" lon="5.3005">
        <ele>387</ele>
        <time>2021-03-28T07:25:26.052Z</time>
      </trkpt>
      <trkpt lat="45.00732" lon="5.30079">
        <ele>390</ele>
        <time>2021-03-28T07:25:55.837Z</time>
      </trkpt>
      <trkpt lat="45.0074" lon="5.30093">
        <ele>386</ele>
        <time>2021-03-28T07:25:57.518Z</time>
      </trkpt>
      <trkpt lat="45.00746" lon="5.30096">
        <ele>383</ele>
        <time>2021-03-28T07:25:58.358Z</time>
      </trkpt>
      <trkpt lat="45.00753" lon="5.30095">
        <ele>380</ele>
        <time>2021-03-28T07:25:59.288Z</time>
      </trkpt>
      <trkpt lat="45.00759" lon="5.30086">
        <ele>379</ele>
        <time>2021-03-28T07:26:00.443Z</time>
      </trkpt>
      <trkpt lat="45.00753" lon="5.30036">
        <ele>375</ele>
        <time>2021-03-28T07:26:05.179Z</time>
      </trkpt>
      <trkpt lat="45.00738" lon="5.2996">
        <ele>370</ele>
        <time>2021-03-28T07:26:12.548Z</time>
      </trkpt>
      <trkpt lat="45.00708" lon="5.29861">
        <ele>361</ele>
        <time>2021-03-28T07:26:22.607Z</time>
      </trkpt>
      <trkpt lat="45.00707" lon="5.29854">
        <ele>360</ele>
        <time>2021-03-28T07:26:23.274Z</time>
      </trkpt>
      <trkpt lat="45.00657" lon="5.29739">
        <ele>349</ele>
        <time>2021-03-28T07:26:35.883Z</time>
      </trkpt>
      <trkpt lat="45.00612" lon="5.29629">
        <ele>344</ele>
        <time>2021-03-28T07:26:47.747Z</time>
      </trkpt>
      <trkpt lat="45.00603" lon="5.29572">
        <ele>340</ele>
        <time>2021-03-28T07:26:53.201Z</time>
      </trkpt>
      <trkpt lat="45.00604" lon="5.29547">
        <ele>338</ele>
        <time>2021-03-28T07:26:55.540Z</time>
      </trkpt>
      <trkpt lat="45.00609" lon="5.2952">
        <ele>336</ele>
        <time>2021-03-28T07:26:58.146Z</time>
      </trkpt>
      <trkpt lat="45.00655" lon="5.29386">
        <ele>326</ele>
        <time>2021-03-28T07:27:12.058Z</time>
      </trkpt>
      <trkpt lat="45.00667" lon="5.29357">
        <ele>324</ele>
        <time>2021-03-28T07:27:15.196Z</time>
      </trkpt>
      <trkpt lat="45.00683" lon="5.29332">
        <ele>321</ele>
        <time>2021-03-28T07:27:18.346Z</time>
      </trkpt>
      <trkpt lat="45.00697" lon="5.29318">
        <ele>319</ele>
        <time>2021-03-28T07:27:20.610Z</time>
      </trkpt>
      <trkpt lat="45.00822" lon="5.29227">
        <ele>305</ele>
        <time>2021-03-28T07:27:39.181Z</time>
      </trkpt>
      <trkpt lat="45.01063" lon="5.29054">
        <ele>285</ele>
        <time>2021-03-28T07:28:14.880Z</time>
      </trkpt>
      <trkpt lat="45.01082" lon="5.29046">
        <ele>283</ele>
        <time>2021-03-28T07:28:17.498Z</time>
      </trkpt>
      <trkpt lat="45.011" lon="5.2904">
        <ele>281</ele>
        <time>2021-03-28T07:28:19.941Z</time>
      </trkpt>
      <trkpt lat="45.01128" lon="5.29036">
        <ele>278</ele>
        <time>2021-03-28T07:28:23.658Z</time>
      </trkpt>
      <trkpt lat="45.01149" lon="5.29039">
        <ele>277</ele>
        <time>2021-03-28T07:28:26.650Z</time>
      </trkpt>
      <trkpt lat="45.01324" lon="5.29092">
        <ele>264</ele>
        <time>2021-03-28T07:28:50.290Z</time>
      </trkpt>
      <trkpt lat="45.01355" lon="5.29099">
        <ele>263</ele>
        <time>2021-03-28T07:28:55.450Z</time>
      </trkpt>
      <trkpt lat="45.01428" lon="5.29121">
        <ele>261</ele>
        <time>2021-03-28T07:29:08.394Z</time>
      </trkpt>
      <trkpt lat="45.01454" lon="5.29118">
        <ele>259</ele>
        <time>2021-03-28T07:29:11.839Z</time>
      </trkpt>
      <trkpt lat="45.01475" lon="5.29125">
        <ele>258</ele>
        <time>2021-03-28T07:29:14.925Z</time>
      </trkpt>
      <trkpt lat="45.01575" lon="5.29165">
        <ele>259</ele>
        <time>2021-03-28T07:29:57.796Z</time>
      </trkpt>
      <trkpt lat="45.01585" lon="5.29172">
        <ele>259</ele>
        <time>2021-03-28T07:30:01.993Z</time>
      </trkpt>
      <trkpt lat="45.01634" lon="5.29185">
        <ele>257</ele>
        <time>2021-03-28T07:30:09.546Z</time>
      </trkpt>
      <trkpt lat="45.01684" lon="5.29204">
        <ele>255</ele>
        <time>2021-03-28T07:30:17.501Z</time>
      </trkpt>
      <trkpt lat="45.01739" lon="5.29227">
        <ele>256</ele>
        <time>2021-03-28T07:30:43.176Z</time>
      </trkpt>
      <trkpt lat="45.01746" lon="5.29234">
        <ele>256</ele>
        <time>2021-03-28T07:30:46.401Z</time>
      </trkpt>
      <trkpt lat="45.01775" lon="5.29275">
        <ele>259</ele>
        <time>2021-03-28T07:31:18.196Z</time>
      </trkpt>
      <trkpt lat="45.01784" lon="5.29285">
        <ele>259</ele>
        <time>2021-03-28T07:31:22.501Z</time>
      </trkpt>
      <trkpt lat="45.01842" lon="5.29277">
        <ele>257</ele>
        <time>2021-03-28T07:31:31.843Z</time>
      </trkpt>
      <trkpt lat="45.01869" lon="5.29276">
        <ele>256</ele>
        <time>2021-03-28T07:31:36.058Z</time>
      </trkpt>
      <trkpt lat="45.01901" lon="5.29283">
        <ele>255</ele>
        <time>2021-03-28T07:31:41.435Z</time>
      </trkpt>
      <trkpt lat="45.01935" lon="5.29298">
        <ele>254</ele>
        <time>2021-03-28T07:31:47.526Z</time>
      </trkpt>
      <trkpt lat="45.01948" lon="5.29267">
        <ele>252</ele>
        <time>2021-03-28T07:31:50.892Z</time>
      </trkpt>
      <trkpt lat="45.01959" lon="5.29253">
        <ele>251</ele>
        <time>2021-03-28T07:31:52.846Z</time>
      </trkpt>
      <trkpt lat="45.01985" lon="5.29231">
        <ele>249</ele>
        <time>2021-03-28T07:31:56.531Z</time>
      </trkpt>
      <trkpt lat="45.02071" lon="5.29141">
        <ele>243</ele>
        <time>2021-03-28T07:32:10.604Z</time>
      </trkpt>
      <trkpt lat="45.02135" lon="5.29218">
        <ele>246</ele>
        <time>2021-03-28T07:32:57.568Z</time>
      </trkpt>
      <trkpt lat="45.0214" lon="5.29228">
        <ele>246</ele>
        <time>2021-03-28T07:33:00.825Z</time>
      </trkpt>
      <trkpt lat="45.02147" lon="5.29246">
        <ele>247</ele>
        <time>2021-03-28T07:33:11.724Z</time>
      </trkpt>
      <trkpt lat="45.02157" lon="5.29284">
        <ele>248</ele>
        <time>2021-03-28T07:33:27.569Z</time>
      </trkpt>
      <trkpt lat="45.02165" lon="5.29351">
        <ele>248</ele>
        <time>2021-03-28T07:33:45.636Z</time>
      </trkpt>
      <trkpt lat="45.02235" lon="5.2937">
        <ele>248</ele>
        <time>2021-03-28T07:34:12.448Z</time>
      </trkpt>
      <trkpt lat="45.02237" lon="5.29313">
        <ele>247</ele>
        <time>2021-03-28T07:34:19.600Z</time>
      </trkpt>
      <trkpt lat="45.02243" lon="5.29293">
        <ele>246</ele>
        <time>2021-03-28T07:34:21.480Z</time>
      </trkpt>
      <trkpt lat="45.0225" lon="5.29291">
        <ele>246</ele>
        <time>2021-03-28T07:34:24.166Z</time>
      </trkpt>
      <trkpt lat="45.0225" lon="5.29291">
        <ele>246</ele>
        <time>2021-03-28T07:34:24.166Z</time>
      </trkpt>
      <trkpt lat="45.0225" lon="5.29291">
        <ele>246</ele>
        <time>2021-03-28T07:34:24.166Z</time>
      </trkpt>
      <trkpt lat="45.02243" lon="5.29293">
        <ele>246</ele>
        <time>2021-03-28T07:34:26.853Z</time>
      </trkpt>
      <trkpt lat="45.02237" lon="5.29313">
        <ele>247</ele>
        <time>2021-03-28T07:34:38.064Z</time>
      </trkpt>
      <trkpt lat="45.02235" lon="5.2937">
        <ele>248</ele>
        <time>2021-03-28T07:34:57.697Z</time>
      </trkpt>
      <trkpt lat="45.02393" lon="5.29414">
        <ele>246</ele>
        <time>2021-03-28T07:35:30.790Z</time>
      </trkpt>
      <trkpt lat="45.02424" lon="5.29436">
        <ele>246</ele>
        <time>2021-03-28T07:35:43.836Z</time>
      </trkpt>
      <trkpt lat="45.02432" lon="5.29451">
        <ele>246</ele>
        <time>2021-03-28T07:35:48.832Z</time>
      </trkpt>
      <trkpt lat="45.02434" lon="5.2948">
        <ele>248</ele>
        <time>2021-03-28T07:36:08.427Z</time>
      </trkpt>
      <trkpt lat="45.02431" lon="5.29505">
        <ele>249</ele>
        <time>2021-03-28T07:36:20.681Z</time>
      </trkpt>
      <trkpt lat="45.02405" lon="5.29633">
        <ele>251</ele>
        <time>2021-03-28T07:37:04.648Z</time>
      </trkpt>
      <trkpt lat="45.02548" lon="5.29737">
        <ele>245</ele>
        <time>2021-03-28T07:37:29.671Z</time>
      </trkpt>
      <trkpt lat="45.02566" lon="5.29753">
        <ele>245</ele>
        <time>2021-03-28T07:37:37.667Z</time>
      </trkpt>
      <trkpt lat="45.02893" lon="5.29988">
        <ele>246</ele>
        <time>2021-03-28T07:39:59.166Z</time>
      </trkpt>
      <trkpt lat="45.03039" lon="5.30111">
        <ele>249</ele>
        <time>2021-03-28T07:41:15.416Z</time>
      </trkpt>
      <trkpt lat="45.03063" lon="5.30136">
        <ele>249</ele>
        <time>2021-03-28T07:41:26.627Z</time>
      </trkpt>
      <trkpt lat="45.03078" lon="5.30159">
        <ele>249</ele>
        <time>2021-03-28T07:41:34.947Z</time>
      </trkpt>
      <trkpt lat="45.03081" lon="5.30175">
        <ele>249</ele>
        <time>2021-03-28T07:41:39.348Z</time>
      </trkpt>
      <trkpt lat="45.0308" lon="5.30214">
        <ele>249</ele>
        <time>2021-03-28T07:41:49.722Z</time>
      </trkpt>
      <trkpt lat="45.03041" lon="5.30588">
        <ele>249</ele>
        <time>2021-03-28T07:43:30.227Z</time>
      </trkpt>
      <trkpt lat="45.03033" lon="5.30618">
        <ele>247</ele>
        <time>2021-03-28T07:43:33.220Z</time>
      </trkpt>
      <trkpt lat="45.03017" lon="5.30644">
        <ele>247</ele>
        <time>2021-03-28T07:43:42.385Z</time>
      </trkpt>
      <trkpt lat="45.02942" lon="5.30743">
        <ele>244</ele>
        <time>2021-03-28T07:43:59.711Z</time>
      </trkpt>
      <trkpt lat="45.02921" lon="5.30779">
        <ele>243</ele>
        <time>2021-03-28T07:44:05.221Z</time>
      </trkpt>
      <trkpt lat="45.02873" lon="5.30884">
        <ele>241</ele>
        <time>2021-03-28T07:44:21.274Z</time>
      </trkpt>
      <trkpt lat="45.0286" lon="5.30923">
        <ele>240</ele>
        <time>2021-03-28T07:44:26.235Z</time>
      </trkpt>
      <trkpt lat="45.02861" lon="5.30949">
        <ele>237</ele>
        <time>2021-03-28T07:44:28.666Z</time>
      </trkpt>
      <trkpt lat="45.02865" lon="5.30975">
        <ele>234</ele>
        <time>2021-03-28T07:44:31.150Z</time>
      </trkpt>
      <trkpt lat="45.02905" lon="5.31064">
        <ele>227</ele>
        <time>2021-03-28T07:44:40.996Z</time>
      </trkpt>
      <trkpt lat="45.02914" lon="5.31074">
        <ele>227</ele>
        <time>2021-03-28T07:44:45.301Z</time>
      </trkpt>
      <trkpt lat="45.02927" lon="5.31071">
        <ele>228</ele>
        <time>2021-03-28T07:44:55.737Z</time>
      </trkpt>
      <trkpt lat="45.0297" lon="5.31032">
        <ele>228</ele>
        <time>2021-03-28T07:45:14.950Z</time>
      </trkpt>
      <trkpt lat="45.02996" lon="5.31018">
        <ele>228</ele>
        <time>2021-03-28T07:45:25.415Z</time>
      </trkpt>
      <trkpt lat="45.03125" lon="5.30976">
        <ele>235</ele>
        <time>2021-03-28T07:46:54.158Z</time>
      </trkpt>
      <trkpt lat="45.03144" lon="5.30978">
        <ele>236</ele>
        <time>2021-03-28T07:47:06.897Z</time>
      </trkpt>
      <trkpt lat="45.0322" lon="5.31007">
        <ele>241</ele>
        <time>2021-03-28T07:48:03.705Z</time>
      </trkpt>
      <trkpt lat="45.03241" lon="5.31029">
        <ele>243</ele>
        <time>2021-03-28T07:48:24.509Z</time>
      </trkpt>
      <trkpt lat="45.03241" lon="5.31037">
        <ele>244</ele>
        <time>2021-03-28T07:48:32.712Z</time>
      </trkpt>
      <trkpt lat="45.03247" lon="5.31049">
        <ele>245</ele>
        <time>2021-03-28T07:48:42.517Z</time>
      </trkpt>
      <trkpt lat="45.03255" lon="5.31052">
        <ele>246</ele>
        <time>2021-03-28T07:48:52.675Z</time>
      </trkpt>
      <trkpt lat="45.03274" lon="5.31093">
        <ele>250</ele>
        <time>2021-03-28T07:49:32.574Z</time>
      </trkpt>
      <trkpt lat="45.03277" lon="5.31123">
        <ele>253</ele>
        <time>2021-03-28T07:50:03.642Z</time>
      </trkpt>
      <trkpt lat="45.03274" lon="5.3115">
        <ele>254</ele>
        <time>2021-03-28T07:50:16.496Z</time>
      </trkpt>
      <trkpt lat="45.03199" lon="5.31481">
        <ele>270</ele>
        <time>2021-03-28T07:53:15.857Z</time>
      </trkpt>
      <trkpt lat="45.03175" lon="5.31551">
        <ele>272</ele>
        <time>2021-03-28T07:53:46.875Z</time>
      </trkpt>
      <trkpt lat="45.03171" lon="5.31569">
        <ele>273</ele>
        <time>2021-03-28T07:53:57.364Z</time>
      </trkpt>
      <trkpt lat="45.03172" lon="5.31586">
        <ele>274</ele>
        <time>2021-03-28T07:54:07.477Z</time>
      </trkpt>
      <trkpt lat="45.0318" lon="5.31602">
        <ele>277</ele>
        <time>2021-03-28T07:54:27.574Z</time>
      </trkpt>
      <trkpt lat="45.03216" lon="5.31639">
        <ele>282</ele>
        <time>2021-03-28T07:55:17.067Z</time>
      </trkpt>
      <trkpt lat="45.03222" lon="5.31652">
        <ele>282</ele>
        <time>2021-03-28T07:55:21.195Z</time>
      </trkpt>
      <trkpt lat="45.03222" lon="5.31667">
        <ele>281</ele>
        <time>2021-03-28T07:55:22.595Z</time>
      </trkpt>
      <trkpt lat="45.03218" lon="5.31681">
        <ele>283</ele>
        <time>2021-03-28T07:55:38.080Z</time>
      </trkpt>
      <trkpt lat="45.03208" lon="5.31694">
        <ele>284</ele>
        <time>2021-03-28T07:55:48.649Z</time>
      </trkpt>
      <trkpt lat="45.03193" lon="5.31701">
        <ele>285</ele>
        <time>2021-03-28T07:56:00.031Z</time>
      </trkpt>
      <trkpt lat="45.03126" lon="5.31723">
        <ele>284</ele>
        <time>2021-03-28T07:56:13.790Z</time>
      </trkpt>
      <trkpt lat="45.03112" lon="5.31733">
        <ele>285</ele>
        <time>2021-03-28T07:56:25.128Z</time>
      </trkpt>
      <trkpt lat="45.03048" lon="5.31827">
        <ele>290</ele>
        <time>2021-03-28T07:57:27.521Z</time>
      </trkpt>
      <trkpt lat="45.0301" lon="5.31876">
        <ele>290</ele>
        <time>2021-03-28T07:57:46.861Z</time>
      </trkpt>
      <trkpt lat="45.02854" lon="5.32065">
        <ele>301</ele>
        <time>2021-03-28T08:00:05.173Z</time>
      </trkpt>
      <trkpt lat="45.02832" lon="5.32087">
        <ele>303</ele>
        <time>2021-03-28T08:00:26.238Z</time>
      </trkpt>
      <trkpt lat="45.02817" lon="5.32117">
        <ele>304</ele>
        <time>2021-03-28T08:00:41.331Z</time>
      </trkpt>
      <trkpt lat="45.02799" lon="5.32183">
        <ele>308</ele>
        <time>2021-03-28T08:01:22.264Z</time>
      </trkpt>
      <trkpt lat="45.02791" lon="5.32185">
        <ele>309</ele>
        <time>2021-03-28T08:01:32.519Z</time>
      </trkpt>
      <trkpt lat="45.02785" lon="5.32194">
        <ele>309</ele>
        <time>2021-03-28T08:01:35.808Z</time>
      </trkpt>
      <trkpt lat="45.02784" lon="5.32203">
        <ele>309</ele>
        <time>2021-03-28T08:01:38.231Z</time>
      </trkpt>
      <trkpt lat="45.02786" lon="5.32211">
        <ele>309</ele>
        <time>2021-03-28T08:01:40.487Z</time>
      </trkpt>
      <trkpt lat="45.0279" lon="5.32217">
        <ele>310</ele>
        <time>2021-03-28T08:01:48.945Z</time>
      </trkpt>
      <trkpt lat="45.02796" lon="5.3222">
        <ele>310</ele>
        <time>2021-03-28T08:01:51.339Z</time>
      </trkpt>
      <trkpt lat="45.02782" lon="5.32312">
        <ele>311</ele>
        <time>2021-03-28T08:02:20.354Z</time>
      </trkpt>
      <trkpt lat="45.02772" lon="5.32441">
        <ele>313</ele>
        <time>2021-03-28T08:03:03.468Z</time>
      </trkpt>
      <trkpt lat="45.02786" lon="5.32513">
        <ele>313</ele>
        <time>2021-03-28T08:03:23.321Z</time>
      </trkpt>
      <trkpt lat="45.02806" lon="5.32584">
        <ele>313</ele>
        <time>2021-03-28T08:03:43.641Z</time>
      </trkpt>
      <trkpt lat="45.02806" lon="5.32596">
        <ele>313</ele>
        <time>2021-03-28T08:03:46.831Z</time>
      </trkpt>
      <trkpt lat="45.02799" lon="5.32614">
        <ele>314</ele>
        <time>2021-03-28T08:03:57.730Z</time>
      </trkpt>
      <trkpt lat="45.028" lon="5.32624">
        <ele>314</ele>
        <time>2021-03-28T08:04:00.415Z</time>
      </trkpt>
      <trkpt lat="45.0283" lon="5.32674">
        <ele>313</ele>
        <time>2021-03-28T08:04:08.937Z</time>
      </trkpt>
      <trkpt lat="45.02893" lon="5.32743">
        <ele>312</ele>
        <time>2021-03-28T08:04:25.282Z</time>
      </trkpt>
      <trkpt lat="45.02914" lon="5.32778">
        <ele>311</ele>
        <time>2021-03-28T08:04:30.673Z</time>
      </trkpt>
      <trkpt lat="45.0297" lon="5.32885">
        <ele>310</ele>
        <time>2021-03-28T08:04:50.468Z</time>
      </trkpt>
      <trkpt lat="45.03019" lon="5.32992">
        <ele>308</ele>
        <time>2021-03-28T08:05:06.916Z</time>
      </trkpt>
      <trkpt lat="45.03048" lon="5.33065">
        <ele>308</ele>
        <time>2021-03-28T08:05:29.179Z</time>
      </trkpt>
      <trkpt lat="45.0307" lon="5.33113">
        <ele>308</ele>
        <time>2021-03-28T08:05:44.388Z</time>
      </trkpt>
      <trkpt lat="45.03103" lon="5.33156">
        <ele>307</ele>
        <time>2021-03-28T08:05:52.568Z</time>
      </trkpt>
      <trkpt lat="45.03163" lon="5.33189">
        <ele>304</ele>
        <time>2021-03-28T08:06:01.755Z</time>
      </trkpt>
      <trkpt lat="45.03216" lon="5.33209">
        <ele>303</ele>
        <time>2021-03-28T08:06:12.243Z</time>
      </trkpt>
      <trkpt lat="45.03302" lon="5.33216">
        <ele>300</ele>
        <time>2021-03-28T08:06:25.983Z</time>
      </trkpt>
      <trkpt lat="45.03361" lon="5.33214">
        <ele>299</ele>
        <time>2021-03-28T08:06:37.444Z</time>
      </trkpt>
      <trkpt lat="45.03439" lon="5.33206">
        <ele>297</ele>
        <time>2021-03-28T08:06:51.188Z</time>
      </trkpt>
      <trkpt lat="45.03499" lon="5.3321">
        <ele>295</ele>
        <time>2021-03-28T08:07:00.918Z</time>
      </trkpt>
      <trkpt lat="45.03541" lon="5.33216">
        <ele>295</ele>
        <time>2021-03-28T08:07:16.797Z</time>
      </trkpt>
      <trkpt lat="45.03596" lon="5.33233">
        <ele>294</ele>
        <time>2021-03-28T08:07:27.622Z</time>
      </trkpt>
      <trkpt lat="45.03638" lon="5.33261">
        <ele>294</ele>
        <time>2021-03-28T08:07:45.087Z</time>
      </trkpt>
      <trkpt lat="45.03739" lon="5.33366">
        <ele>291</ele>
        <time>2021-03-28T08:08:07.517Z</time>
      </trkpt>
      <trkpt lat="45.03795" lon="5.3343">
        <ele>290</ele>
        <time>2021-03-28T08:08:22.034Z</time>
      </trkpt>
      <trkpt lat="45.03831" lon="5.33485">
        <ele>291</ele>
        <time>2021-03-28T08:08:46.128Z</time>
      </trkpt>
      <trkpt lat="45.03867" lon="5.3359">
        <ele>289</ele>
        <time>2021-03-28T08:09:00.836Z</time>
      </trkpt>
      <trkpt lat="45.03927" lon="5.33669">
        <ele>289</ele>
        <time>2021-03-28T08:09:31.664Z</time>
      </trkpt>
      <trkpt lat="45.03963" lon="5.33688">
        <ele>288</ele>
        <time>2021-03-28T08:09:38.383Z</time>
      </trkpt>
      <trkpt lat="45.0407" lon="5.33724">
        <ele>289</ele>
        <time>2021-03-28T08:10:23.514Z</time>
      </trkpt>
      <trkpt lat="45.04129" lon="5.33739">
        <ele>290</ele>
        <time>2021-03-28T08:10:50.130Z</time>
      </trkpt>
      <trkpt lat="45.04166" lon="5.33753">
        <ele>290</ele>
        <time>2021-03-28T08:11:04.537Z</time>
      </trkpt>
      <trkpt lat="45.04295" lon="5.33833">
        <ele>291</ele>
        <time>2021-03-28T08:12:01.203Z</time>
      </trkpt>
      <trkpt lat="45.04483" lon="5.33905">
        <ele>294</ele>
        <time>2021-03-28T08:13:26.501Z</time>
      </trkpt>
      <trkpt lat="45.04707" lon="5.34043">
        <ele>298</ele>
        <time>2021-03-28T08:15:14.613Z</time>
      </trkpt>
      <trkpt lat="45.04756" lon="5.34088">
        <ele>297</ele>
        <time>2021-03-28T08:15:25.932Z</time>
      </trkpt>
      <trkpt lat="45.04784" lon="5.34105">
        <ele>294</ele>
        <time>2021-03-28T08:15:29.957Z</time>
      </trkpt>
      <trkpt lat="45.04801" lon="5.34104">
        <ele>292</ele>
        <time>2021-03-28T08:15:32.204Z</time>
      </trkpt>
      <trkpt lat="45.04811" lon="5.34098">
        <ele>291</ele>
        <time>2021-03-28T08:15:33.639Z</time>
      </trkpt>
      <trkpt lat="45.04894" lon="5.34004">
        <ele>288</ele>
        <time>2021-03-28T08:15:51.792Z</time>
      </trkpt>
      <trkpt lat="45.04907" lon="5.33994">
        <ele>287</ele>
        <time>2021-03-28T08:15:53.746Z</time>
      </trkpt>
      <trkpt lat="45.04919" lon="5.33989">
        <ele>286</ele>
        <time>2021-03-28T08:15:55.399Z</time>
      </trkpt>
      <trkpt lat="45.04952" lon="5.33992">
        <ele>282</ele>
        <time>2021-03-28T08:15:59.767Z</time>
      </trkpt>
      <trkpt lat="45.04969" lon="5.33999">
        <ele>280</ele>
        <time>2021-03-28T08:16:02.105Z</time>
      </trkpt>
      <trkpt lat="45.04988" lon="5.34017">
        <ele>278</ele>
        <time>2021-03-28T08:16:05.125Z</time>
      </trkpt>
      <trkpt lat="45.05104" lon="5.34175">
        <ele>272</ele>
        <time>2021-03-28T08:16:30.191Z</time>
      </trkpt>
      <trkpt lat="45.05179" lon="5.34273">
        <ele>261</ele>
        <time>2021-03-28T08:16:43.673Z</time>
      </trkpt>
      <trkpt lat="45.05192" lon="5.34286">
        <ele>258</ele>
        <time>2021-03-28T08:16:45.776Z</time>
      </trkpt>
      <trkpt lat="45.05214" lon="5.34299">
        <ele>256</ele>
        <time>2021-03-28T08:16:48.925Z</time>
      </trkpt>
      <trkpt lat="45.05241" lon="5.34302">
        <ele>256</ele>
        <time>2021-03-28T08:16:59.113Z</time>
      </trkpt>
      <trkpt lat="45.05261" lon="5.34299">
        <ele>256</ele>
        <time>2021-03-28T08:17:06.678Z</time>
      </trkpt>
      <trkpt lat="45.05285" lon="5.34287">
        <ele>255</ele>
        <time>2021-03-28T08:17:10.565Z</time>
      </trkpt>
      <trkpt lat="45.05356" lon="5.34242">
        <ele>252</ele>
        <time>2021-03-28T08:17:22.526Z</time>
      </trkpt>
      <trkpt lat="45.05381" lon="5.34231">
        <ele>253</ele>
        <time>2021-03-28T08:17:37.674Z</time>
      </trkpt>
      <trkpt lat="45.05405" lon="5.34226">
        <ele>252</ele>
        <time>2021-03-28T08:17:41.311Z</time>
      </trkpt>
      <trkpt lat="45.05515" lon="5.34233">
        <ele>242</ele>
        <time>2021-03-28T08:17:55.856Z</time>
      </trkpt>
      <trkpt lat="45.05543" lon="5.34232">
        <ele>238</ele>
        <time>2021-03-28T08:17:59.556Z</time>
      </trkpt>
      <trkpt lat="45.05563" lon="5.34228">
        <ele>236</ele>
        <time>2021-03-28T08:18:02.224Z</time>
      </trkpt>
      <trkpt lat="45.05599" lon="5.34207">
        <ele>234</ele>
        <time>2021-03-28T08:18:07.554Z</time>
      </trkpt>
      <trkpt lat="45.05615" lon="5.34189">
        <ele>234</ele>
        <time>2021-03-28T08:18:15.241Z</time>
      </trkpt>
      <trkpt lat="45.05638" lon="5.34157">
        <ele>234</ele>
        <time>2021-03-28T08:18:27.372Z</time>
      </trkpt>
      <trkpt lat="45.05671" lon="5.34102">
        <ele>240</ele>
        <time>2021-03-28T08:19:27.634Z</time>
      </trkpt>
      <trkpt lat="45.05712" lon="5.34048">
        <ele>245</ele>
        <time>2021-03-28T08:20:17.236Z</time>
      </trkpt>
      <trkpt lat="45.05723" lon="5.34039">
        <ele>246</ele>
        <time>2021-03-28T08:20:27.529Z</time>
      </trkpt>
      <trkpt lat="45.0573" lon="5.3404">
        <ele>245</ele>
        <time>2021-03-28T08:20:28.458Z</time>
      </trkpt>
      <trkpt lat="45.05734" lon="5.34049">
        <ele>241</ele>
        <time>2021-03-28T08:20:29.451Z</time>
      </trkpt>
      <trkpt lat="45.0573" lon="5.34061">
        <ele>238</ele>
        <time>2021-03-28T08:20:30.689Z</time>
      </trkpt>
      <trkpt lat="45.05683" lon="5.34112">
        <ele>235</ele>
        <time>2021-03-28T08:20:38.844Z</time>
      </trkpt>
      <trkpt lat="45.05667" lon="5.34143">
        <ele>231</ele>
        <time>2021-03-28T08:20:42.427Z</time>
      </trkpt>
      <trkpt lat="45.05651" lon="5.34202">
        <ele>223</ele>
        <time>2021-03-28T08:20:48.324Z</time>
      </trkpt>
      <trkpt lat="45.05638" lon="5.34229">
        <ele>222</ele>
        <time>2021-03-28T08:20:51.717Z</time>
      </trkpt>
      <trkpt lat="45.05625" lon="5.34245">
        <ele>222</ele>
        <time>2021-03-28T08:20:58.197Z</time>
      </trkpt>
      <trkpt lat="45.05604" lon="5.34259">
        <ele>225</ele>
        <time>2021-03-28T08:21:29.953Z</time>
      </trkpt>
      <trkpt lat="45.05577" lon="5.3427">
        <ele>228</ele>
        <time>2021-03-28T08:21:59.381Z</time>
      </trkpt>
      <trkpt lat="45.05563" lon="5.34279">
        <ele>229</ele>
        <time>2021-03-28T08:22:10.599Z</time>
      </trkpt>
      <trkpt lat="45.05555" lon="5.34293">
        <ele>228</ele>
        <time>2021-03-28T08:22:12.280Z</time>
      </trkpt>
      <trkpt lat="45.05552" lon="5.34313">
        <ele>225</ele>
        <time>2021-03-28T08:22:14.188Z</time>
      </trkpt>
      <trkpt lat="45.05559" lon="5.34329">
        <ele>222</ele>
        <time>2021-03-28T08:22:15.944Z</time>
      </trkpt>
      <trkpt lat="45.05639" lon="5.34391">
        <ele>230</ele>
        <time>2021-03-28T08:23:35.624Z</time>
      </trkpt>
      <trkpt lat="45.05655" lon="5.34398">
        <ele>231</ele>
        <time>2021-03-28T08:23:47.388Z</time>
      </trkpt>
      <trkpt lat="45.05671" lon="5.34395">
        <ele>230</ele>
        <time>2021-03-28T08:23:49.413Z</time>
      </trkpt>
      <trkpt lat="45.05695" lon="5.3438">
        <ele>227</ele>
        <time>2021-03-28T08:23:52.878Z</time>
      </trkpt>
      <trkpt lat="45.05725" lon="5.34371">
        <ele>225</ele>
        <time>2021-03-28T08:23:56.630Z</time>
      </trkpt>
      <trkpt lat="45.05755" lon="5.34356">
        <ele>219</ele>
        <time>2021-03-28T08:24:00.833Z</time>
      </trkpt>
      <trkpt lat="45.05765" lon="5.34355">
        <ele>218</ele>
        <time>2021-03-28T08:24:02.157Z</time>
      </trkpt>
      <trkpt lat="45.05775" lon="5.34357">
        <ele>217</ele>
        <time>2021-03-28T08:24:03.491Z</time>
      </trkpt>
      <trkpt lat="45.05789" lon="5.34366">
        <ele>218</ele>
        <time>2021-03-28T08:24:14.710Z</time>
      </trkpt>
      <trkpt lat="45.05817" lon="5.34389">
        <ele>221</ele>
        <time>2021-03-28T08:24:44.267Z</time>
      </trkpt>
      <trkpt lat="45.05881" lon="5.34411">
        <ele>219</ele>
        <time>2021-03-28T08:24:55.262Z</time>
      </trkpt>
      <trkpt lat="45.05891" lon="5.34412">
        <ele>218</ele>
        <time>2021-03-28T08:24:56.586Z</time>
      </trkpt>
      <trkpt lat="45.05891" lon="5.34417">
        <ele>220</ele>
        <time>2021-03-28T08:25:01.710Z</time>
      </trkpt>
      <trkpt lat="45.05898" lon="5.3442">
        <ele>220</ele>
        <time>2021-03-28T08:25:04.462Z</time>
      </trkpt>
      <trkpt lat="45.05944" lon="5.34418">
        <ele>213</ele>
        <time>2021-03-28T08:25:10.541Z</time>
      </trkpt>
      <trkpt lat="45.0598" lon="5.3444">
        <ele>213</ele>
        <time>2021-03-28T08:25:25.291Z</time>
      </trkpt>
      <trkpt lat="45.05994" lon="5.34489">
        <ele>219</ele>
        <time>2021-03-28T08:26:19.463Z</time>
      </trkpt>
      <trkpt lat="45.05995" lon="5.34545">
        <ele>229</ele>
        <time>2021-03-28T08:27:16.876Z</time>
      </trkpt>
      <trkpt lat="45.06" lon="5.34608">
        <ele>236</ele>
        <time>2021-03-28T08:28:21.850Z</time>
      </trkpt>
      <trkpt lat="45.06003" lon="5.3462">
        <ele>238</ele>
        <time>2021-03-28T08:28:34.897Z</time>
      </trkpt>
      <trkpt lat="45.06022" lon="5.34653">
        <ele>242</ele>
        <time>2021-03-28T08:29:18.265Z</time>
      </trkpt>
      <trkpt lat="45.06029" lon="5.34674">
        <ele>246</ele>
        <time>2021-03-28T08:29:42.064Z</time>
      </trkpt>
      <trkpt lat="45.06035" lon="5.34679">
        <ele>247</ele>
        <time>2021-03-28T08:29:52.166Z</time>
      </trkpt>
      <trkpt lat="45.06043" lon="5.34726">
        <ele>257</ele>
        <time>2021-03-28T08:30:41.714Z</time>
      </trkpt>
      <trkpt lat="45.06083" lon="5.34778">
        <ele>259</ele>
        <time>2021-03-28T08:31:12.542Z</time>
      </trkpt>
      <trkpt lat="45.06173" lon="5.3488">
        <ele>254</ele>
        <time>2021-03-28T08:31:29.484Z</time>
      </trkpt>
      <trkpt lat="45.06198" lon="5.34899">
        <ele>251</ele>
        <time>2021-03-28T08:31:33.232Z</time>
      </trkpt>
      <trkpt lat="45.06279" lon="5.34939">
        <ele>247</ele>
        <time>2021-03-28T08:31:45.472Z</time>
      </trkpt>
      <trkpt lat="45.06306" lon="5.34956">
        <ele>246</ele>
        <time>2021-03-28T08:31:50.232Z</time>
      </trkpt>
      <trkpt lat="45.06349" lon="5.34989">
        <ele>237</ele>
        <time>2021-03-28T08:31:56.693Z</time>
      </trkpt>
      <trkpt lat="45.06367" lon="5.35007">
        <ele>235</ele>
        <time>2021-03-28T08:31:59.604Z</time>
      </trkpt>
      <trkpt lat="45.0638" lon="5.35028">
        <ele>236</ele>
        <time>2021-03-28T08:32:12.637Z</time>
      </trkpt>
      <trkpt lat="45.06406" lon="5.35087">
        <ele>235</ele>
        <time>2021-03-28T08:32:21.795Z</time>
      </trkpt>
      <trkpt lat="45.06451" lon="5.3521">
        <ele>244</ele>
        <time>2021-03-28T08:33:50.573Z</time>
      </trkpt>
      <trkpt lat="45.06482" lon="5.35329">
        <ele>246</ele>
        <time>2021-03-28T08:34:32.935Z</time>
      </trkpt>
      <trkpt lat="45.06487" lon="5.3538">
        <ele>243</ele>
        <time>2021-03-28T08:34:37.739Z</time>
      </trkpt>
      <trkpt lat="45.06491" lon="5.3539">
        <ele>240</ele>
        <time>2021-03-28T08:34:38.811Z</time>
      </trkpt>
      <trkpt lat="45.06498" lon="5.35402">
        <ele>236</ele>
        <time>2021-03-28T08:34:40.263Z</time>
      </trkpt>
      <trkpt lat="45.06511" lon="5.35412">
        <ele>237</ele>
        <time>2021-03-28T08:34:51.262Z</time>
      </trkpt>
      <trkpt lat="45.06528" lon="5.35416">
        <ele>242</ele>
        <time>2021-03-28T08:35:16.266Z</time>
      </trkpt>
      <trkpt lat="45.06534" lon="5.35421">
        <ele>243</ele>
        <time>2021-03-28T08:35:26.368Z</time>
      </trkpt>
      <trkpt lat="45.06539" lon="5.35432">
        <ele>244</ele>
        <time>2021-03-28T08:35:36.194Z</time>
      </trkpt>
      <trkpt lat="45.0654" lon="5.35462">
        <ele>242</ele>
        <time>2021-03-28T08:35:38.996Z</time>
      </trkpt>
      <trkpt lat="45.06517" lon="5.35579">
        <ele>241</ele>
        <time>2021-03-28T08:35:56.799Z</time>
      </trkpt>
      <trkpt lat="45.06504" lon="5.35666">
        <ele>244</ele>
        <time>2021-03-28T08:36:37.515Z</time>
      </trkpt>
      <trkpt lat="45.06504" lon="5.35687">
        <ele>244</ele>
        <time>2021-03-28T08:36:43.094Z</time>
      </trkpt>
      <trkpt lat="45.06509" lon="5.3571">
        <ele>244</ele>
        <time>2021-03-28T08:36:49.488Z</time>
      </trkpt>
      <trkpt lat="45.06519" lon="5.35733">
        <ele>244</ele>
        <time>2021-03-28T08:36:56.664Z</time>
      </trkpt>
      <trkpt lat="45.06527" lon="5.35744">
        <ele>244</ele>
        <time>2021-03-28T08:37:00.859Z</time>
      </trkpt>
      <trkpt lat="45.0654" lon="5.35755">
        <ele>245</ele>
        <time>2021-03-28T08:37:11.990Z</time>
      </trkpt>
      <trkpt lat="45.06612" lon="5.35785">
        <ele>253</ele>
        <time>2021-03-28T08:38:30.448Z</time>
      </trkpt>
      <trkpt lat="45.06624" lon="5.35802">
        <ele>253</ele>
        <time>2021-03-28T08:38:36.833Z</time>
      </trkpt>
      <trkpt lat="45.06638" lon="5.35841">
        <ele>249</ele>
        <time>2021-03-28T08:38:40.915Z</time>
      </trkpt>
      <trkpt lat="45.0665" lon="5.35897">
        <ele>247</ele>
        <time>2021-03-28T08:38:46.721Z</time>
      </trkpt>
      <trkpt lat="45.06657" lon="5.36009">
        <ele>241</ele>
        <time>2021-03-28T08:38:57.211Z</time>
      </trkpt>
      <trkpt lat="45.06656" lon="5.36042">
        <ele>241</ele>
        <time>2021-03-28T08:39:05.986Z</time>
      </trkpt>
      <trkpt lat="45.06647" lon="5.36112">
        <ele>242</ele>
        <time>2021-03-28T08:39:29.103Z</time>
      </trkpt>
      <trkpt lat="45.06608" lon="5.36334">
        <ele>249</ele>
        <time>2021-03-28T08:41:09.870Z</time>
      </trkpt>
      <trkpt lat="45.06609" lon="5.36375">
        <ele>248</ele>
        <time>2021-03-28T08:41:14.507Z</time>
      </trkpt>
      <trkpt lat="45.06632" lon="5.36524">
        <ele>243</ele>
        <time>2021-03-28T08:41:29.905Z</time>
      </trkpt>
      <trkpt lat="45.06644" lon="5.36541">
        <ele>244</ele>
        <time>2021-03-28T08:41:41.763Z</time>
      </trkpt>
      <trkpt lat="45.06674" lon="5.3656">
        <ele>248</ele>
        <time>2021-03-28T08:42:22.539Z</time>
      </trkpt>
      <trkpt lat="45.06685" lon="5.36577">
        <ele>250</ele>
        <time>2021-03-28T08:42:43.024Z</time>
      </trkpt>
      <trkpt lat="45.06713" lon="5.36637">
        <ele>255</ele>
        <time>2021-03-28T08:43:31.966Z</time>
      </trkpt>
      <trkpt lat="45.06721" lon="5.36673">
        <ele>257</ele>
        <time>2021-03-28T08:43:52.938Z</time>
      </trkpt>
      <trkpt lat="45.06722" lon="5.36715">
        <ele>256</ele>
        <time>2021-03-28T08:43:57.727Z</time>
      </trkpt>
      <trkpt lat="45.06715" lon="5.36777">
        <ele>253</ele>
        <time>2021-03-28T08:44:03.584Z</time>
      </trkpt>
      <trkpt lat="45.06701" lon="5.36812">
        <ele>251</ele>
        <time>2021-03-28T08:44:07.337Z</time>
      </trkpt>
      <trkpt lat="45.06636" lon="5.36914">
        <ele>245</ele>
        <time>2021-03-28T08:44:19.525Z</time>
      </trkpt>
      <trkpt lat="45.06582" lon="5.37016">
        <ele>246</ele>
        <time>2021-03-28T08:44:57.228Z</time>
      </trkpt>
      <trkpt lat="45.06567" lon="5.37039">
        <ele>246</ele>
        <time>2021-03-28T08:45:05.546Z</time>
      </trkpt>
      <trkpt lat="45.06482" lon="5.37141">
        <ele>242</ele>
        <time>2021-03-28T08:45:23.130Z</time>
      </trkpt>
      <trkpt lat="45.06473" lon="5.3716">
        <ele>242</ele>
        <time>2021-03-28T08:45:29.208Z</time>
      </trkpt>
      <trkpt lat="45.06472" lon="5.37181">
        <ele>243</ele>
        <time>2021-03-28T08:45:40.234Z</time>
      </trkpt>
      <trkpt lat="45.06477" lon="5.37204">
        <ele>243</ele>
        <time>2021-03-28T08:45:46.628Z</time>
      </trkpt>
      <trkpt lat="45.06485" lon="5.37225">
        <ele>243</ele>
        <time>2021-03-28T08:45:52.967Z</time>
      </trkpt>
      <trkpt lat="45.06494" lon="5.37245">
        <ele>242</ele>
        <time>2021-03-28T08:45:55.107Z</time>
      </trkpt>
      <trkpt lat="45.06507" lon="5.37262">
        <ele>243</ele>
        <time>2021-03-28T08:46:07.265Z</time>
      </trkpt>
      <trkpt lat="45.06523" lon="5.37274">
        <ele>245</ele>
        <time>2021-03-28T08:46:26.987Z</time>
      </trkpt>
      <trkpt lat="45.06566" lon="5.37293">
        <ele>250</ele>
        <time>2021-03-28T08:47:16.342Z</time>
      </trkpt>
      <trkpt lat="45.06657" lon="5.37326">
        <ele>266</ele>
        <time>2021-03-28T08:49:32.639Z</time>
      </trkpt>
      <trkpt lat="45.06671" lon="5.37333">
        <ele>268</ele>
        <time>2021-03-28T08:49:54.182Z</time>
      </trkpt>
      <trkpt lat="45.06684" lon="5.3735">
        <ele>267</ele>
        <time>2021-03-28T08:49:56.502Z</time>
      </trkpt>
      <trkpt lat="45.06691" lon="5.37366">
        <ele>265</ele>
        <time>2021-03-28T08:49:58.258Z</time>
      </trkpt>
      <trkpt lat="45.06703" lon="5.3741">
        <ele>258</ele>
        <time>2021-03-28T08:50:02.658Z</time>
      </trkpt>
      <trkpt lat="45.06712" lon="5.37478">
        <ele>261</ele>
        <time>2021-03-28T08:50:37.391Z</time>
      </trkpt>
      <trkpt lat="45.06706" lon="5.37607">
        <ele>261</ele>
        <time>2021-03-28T08:51:11.738Z</time>
      </trkpt>
      <trkpt lat="45.06708" lon="5.37636">
        <ele>263</ele>
        <time>2021-03-28T08:51:31.332Z</time>
      </trkpt>
      <trkpt lat="45.0672" lon="5.377">
        <ele>267</ele>
        <time>2021-03-28T08:52:11.428Z</time>
      </trkpt>
      <trkpt lat="45.06723" lon="5.37734">
        <ele>267</ele>
        <time>2021-03-28T08:52:20.531Z</time>
      </trkpt>
      <trkpt lat="45.06717" lon="5.37828">
        <ele>267</ele>
        <time>2021-03-28T08:52:45.607Z</time>
      </trkpt>
      <trkpt lat="45.06727" lon="5.37984">
        <ele>271</ele>
        <time>2021-03-28T08:53:47.830Z</time>
      </trkpt>
      <trkpt lat="45.06737" lon="5.38042">
        <ele>269</ele>
        <time>2021-03-28T08:53:53.804Z</time>
      </trkpt>
      <trkpt lat="45.06772" lon="5.38178">
        <ele>273</ele>
        <time>2021-03-28T08:54:53.741Z</time>
      </trkpt>
      <trkpt lat="45.06774" lon="5.38287">
        <ele>273</ele>
        <time>2021-03-28T08:55:22.710Z</time>
      </trkpt>
      <trkpt lat="45.06803" lon="5.3844">
        <ele>285</ele>
        <time>2021-03-28T08:57:20.483Z</time>
      </trkpt>
      <trkpt lat="45.06805" lon="5.3846">
        <ele>285</ele>
        <time>2021-03-28T08:57:25.849Z</time>
      </trkpt>
      <trkpt lat="45.06803" lon="5.38509">
        <ele>282</ele>
        <time>2021-03-28T08:57:30.428Z</time>
      </trkpt>
      <trkpt lat="45.06795" lon="5.38554">
        <ele>283</ele>
        <time>2021-03-28T08:57:47.539Z</time>
      </trkpt>
      <trkpt lat="45.06769" lon="5.3862">
        <ele>275</ele>
        <time>2021-03-28T08:57:54.589Z</time>
      </trkpt>
      <trkpt lat="45.06752" lon="5.38704">
        <ele>271</ele>
        <time>2021-03-28T08:58:02.163Z</time>
      </trkpt>
      <trkpt lat="45.0674" lon="5.38744">
        <ele>273</ele>
        <time>2021-03-28T08:58:24.579Z</time>
      </trkpt>
      <trkpt lat="45.06739" lon="5.3877">
        <ele>275</ele>
        <time>2021-03-28T08:58:44.246Z</time>
      </trkpt>
      <trkpt lat="45.06741" lon="5.38795">
        <ele>278</ele>
        <time>2021-03-28T08:59:10.029Z</time>
      </trkpt>
      <trkpt lat="45.06736" lon="5.38839">
        <ele>282</ele>
        <time>2021-03-28T08:59:51.858Z</time>
      </trkpt>
      <trkpt lat="45.06726" lon="5.38864">
        <ele>282</ele>
        <time>2021-03-28T08:59:59.491Z</time>
      </trkpt>
      <trkpt lat="45.06717" lon="5.38879">
        <ele>281</ele>
        <time>2021-03-28T09:00:01.328Z</time>
      </trkpt>
      <trkpt lat="45.06704" lon="5.38884">
        <ele>279</ele>
        <time>2021-03-28T09:00:03.107Z</time>
      </trkpt>
      <trkpt lat="45.06688" lon="5.38884">
        <ele>276</ele>
        <time>2021-03-28T09:00:05.221Z</time>
      </trkpt>
      <trkpt lat="45.06677" lon="5.38887">
        <ele>274</ele>
        <time>2021-03-28T09:00:06.700Z</time>
      </trkpt>
      <trkpt lat="45.06661" lon="5.38899">
        <ele>273</ele>
        <time>2021-03-28T09:00:09.099Z</time>
      </trkpt>
      <trkpt lat="45.06651" lon="5.38912">
        <ele>274</ele>
        <time>2021-03-28T09:00:19.667Z</time>
      </trkpt>
      <trkpt lat="45.06644" lon="5.38926">
        <ele>275</ele>
        <time>2021-03-28T09:00:29.795Z</time>
      </trkpt>
      <trkpt lat="45.0664" lon="5.38946">
        <ele>275</ele>
        <time>2021-03-28T09:00:35.318Z</time>
      </trkpt>
      <trkpt lat="45.06642" lon="5.38985">
        <ele>276</ele>
        <time>2021-03-28T09:00:50.862Z</time>
      </trkpt>
      <trkpt lat="45.06652" lon="5.39029">
        <ele>279</ele>
        <time>2021-03-28T09:01:20.460Z</time>
      </trkpt>
      <trkpt lat="45.06663" lon="5.39071">
        <ele>280</ele>
        <time>2021-03-28T09:01:37.211Z</time>
      </trkpt>
      <trkpt lat="45.06677" lon="5.39096">
        <ele>284</ele>
        <time>2021-03-28T09:02:09.906Z</time>
      </trkpt>
      <trkpt lat="45.06681" lon="5.39108">
        <ele>284</ele>
        <time>2021-03-28T09:02:13.431Z</time>
      </trkpt>
      <trkpt lat="45.06685" lon="5.3915">
        <ele>283</ele>
        <time>2021-03-28T09:02:18.274Z</time>
      </trkpt>
      <trkpt lat="45.06685" lon="5.39191">
        <ele>282</ele>
        <time>2021-03-28T09:02:22.907Z</time>
      </trkpt>
      <trkpt lat="45.06699" lon="5.39238">
        <ele>284</ele>
        <time>2021-03-28T09:02:47.492Z</time>
      </trkpt>
      <trkpt lat="45.06699" lon="5.3925">
        <ele>284</ele>
        <time>2021-03-28T09:02:50.680Z</time>
      </trkpt>
      <trkpt lat="45.06695" lon="5.39261">
        <ele>286</ele>
        <time>2021-03-28T09:03:03.358Z</time>
      </trkpt>
      <trkpt lat="45.06687" lon="5.39268">
        <ele>286</ele>
        <time>2021-03-28T09:03:06.896Z</time>
      </trkpt>
      <trkpt lat="45.06665" lon="5.39265">
        <ele>282</ele>
        <time>2021-03-28T09:03:09.816Z</time>
      </trkpt>
      <trkpt lat="45.06655" lon="5.39266">
        <ele>281</ele>
        <time>2021-03-28T09:03:11.140Z</time>
      </trkpt>
      <trkpt lat="45.06632" lon="5.39281">
        <ele>281</ele>
        <time>2021-03-28T09:03:20.665Z</time>
      </trkpt>
      <trkpt lat="45.06625" lon="5.3929">
        <ele>282</ele>
        <time>2021-03-28T09:03:30.465Z</time>
      </trkpt>
      <trkpt lat="45.06597" lon="5.39344">
        <ele>285</ele>
        <time>2021-03-28T09:04:04.583Z</time>
      </trkpt>
      <trkpt lat="45.06569" lon="5.39385">
        <ele>287</ele>
        <time>2021-03-28T09:04:31.017Z</time>
      </trkpt>
      <trkpt lat="45.06552" lon="5.39422">
        <ele>288</ele>
        <time>2021-03-28T09:04:47.624Z</time>
      </trkpt>
      <trkpt lat="45.06543" lon="5.39461">
        <ele>290</ele>
        <time>2021-03-28T09:05:09.398Z</time>
      </trkpt>
      <trkpt lat="45.0655" lon="5.39632">
        <ele>308</ele>
        <time>2021-03-28T09:08:04.932Z</time>
      </trkpt>
      <trkpt lat="45.06544" lon="5.39661">
        <ele>308</ele>
        <time>2021-03-28T09:08:12.961Z</time>
      </trkpt>
      <trkpt lat="45.06496" lon="5.39741">
        <ele>302</ele>
        <time>2021-03-28T09:08:22.754Z</time>
      </trkpt>
      <trkpt lat="45.06486" lon="5.3977">
        <ele>304</ele>
        <time>2021-03-28T09:08:42.672Z</time>
      </trkpt>
      <trkpt lat="45.06459" lon="5.39818">
        <ele>305</ele>
        <time>2021-03-28T09:09:03.345Z</time>
      </trkpt>
      <trkpt lat="45.06437" lon="5.39865">
        <ele>311</ele>
        <time>2021-03-28T09:10:01.128Z</time>
      </trkpt>
      <trkpt lat="45.06423" lon="5.39887">
        <ele>315</ele>
        <time>2021-03-28T09:10:31.475Z</time>
      </trkpt>
      <trkpt lat="45.06395" lon="5.3991">
        <ele>315</ele>
        <time>2021-03-28T09:10:43.652Z</time>
      </trkpt>
      <trkpt lat="45.06336" lon="5.39975">
        <ele>318</ele>
        <time>2021-03-28T09:11:28.119Z</time>
      </trkpt>
      <trkpt lat="45.0629" lon="5.40011">
        <ele>318</ele>
        <time>2021-03-28T09:11:47.890Z</time>
      </trkpt>
      <trkpt lat="45.06275" lon="5.4003">
        <ele>318</ele>
        <time>2021-03-28T09:11:55.462Z</time>
      </trkpt>
      <trkpt lat="45.0626" lon="5.40058">
        <ele>320</ele>
        <time>2021-03-28T09:12:15.878Z</time>
      </trkpt>
      <trkpt lat="45.06243" lon="5.40113">
        <ele>323</ele>
        <time>2021-03-28T09:12:48.158Z</time>
      </trkpt>
      <trkpt lat="45.06235" lon="5.4016">
        <ele>326</ele>
        <time>2021-03-28T09:13:18.027Z</time>
      </trkpt>
      <trkpt lat="45.06233" lon="5.40214">
        <ele>332</ele>
        <time>2021-03-28T09:14:13.445Z</time>
      </trkpt>
      <trkpt lat="45.06236" lon="5.40246">
        <ele>338</ele>
        <time>2021-03-28T09:14:46.528Z</time>
      </trkpt>
      <trkpt lat="45.06235" lon="5.40259">
        <ele>339</ele>
        <time>2021-03-28T09:14:56.355Z</time>
      </trkpt>
      <trkpt lat="45.06224" lon="5.40291">
        <ele>339</ele>
        <time>2021-03-28T09:15:05.811Z</time>
      </trkpt>
      <trkpt lat="45.06192" lon="5.40351">
        <ele>337</ele>
        <time>2021-03-28T09:15:14.048Z</time>
      </trkpt>
      <trkpt lat="45.06181" lon="5.4039">
        <ele>339</ele>
        <time>2021-03-28T09:15:36.073Z</time>
      </trkpt>
      <trkpt lat="45.06161" lon="5.40484">
        <ele>342</ele>
        <time>2021-03-28T09:16:19.280Z</time>
      </trkpt>
      <trkpt lat="45.06161" lon="5.40505">
        <ele>345</ele>
        <time>2021-03-28T09:16:40.802Z</time>
      </trkpt>
      <trkpt lat="45.0617" lon="5.40542">
        <ele>354</ele>
        <time>2021-03-28T09:17:20.908Z</time>
      </trkpt>
      <trkpt lat="45.06171" lon="5.40555">
        <ele>357</ele>
        <time>2021-03-28T09:17:34.310Z</time>
      </trkpt>
      <trkpt lat="45.06169" lon="5.40565">
        <ele>357</ele>
        <time>2021-03-28T09:17:37.071Z</time>
      </trkpt>
      <trkpt lat="45.06149" lon="5.40596">
        <ele>356</ele>
        <time>2021-03-28T09:17:41.854Z</time>
      </trkpt>
      <trkpt lat="45.06139" lon="5.40637">
        <ele>365</ele>
        <time>2021-03-28T09:18:26.308Z</time>
      </trkpt>
      <trkpt lat="45.06135" lon="5.40643">
        <ele>366</ele>
        <time>2021-03-28T09:18:34.764Z</time>
      </trkpt>
      <trkpt lat="45.06122" lon="5.4065">
        <ele>364</ele>
        <time>2021-03-28T09:18:36.601Z</time>
      </trkpt>
      <trkpt lat="45.06086" lon="5.40651">
        <ele>354</ele>
        <time>2021-03-28T09:18:41.357Z</time>
      </trkpt>
      <trkpt lat="45.0607" lon="5.40657">
        <ele>349</ele>
        <time>2021-03-28T09:18:43.544Z</time>
      </trkpt>
      <trkpt lat="45.06057" lon="5.40671">
        <ele>348</ele>
        <time>2021-03-28T09:18:45.605Z</time>
      </trkpt>
      <trkpt lat="45.0604" lon="5.40712">
        <ele>355</ele>
        <time>2021-03-28T09:19:34.330Z</time>
      </trkpt>
      <trkpt lat="45.06019" lon="5.40744">
        <ele>359</ele>
        <time>2021-03-28T09:20:16.773Z</time>
      </trkpt>
      <trkpt lat="45.06004" lon="5.40761">
        <ele>359</ele>
        <time>2021-03-28T09:20:24.001Z</time>
      </trkpt>
      <trkpt lat="45.05915" lon="5.4084">
        <ele>347</ele>
        <time>2021-03-28T09:20:37.876Z</time>
      </trkpt>
      <trkpt lat="45.05903" lon="5.40858">
        <ele>347</ele>
        <time>2021-03-28T09:20:44.453Z</time>
      </trkpt>
      <trkpt lat="45.05898" lon="5.40882">
        <ele>352</ele>
        <time>2021-03-28T09:21:10.099Z</time>
      </trkpt>
      <trkpt lat="45.05899" lon="5.4092">
        <ele>364</ele>
        <time>2021-03-28T09:21:49.072Z</time>
      </trkpt>
      <trkpt lat="45.05896" lon="5.40934">
        <ele>365</ele>
        <time>2021-03-28T09:21:58.873Z</time>
      </trkpt>
      <trkpt lat="45.05892" lon="5.40945">
        <ele>365</ele>
        <time>2021-03-28T09:22:02.160Z</time>
      </trkpt>
      <trkpt lat="45.05871" lon="5.40971">
        <ele>362</ele>
        <time>2021-03-28T09:22:05.845Z</time>
      </trkpt>
      <trkpt lat="45.05865" lon="5.40988">
        <ele>364</ele>
        <time>2021-03-28T09:22:25.323Z</time>
      </trkpt>
      <trkpt lat="45.05864" lon="5.41007">
        <ele>366</ele>
        <time>2021-03-28T09:22:44.850Z</time>
      </trkpt>
      <trkpt lat="45.05867" lon="5.4102">
        <ele>367</ele>
        <time>2021-03-28T09:22:54.635Z</time>
      </trkpt>
      <trkpt lat="45.05881" lon="5.41054">
        <ele>370</ele>
        <time>2021-03-28T09:23:24.102Z</time>
      </trkpt>
      <trkpt lat="45.05894" lon="5.41074">
        <ele>372</ele>
        <time>2021-03-28T09:23:43.679Z</time>
      </trkpt>
      <trkpt lat="45.05903" lon="5.41084">
        <ele>374</ele>
        <time>2021-03-28T09:24:00.280Z</time>
      </trkpt>
      <trkpt lat="45.05933" lon="5.41104">
        <ele>379</ele>
        <time>2021-03-28T09:24:48.393Z</time>
      </trkpt>
      <trkpt lat="45.05957" lon="5.41114">
        <ele>385</ele>
        <time>2021-03-28T09:25:24.692Z</time>
      </trkpt>
      <trkpt lat="45.05971" lon="5.41131">
        <ele>388</ele>
        <time>2021-03-28T09:25:51.454Z</time>
      </trkpt>
      <trkpt lat="45.05976" lon="5.41143">
        <ele>388</ele>
        <time>2021-03-28T09:25:55.156Z</time>
      </trkpt>
      <trkpt lat="45.05979" lon="5.41158">
        <ele>387</ele>
        <time>2021-03-28T09:25:56.611Z</time>
      </trkpt>
      <trkpt lat="45.05989" lon="5.41278">
        <ele>386</ele>
        <time>2021-03-28T09:26:14.311Z</time>
      </trkpt>
      <trkpt lat="45.05998" lon="5.413">
        <ele>388</ele>
        <time>2021-03-28T09:26:34.067Z</time>
      </trkpt>
      <trkpt lat="45.06012" lon="5.41324">
        <ele>393</ele>
        <time>2021-03-28T09:27:05.968Z</time>
      </trkpt>
      <trkpt lat="45.06023" lon="5.41367">
        <ele>393</ele>
        <time>2021-03-28T09:27:18.120Z</time>
      </trkpt>
      <trkpt lat="45.06025" lon="5.41385">
        <ele>392</ele>
        <time>2021-03-28T09:27:19.820Z</time>
      </trkpt>
      <trkpt lat="45.06025" lon="5.4144">
        <ele>383</ele>
        <time>2021-03-28T09:27:24.952Z</time>
      </trkpt>
      <trkpt lat="45.06032" lon="5.4146">
        <ele>384</ele>
        <time>2021-03-28T09:27:36.322Z</time>
      </trkpt>
      <trkpt lat="45.06047" lon="5.41481">
        <ele>389</ele>
        <time>2021-03-28T09:28:06.931Z</time>
      </trkpt>
      <trkpt lat="45.06075" lon="5.41505">
        <ele>400</ele>
        <time>2021-03-28T09:28:54.424Z</time>
      </trkpt>
      <trkpt lat="45.06082" lon="5.4152">
        <ele>403</ele>
        <time>2021-03-28T09:29:12.849Z</time>
      </trkpt>
      <trkpt lat="45.06084" lon="5.41552">
        <ele>403</ele>
        <time>2021-03-28T09:29:21.385Z</time>
      </trkpt>
      <trkpt lat="45.06079" lon="5.41585">
        <ele>400</ele>
        <time>2021-03-28T09:29:24.534Z</time>
      </trkpt>
      <trkpt lat="45.06078" lon="5.41634">
        <ele>399</ele>
        <time>2021-03-28T09:29:30.406Z</time>
      </trkpt>
      <trkpt lat="45.06082" lon="5.41658">
        <ele>401</ele>
        <time>2021-03-28T09:29:50.321Z</time>
      </trkpt>
      <trkpt lat="45.06106" lon="5.41748">
        <ele>412</ele>
        <time>2021-03-28T09:31:28.914Z</time>
      </trkpt>
      <trkpt lat="45.06112" lon="5.41809">
        <ele>409</ele>
        <time>2021-03-28T09:31:34.661Z</time>
      </trkpt>
      <trkpt lat="45.06119" lon="5.41841">
        <ele>410</ele>
        <time>2021-03-28T09:31:49.184Z</time>
      </trkpt>
      <trkpt lat="45.0613" lon="5.41873">
        <ele>413</ele>
        <time>2021-03-28T09:32:19.486Z</time>
      </trkpt>
      <trkpt lat="45.06144" lon="5.419">
        <ele>417</ele>
        <time>2021-03-28T09:32:53.812Z</time>
      </trkpt>
      <trkpt lat="45.06191" lon="5.41964">
        <ele>429</ele>
        <time>2021-03-28T09:34:28.431Z</time>
      </trkpt>
      <trkpt lat="45.06253" lon="5.42042">
        <ele>430</ele>
        <time>2021-03-28T09:35:03.505Z</time>
      </trkpt>
      <trkpt lat="45.06284" lon="5.42071">
        <ele>436</ele>
        <time>2021-03-28T09:35:57.416Z</time>
      </trkpt>
      <trkpt lat="45.06292" lon="5.42084">
        <ele>437</ele>
        <time>2021-03-28T09:36:07.561Z</time>
      </trkpt>
      <trkpt lat="45.06299" lon="5.42102">
        <ele>437</ele>
        <time>2021-03-28T09:36:13.020Z</time>
      </trkpt>
      <trkpt lat="45.06305" lon="5.42126">
        <ele>437</ele>
        <time>2021-03-28T09:36:19.785Z</time>
      </trkpt>
      <trkpt lat="45.06322" lon="5.42255">
        <ele>436</ele>
        <time>2021-03-28T09:36:39.241Z</time>
      </trkpt>
      <trkpt lat="45.06338" lon="5.42447">
        <ele>445</ele>
        <time>2021-03-28T09:38:19.512Z</time>
      </trkpt>
      <trkpt lat="45.06355" lon="5.42537">
        <ele>453</ele>
        <time>2021-03-28T09:39:41.018Z</time>
      </trkpt>
      <trkpt lat="45.06375" lon="5.42664">
        <ele>479</ele>
        <time>2021-03-28T09:41:54.367Z</time>
      </trkpt>
      <trkpt lat="45.06383" lon="5.42677">
        <ele>483</ele>
        <time>2021-03-28T09:42:12.037Z</time>
      </trkpt>
      <trkpt lat="45.06405" lon="5.42702">
        <ele>496</ele>
        <time>2021-03-28T09:42:52.968Z</time>
      </trkpt>
      <trkpt lat="45.06421" lon="5.42715">
        <ele>504</ele>
        <time>2021-03-28T09:43:19.734Z</time>
      </trkpt>
      <trkpt lat="45.0645" lon="5.42731">
        <ele>514</ele>
        <time>2021-03-28T09:44:04.893Z</time>
      </trkpt>
      <trkpt lat="45.06468" lon="5.42735">
        <ele>519</ele>
        <time>2021-03-28T09:44:31.330Z</time>
      </trkpt>
      <trkpt lat="45.06483" lon="5.42742">
        <ele>524</ele>
        <time>2021-03-28T09:44:54.246Z</time>
      </trkpt>
      <trkpt lat="45.06496" lon="5.42756">
        <ele>529</ele>
        <time>2021-03-28T09:45:17.944Z</time>
      </trkpt>
      <trkpt lat="45.0652" lon="5.42808">
        <ele>551</ele>
        <time>2021-03-28T09:46:21.603Z</time>
      </trkpt>
      <trkpt lat="45.0653" lon="5.42845">
        <ele>558</ele>
        <time>2021-03-28T09:47:02.202Z</time>
      </trkpt>
      <trkpt lat="45.06538" lon="5.42865">
        <ele>560</ele>
        <time>2021-03-28T09:47:22.721Z</time>
      </trkpt>
      <trkpt lat="45.06603" lon="5.42946">
        <ele>562</ele>
        <time>2021-03-28T09:48:04.034Z</time>
      </trkpt>
      <trkpt lat="45.06613" lon="5.42952">
        <ele>562</ele>
        <time>2021-03-28T09:48:08.119Z</time>
      </trkpt>
      <trkpt lat="45.06667" lon="5.43006">
        <ele>550</ele>
        <time>2021-03-28T09:48:16.852Z</time>
      </trkpt>
      <trkpt lat="45.06684" lon="5.43039">
        <ele>554</ele>
        <time>2021-03-28T09:48:58.709Z</time>
      </trkpt>
      <trkpt lat="45.0669" lon="5.43068">
        <ele>550</ele>
        <time>2021-03-28T09:49:01.529Z</time>
      </trkpt>
      <trkpt lat="45.06695" lon="5.43079">
        <ele>549</ele>
        <time>2021-03-28T09:49:02.749Z</time>
      </trkpt>
      <trkpt lat="45.06703" lon="5.43088">
        <ele>549</ele>
        <time>2021-03-28T09:49:06.593Z</time>
      </trkpt>
      <trkpt lat="45.06717" lon="5.43098">
        <ele>550</ele>
        <time>2021-03-28T09:49:17.930Z</time>
      </trkpt>
      <trkpt lat="45.06741" lon="5.43129">
        <ele>548</ele>
        <time>2021-03-28T09:49:22.019Z</time>
      </trkpt>
      <trkpt lat="45.06767" lon="5.43181">
        <ele>550</ele>
        <time>2021-03-28T09:49:50.569Z</time>
      </trkpt>
      <trkpt lat="45.06806" lon="5.43279">
        <ele>551</ele>
        <time>2021-03-28T09:50:24.349Z</time>
      </trkpt>
      <trkpt lat="45.06823" lon="5.43338">
        <ele>544</ele>
        <time>2021-03-28T09:50:30.294Z</time>
      </trkpt>
      <trkpt lat="45.06829" lon="5.43367">
        <ele>544</ele>
        <time>2021-03-28T09:50:38.322Z</time>
      </trkpt>
      <trkpt lat="45.06829" lon="5.43482">
        <ele>531</ele>
        <time>2021-03-28T09:50:49.050Z</time>
      </trkpt>
      <trkpt lat="45.06843" lon="5.4356">
        <ele>540</ele>
        <time>2021-03-28T09:52:11.521Z</time>
      </trkpt>
      <trkpt lat="45.0685" lon="5.43587">
        <ele>545</ele>
        <time>2021-03-28T09:52:40.995Z</time>
      </trkpt>
      <trkpt lat="45.06859" lon="5.43612">
        <ele>548</ele>
        <time>2021-03-28T09:53:09.749Z</time>
      </trkpt>
      <trkpt lat="45.06882" lon="5.43662">
        <ele>555</ele>
        <time>2021-03-28T09:54:10.896Z</time>
      </trkpt>
      <trkpt lat="45.06907" lon="5.4373">
        <ele>550</ele>
        <time>2021-03-28T09:54:18.047Z</time>
      </trkpt>
      <trkpt lat="45.06935" lon="5.43791">
        <ele>556</ele>
        <time>2021-03-28T09:55:18.131Z</time>
      </trkpt>
      <trkpt lat="45.06948" lon="5.43826">
        <ele>557</ele>
        <time>2021-03-28T09:55:33.764Z</time>
      </trkpt>
      <trkpt lat="45.06954" lon="5.43861">
        <ele>555</ele>
        <time>2021-03-28T09:55:37.124Z</time>
      </trkpt>
      <trkpt lat="45.0696" lon="5.4388">
        <ele>555</ele>
        <time>2021-03-28T09:55:42.653Z</time>
      </trkpt>
      <trkpt lat="45.06989" lon="5.43942">
        <ele>559</ele>
        <time>2021-03-28T09:56:24.345Z</time>
      </trkpt>
      <trkpt lat="45.07019" lon="5.43991">
        <ele>571</ele>
        <time>2021-03-28T09:57:30.797Z</time>
      </trkpt>
      <trkpt lat="45.07057" lon="5.44035">
        <ele>581</ele>
        <time>2021-03-28T09:58:42.020Z</time>
      </trkpt>
      <trkpt lat="45.07083" lon="5.44079">
        <ele>581</ele>
        <time>2021-03-28T09:58:57.262Z</time>
      </trkpt>
      <trkpt lat="45.07123" lon="5.44211">
        <ele>599</ele>
        <time>2021-03-28T10:01:24.447Z</time>
      </trkpt>
      <trkpt lat="45.07127" lon="5.44236">
        <ele>593</ele>
        <time>2021-03-28T10:01:26.839Z</time>
      </trkpt>
      <trkpt lat="45.07131" lon="5.44292">
        <ele>577</ele>
        <time>2021-03-28T10:01:32.089Z</time>
      </trkpt>
      <trkpt lat="45.07156" lon="5.4433">
        <ele>589</ele>
        <time>2021-03-28T10:02:25.305Z</time>
      </trkpt>
      <trkpt lat="45.07161" lon="5.44343">
        <ele>589</ele>
        <time>2021-03-28T10:02:29.238Z</time>
      </trkpt>
      <trkpt lat="45.07158" lon="5.44387">
        <ele>575</ele>
        <time>2021-03-28T10:02:33.361Z</time>
      </trkpt>
      <trkpt lat="45.07166" lon="5.44422">
        <ele>572</ele>
        <time>2021-03-28T10:02:36.793Z</time>
      </trkpt>
      <trkpt lat="45.07221" lon="5.44474">
        <ele>598</ele>
        <time>2021-03-28T10:04:12.749Z</time>
      </trkpt>
      <trkpt lat="45.07235" lon="5.4449">
        <ele>601</ele>
        <time>2021-03-28T10:04:38.852Z</time>
      </trkpt>
      <trkpt lat="45.0724" lon="5.44504">
        <ele>598</ele>
        <time>2021-03-28T10:04:40.316Z</time>
      </trkpt>
      <trkpt lat="45.07245" lon="5.44544">
        <ele>583</ele>
        <time>2021-03-28T10:04:44.105Z</time>
      </trkpt>
      <trkpt lat="45.0725" lon="5.4456">
        <ele>579</ele>
        <time>2021-03-28T10:04:45.737Z</time>
      </trkpt>
      <trkpt lat="45.07268" lon="5.44596">
        <ele>588</ele>
        <time>2021-03-28T10:05:30.935Z</time>
      </trkpt>
      <trkpt lat="45.07275" lon="5.44628">
        <ele>587</ele>
        <time>2021-03-28T10:05:34.447Z</time>
      </trkpt>
      <trkpt lat="45.07275" lon="5.44663">
        <ele>577</ele>
        <time>2021-03-28T10:05:37.712Z</time>
      </trkpt>
      <trkpt lat="45.07278" lon="5.44678">
        <ele>575</ele>
        <time>2021-03-28T10:05:39.167Z</time>
      </trkpt>
      <trkpt lat="45.07299" lon="5.44707">
        <ele>584</ele>
        <time>2021-03-28T10:06:21.727Z</time>
      </trkpt>
      <trkpt lat="45.07316" lon="5.44722">
        <ele>592</ele>
        <time>2021-03-28T10:06:50.790Z</time>
      </trkpt>
      <trkpt lat="45.07362" lon="5.44735">
        <ele>620</ele>
        <time>2021-03-28T10:07:58.849Z</time>
      </trkpt>
      <trkpt lat="45.07412" lon="5.44769">
        <ele>627</ele>
        <time>2021-03-28T10:09:11.712Z</time>
      </trkpt>
      <trkpt lat="45.07421" lon="5.44783">
        <ele>620</ele>
        <time>2021-03-28T10:09:13.478Z</time>
      </trkpt>
      <trkpt lat="45.0743" lon="5.44825">
        <ele>589</ele>
        <time>2021-03-28T10:09:17.573Z</time>
      </trkpt>
      <trkpt lat="45.07439" lon="5.4485">
        <ele>582</ele>
        <time>2021-03-28T10:09:20.190Z</time>
      </trkpt>
      <trkpt lat="45.07545" lon="5.44918">
        <ele>611</ele>
        <time>2021-03-28T10:12:09.036Z</time>
      </trkpt>
      <trkpt lat="45.07595" lon="5.44967">
        <ele>612</ele>
        <time>2021-03-28T10:12:35.966Z</time>
      </trkpt>
      <trkpt lat="45.07686" lon="5.45036">
        <ele>639</ele>
        <time>2021-03-28T10:15:05.737Z</time>
      </trkpt>
      <trkpt lat="45.07762" lon="5.45123">
        <ele>671</ele>
        <time>2021-03-28T10:17:27.531Z</time>
      </trkpt>
      <trkpt lat="45.07771" lon="5.45139">
        <ele>674</ele>
        <time>2021-03-28T10:17:48.490Z</time>
      </trkpt>
      <trkpt lat="45.07776" lon="5.45155">
        <ele>674</ele>
        <time>2021-03-28T10:17:53.137Z</time>
      </trkpt>
      <trkpt lat="45.07775" lon="5.45209">
        <ele>658</ele>
        <time>2021-03-28T10:17:58.176Z</time>
      </trkpt>
      <trkpt lat="45.0777" lon="5.45261">
        <ele>641</ele>
        <time>2021-03-28T10:18:03.071Z</time>
      </trkpt>
      <trkpt lat="45.07777" lon="5.45313">
        <ele>638</ele>
        <time>2021-03-28T10:18:08.009Z</time>
      </trkpt>
      <trkpt lat="45.07785" lon="5.45341">
        <ele>638</ele>
        <time>2021-03-28T10:18:16.032Z</time>
      </trkpt>
      <trkpt lat="45.07797" lon="5.45358">
        <ele>642</ele>
        <time>2021-03-28T10:18:40.660Z</time>
      </trkpt>
      <trkpt lat="45.07835" lon="5.4539">
        <ele>641</ele>
        <time>2021-03-28T10:18:48.691Z</time>
      </trkpt>
      <trkpt lat="45.07867" lon="5.45428">
        <ele>644</ele>
        <time>2021-03-28T10:19:20.746Z</time>
      </trkpt>
      <trkpt lat="45.07878" lon="5.45438">
        <ele>646</ele>
        <time>2021-03-28T10:19:39.712Z</time>
      </trkpt>
      <trkpt lat="45.0791" lon="5.45454">
        <ele>649</ele>
        <time>2021-03-28T10:20:09.538Z</time>
      </trkpt>
      <trkpt lat="45.07934" lon="5.45473">
        <ele>650</ele>
        <time>2021-03-28T10:20:25.048Z</time>
      </trkpt>
      <trkpt lat="45.0798" lon="5.45527">
        <ele>658</ele>
        <time>2021-03-28T10:21:51.740Z</time>
      </trkpt>
      <trkpt lat="45.07998" lon="5.45541">
        <ele>660</ele>
        <time>2021-03-28T10:22:11.331Z</time>
      </trkpt>
      <trkpt lat="45.08032" lon="5.45556">
        <ele>670</ele>
        <time>2021-03-28T10:23:03.001Z</time>
      </trkpt>
      <trkpt lat="45.08037" lon="5.45563">
        <ele>669</ele>
        <time>2021-03-28T10:23:03.930Z</time>
      </trkpt>
      <trkpt lat="45.08047" lon="5.45589">
        <ele>667</ele>
        <time>2021-03-28T10:23:06.691Z</time>
      </trkpt>
      <trkpt lat="45.08054" lon="5.45598">
        <ele>670</ele>
        <time>2021-03-28T10:23:20.409Z</time>
      </trkpt>
      <trkpt lat="45.08104" lon="5.45633">
        <ele>676</ele>
        <time>2021-03-28T10:24:19.318Z</time>
      </trkpt>
      <trkpt lat="45.08132" lon="5.45658">
        <ele>677</ele>
        <time>2021-03-28T10:24:36.533Z</time>
      </trkpt>
      <trkpt lat="45.08167" lon="5.45678">
        <ele>678</ele>
        <time>2021-03-28T10:24:55.281Z</time>
      </trkpt>
      <trkpt lat="45.08177" lon="5.45687">
        <ele>679</ele>
        <time>2021-03-28T10:25:05.342Z</time>
      </trkpt>
      <trkpt lat="45.08184" lon="5.45694">
        <ele>679</ele>
        <time>2021-03-28T10:25:08.565Z</time>
      </trkpt>
      <trkpt lat="45.0819" lon="5.45708">
        <ele>676</ele>
        <time>2021-03-28T10:25:10.092Z</time>
      </trkpt>
      <trkpt lat="45.0819" lon="5.45721">
        <ele>673</ele>
        <time>2021-03-28T10:25:11.305Z</time>
      </trkpt>
      <trkpt lat="45.08194" lon="5.45736">
        <ele>669</ele>
        <time>2021-03-28T10:25:12.800Z</time>
      </trkpt>
      <trkpt lat="45.08216" lon="5.45759">
        <ele>670</ele>
        <time>2021-03-28T10:25:28.268Z</time>
      </trkpt>
      <trkpt lat="45.08232" lon="5.45767">
        <ele>674</ele>
        <time>2021-03-28T10:25:52.887Z</time>
      </trkpt>
      <trkpt lat="45.0826" lon="5.4577">
        <ele>674</ele>
        <time>2021-03-28T10:26:03.450Z</time>
      </trkpt>
      <trkpt lat="45.08284" lon="5.45762">
        <ele>675</ele>
        <time>2021-03-28T10:26:18.207Z</time>
      </trkpt>
      <trkpt lat="45.0831" lon="5.45742">
        <ele>686</ele>
        <time>2021-03-28T10:27:01.137Z</time>
      </trkpt>
      <trkpt lat="45.08317" lon="5.45745">
        <ele>686</ele>
        <time>2021-03-28T10:27:03.888Z</time>
      </trkpt>
      <trkpt lat="45.08338" lon="5.45785">
        <ele>675</ele>
        <time>2021-03-28T10:27:08.537Z</time>
      </trkpt>
      <trkpt lat="45.08346" lon="5.45793">
        <ele>674</ele>
        <time>2021-03-28T10:27:09.831Z</time>
      </trkpt>
      <trkpt lat="45.08385" lon="5.45819">
        <ele>674</ele>
        <time>2021-03-28T10:27:26.045Z</time>
      </trkpt>
      <trkpt lat="45.08444" lon="5.45896">
        <ele>676</ele>
        <time>2021-03-28T10:28:05.155Z</time>
      </trkpt>
      <trkpt lat="45.0852" lon="5.45976">
        <ele>685</ele>
        <time>2021-03-28T10:29:33.519Z</time>
      </trkpt>
      <trkpt lat="45.0855" lon="5.46001">
        <ele>677</ele>
        <time>2021-03-28T10:29:38.117Z</time>
      </trkpt>
      <trkpt lat="45.08618" lon="5.4604">
        <ele>674</ele>
        <time>2021-03-28T10:29:49.150Z</time>
      </trkpt>
      <trkpt lat="45.08631" lon="5.46051">
        <ele>675</ele>
        <time>2021-03-28T10:30:00.280Z</time>
      </trkpt>
      <trkpt lat="45.0864" lon="5.46066">
        <ele>674</ele>
        <time>2021-03-28T10:30:02.116Z</time>
      </trkpt>
      <trkpt lat="45.08655" lon="5.46107">
        <ele>671</ele>
        <time>2021-03-28T10:30:06.422Z</time>
      </trkpt>
      <trkpt lat="45.08669" lon="5.4613">
        <ele>671</ele>
        <time>2021-03-28T10:30:14.488Z</time>
      </trkpt>
      <trkpt lat="45.08678" lon="5.46158">
        <ele>672</ele>
        <time>2021-03-28T10:30:28.413Z</time>
      </trkpt>
      <trkpt lat="45.08681" lon="5.4619">
        <ele>673</ele>
        <time>2021-03-28T10:30:42.748Z</time>
      </trkpt>
      <trkpt lat="45.08677" lon="5.46227">
        <ele>672</ele>
        <time>2021-03-28T10:30:46.840Z</time>
      </trkpt>
      <trkpt lat="45.08678" lon="5.46248">
        <ele>673</ele>
        <time>2021-03-28T10:30:57.863Z</time>
      </trkpt>
      <trkpt lat="45.08691" lon="5.46298">
        <ele>683</ele>
        <time>2021-03-28T10:31:52.447Z</time>
      </trkpt>
      <trkpt lat="45.0871" lon="5.46346">
        <ele>691</ele>
        <time>2021-03-28T10:32:48.819Z</time>
      </trkpt>
      <trkpt lat="45.08719" lon="5.46378">
        <ele>691</ele>
        <time>2021-03-28T10:32:57.967Z</time>
      </trkpt>
      <trkpt lat="45.08733" lon="5.46462">
        <ele>683</ele>
        <time>2021-03-28T10:33:06.017Z</time>
      </trkpt>
      <trkpt lat="45.08726" lon="5.46526">
        <ele>678</ele>
        <time>2021-03-28T10:33:12.056Z</time>
      </trkpt>
      <trkpt lat="45.08731" lon="5.46572">
        <ele>675</ele>
        <time>2021-03-28T10:33:16.397Z</time>
      </trkpt>
      <trkpt lat="45.08743" lon="5.46603">
        <ele>671</ele>
        <time>2021-03-28T10:33:19.694Z</time>
      </trkpt>
      <trkpt lat="45.08761" lon="5.46636">
        <ele>667</ele>
        <time>2021-03-28T10:33:23.583Z</time>
      </trkpt>
      <trkpt lat="45.08776" lon="5.46672">
        <ele>663</ele>
        <time>2021-03-28T10:33:27.481Z</time>
      </trkpt>
      <trkpt lat="45.08829" lon="5.46822">
        <ele>662</ele>
        <time>2021-03-28T10:33:53.131Z</time>
      </trkpt>
      <trkpt lat="45.08845" lon="5.46843">
        <ele>664</ele>
        <time>2021-03-28T10:34:12.871Z</time>
      </trkpt>
      <trkpt lat="45.08926" lon="5.46889">
        <ele>669</ele>
        <time>2021-03-28T10:35:13.153Z</time>
      </trkpt>
      <trkpt lat="45.08951" lon="5.46914">
        <ele>668</ele>
        <time>2021-03-28T10:35:18.141Z</time>
      </trkpt>
      <trkpt lat="45.08966" lon="5.46937">
        <ele>668</ele>
        <time>2021-03-28T10:35:26.457Z</time>
      </trkpt>
      <trkpt lat="45.08973" lon="5.46962">
        <ele>665</ele>
        <time>2021-03-28T10:35:28.965Z</time>
      </trkpt>
      <trkpt lat="45.08978" lon="5.46991">
        <ele>660</ele>
        <time>2021-03-28T10:35:31.749Z</time>
      </trkpt>
      <trkpt lat="45.08976" lon="5.47028">
        <ele>660</ele>
        <time>2021-03-28T10:35:41.604Z</time>
      </trkpt>
      <trkpt lat="45.08968" lon="5.47062">
        <ele>661</ele>
        <time>2021-03-28T10:35:56.522Z</time>
      </trkpt>
      <trkpt lat="45.08953" lon="5.47091">
        <ele>661</ele>
        <time>2021-03-28T10:36:06.070Z</time>
      </trkpt>
      <trkpt lat="45.08867" lon="5.47225">
        <ele>666</ele>
        <time>2021-03-28T10:37:21.008Z</time>
      </trkpt>
      <trkpt lat="45.08826" lon="5.47295">
        <ele>665</ele>
        <time>2021-03-28T10:37:33.690Z</time>
      </trkpt>
      <trkpt lat="45.08779" lon="5.47369">
        <ele>665</ele>
        <time>2021-03-28T10:38:00.125Z</time>
      </trkpt>
      <trkpt lat="45.08773" lon="5.47382">
        <ele>665</ele>
        <time>2021-03-28T10:38:04.250Z</time>
      </trkpt>
      <trkpt lat="45.08759" lon="5.47432">
        <ele>667</ele>
        <time>2021-03-28T10:38:29.672Z</time>
      </trkpt>
      <trkpt lat="45.08743" lon="5.47469">
        <ele>670</ele>
        <time>2021-03-28T10:38:59.047Z</time>
      </trkpt>
      <trkpt lat="45.08691" lon="5.47581">
        <ele>674</ele>
        <time>2021-03-28T10:39:57.137Z</time>
      </trkpt>
      <trkpt lat="45.08649" lon="5.47651">
        <ele>672</ele>
        <time>2021-03-28T10:40:07.911Z</time>
      </trkpt>
      <trkpt lat="45.08622" lon="5.47727">
        <ele>675</ele>
        <time>2021-03-28T10:40:47.407Z</time>
      </trkpt>
      <trkpt lat="45.08581" lon="5.47804">
        <ele>671</ele>
        <time>2021-03-28T10:40:56.173Z</time>
      </trkpt>
      <trkpt lat="45.08576" lon="5.47823">
        <ele>673</ele>
        <time>2021-03-28T10:41:16.946Z</time>
      </trkpt>
      <trkpt lat="45.08574" lon="5.47866">
        <ele>680</ele>
        <time>2021-03-28T10:42:01.092Z</time>
      </trkpt>
      <trkpt lat="45.0857" lon="5.47887">
        <ele>683</ele>
        <time>2021-03-28T10:42:23.374Z</time>
      </trkpt>
      <trkpt lat="45.08562" lon="5.47909">
        <ele>685</ele>
        <time>2021-03-28T10:42:43.271Z</time>
      </trkpt>
      <trkpt lat="45.08532" lon="5.47964">
        <ele>687</ele>
        <time>2021-03-28T10:43:12.726Z</time>
      </trkpt>
      <trkpt lat="45.08524" lon="5.47988">
        <ele>687</ele>
        <time>2021-03-28T10:43:19.775Z</time>
      </trkpt>
      <trkpt lat="45.08508" lon="5.48058">
        <ele>691</ele>
        <time>2021-03-28T10:44:01.289Z</time>
      </trkpt>
      <trkpt lat="45.08498" lon="5.48079">
        <ele>686</ele>
        <time>2021-03-28T10:44:03.651Z</time>
      </trkpt>
      <trkpt lat="45.08451" lon="5.4815">
        <ele>690</ele>
        <time>2021-03-28T10:44:51.419Z</time>
      </trkpt>
      <trkpt lat="45.0843" lon="5.48189">
        <ele>684</ele>
        <time>2021-03-28T10:44:55.994Z</time>
      </trkpt>
      <trkpt lat="45.08413" lon="5.48267">
        <ele>689</ele>
        <time>2021-03-28T10:45:45.928Z</time>
      </trkpt>
      <trkpt lat="45.08413" lon="5.48283">
        <ele>690</ele>
        <time>2021-03-28T10:45:55.868Z</time>
      </trkpt>
      <trkpt lat="45.08418" lon="5.48318">
        <ele>693</ele>
        <time>2021-03-28T10:46:26.131Z</time>
      </trkpt>
      <trkpt lat="45.08417" lon="5.48333">
        <ele>693</ele>
        <time>2021-03-28T10:46:30.132Z</time>
      </trkpt>
      <trkpt lat="45.08403" lon="5.48377">
        <ele>685</ele>
        <time>2021-03-28T10:46:34.633Z</time>
      </trkpt>
      <trkpt lat="45.08399" lon="5.48433">
        <ele>681</ele>
        <time>2021-03-28T10:46:39.883Z</time>
      </trkpt>
      <trkpt lat="45.08393" lon="5.48447">
        <ele>682</ele>
        <time>2021-03-28T10:46:49.878Z</time>
      </trkpt>
      <trkpt lat="45.08385" lon="5.48457">
        <ele>683</ele>
        <time>2021-03-28T10:46:59.714Z</time>
      </trkpt>
      <trkpt lat="45.08357" lon="5.48471">
        <ele>682</ele>
        <time>2021-03-28T10:47:04.505Z</time>
      </trkpt>
      <trkpt lat="45.08266" lon="5.48492">
        <ele>678</ele>
        <time>2021-03-28T10:47:18.053Z</time>
      </trkpt>
      <trkpt lat="45.08245" lon="5.48503">
        <ele>677</ele>
        <time>2021-03-28T10:47:21.305Z</time>
      </trkpt>
      <trkpt lat="45.08235" lon="5.48511">
        <ele>678</ele>
        <time>2021-03-28T10:47:31.282Z</time>
      </trkpt>
      <trkpt lat="45.08211" lon="5.48542">
        <ele>679</ele>
        <time>2021-03-28T10:47:48.300Z</time>
      </trkpt>
      <trkpt lat="45.08198" lon="5.48563">
        <ele>679</ele>
        <time>2021-03-28T10:47:55.718Z</time>
      </trkpt>
      <trkpt lat="45.08192" lon="5.48581">
        <ele>680</ele>
        <time>2021-03-28T10:48:06.450Z</time>
      </trkpt>
      <trkpt lat="45.08189" lon="5.48617">
        <ele>681</ele>
        <time>2021-03-28T10:48:21.444Z</time>
      </trkpt>
      <trkpt lat="45.0819" lon="5.48656">
        <ele>683</ele>
        <time>2021-03-28T10:48:42.716Z</time>
      </trkpt>
      <trkpt lat="45.08176" lon="5.4879">
        <ele>693</ele>
        <time>2021-03-28T10:50:20.623Z</time>
      </trkpt>
      <trkpt lat="45.08167" lon="5.48813">
        <ele>694</ele>
        <time>2021-03-28T10:50:33.152Z</time>
      </trkpt>
      <trkpt lat="45.08108" lon="5.48864">
        <ele>698</ele>
        <time>2021-03-28T10:51:21.089Z</time>
      </trkpt>
      <trkpt lat="45.08082" lon="5.4888">
        <ele>699</ele>
        <time>2021-03-28T10:51:36.843Z</time>
      </trkpt>
      <trkpt lat="45.0794" lon="5.48945">
        <ele>703</ele>
        <time>2021-03-28T10:52:51.247Z</time>
      </trkpt>
      <trkpt lat="45.07896" lon="5.4898">
        <ele>710</ele>
        <time>2021-03-28T10:54:04.470Z</time>
      </trkpt>
      <trkpt lat="45.0787" lon="5.48997">
        <ele>713</ele>
        <time>2021-03-28T10:54:33.846Z</time>
      </trkpt>
      <trkpt lat="45.0785" lon="5.49003">
        <ele>713</ele>
        <time>2021-03-28T10:54:41.537Z</time>
      </trkpt>
      <trkpt lat="45.07807" lon="5.48994">
        <ele>705</ele>
        <time>2021-03-28T10:54:47.278Z</time>
      </trkpt>
      <trkpt lat="45.07774" lon="5.48997">
        <ele>702</ele>
        <time>2021-03-28T10:54:51.646Z</time>
      </trkpt>
      <trkpt lat="45.07666" lon="5.49039">
        <ele>715</ele>
        <time>2021-03-28T10:57:01.553Z</time>
      </trkpt>
      <trkpt lat="45.07651" lon="5.49049">
        <ele>717</ele>
        <time>2021-03-28T10:57:21.852Z</time>
      </trkpt>
      <trkpt lat="45.07622" lon="5.49079">
        <ele>720</ele>
        <time>2021-03-28T10:57:52.126Z</time>
      </trkpt>
      <trkpt lat="45.07573" lon="5.49118">
        <ele>729</ele>
        <time>2021-03-28T10:59:13.683Z</time>
      </trkpt>
      <trkpt lat="45.07547" lon="5.49135">
        <ele>732</ele>
        <time>2021-03-28T10:59:43.059Z</time>
      </trkpt>
      <trkpt lat="45.07499" lon="5.49153">
        <ele>725</ele>
        <time>2021-03-28T10:59:49.617Z</time>
      </trkpt>
      <trkpt lat="45.07483" lon="5.49167">
        <ele>727</ele>
        <time>2021-03-28T11:00:09.227Z</time>
      </trkpt>
      <trkpt lat="45.07437" lon="5.49229">
        <ele>751</ele>
        <time>2021-03-28T11:01:41.370Z</time>
      </trkpt>
      <trkpt lat="45.07429" lon="5.49235">
        <ele>753</ele>
        <time>2021-03-28T11:01:54.505Z</time>
      </trkpt>
      <trkpt lat="45.07421" lon="5.49238">
        <ele>753</ele>
        <time>2021-03-28T11:01:57.618Z</time>
      </trkpt>
      <trkpt lat="45.07412" lon="5.49237">
        <ele>754</ele>
        <time>2021-03-28T11:02:07.485Z</time>
      </trkpt>
      <trkpt lat="45.07376" lon="5.49204">
        <ele>757</ele>
        <time>2021-03-28T11:02:39.935Z</time>
      </trkpt>
      <trkpt lat="45.07364" lon="5.4921">
        <ele>765</ele>
        <time>2021-03-28T11:02:58.400Z</time>
      </trkpt>
      <trkpt lat="45.07309" lon="5.49228">
        <ele>793</ele>
        <time>2021-03-28T11:04:20.305Z</time>
      </trkpt>
      <trkpt lat="45.07288" lon="5.49247">
        <ele>793</ele>
        <time>2021-03-28T11:04:29.680Z</time>
      </trkpt>
      <trkpt lat="45.07245" lon="5.49273">
        <ele>803</ele>
        <time>2021-03-28T11:05:37.520Z</time>
      </trkpt>
      <trkpt lat="45.07197" lon="5.49291">
        <ele>837</ele>
        <time>2021-03-28T11:06:49.566Z</time>
      </trkpt>
      <trkpt lat="45.07172" lon="5.49333">
        <ele>847</ele>
        <time>2021-03-28T11:07:45.850Z</time>
      </trkpt>
      <trkpt lat="45.0715" lon="5.49382">
        <ele>862</ele>
        <time>2021-03-28T11:08:45.348Z</time>
      </trkpt>
      <trkpt lat="45.07143" lon="5.49414">
        <ele>865</ele>
        <time>2021-03-28T11:09:16.673Z</time>
      </trkpt>
      <trkpt lat="45.07137" lon="5.49493">
        <ele>879</ele>
        <time>2021-03-28T11:10:38.090Z</time>
      </trkpt>
      <trkpt lat="45.07154" lon="5.49577">
        <ele>865</ele>
        <time>2021-03-28T11:10:46.242Z</time>
      </trkpt>
      <trkpt lat="45.07151" lon="5.49633">
        <ele>865</ele>
        <time>2021-03-28T11:11:01.162Z</time>
      </trkpt>
      <trkpt lat="45.07154" lon="5.49681">
        <ele>860</ele>
        <time>2021-03-28T11:11:05.657Z</time>
      </trkpt>
      <trkpt lat="45.07153" lon="5.49703">
        <ele>857</ele>
        <time>2021-03-28T11:11:07.713Z</time>
      </trkpt>
      <trkpt lat="45.07134" lon="5.49785">
        <ele>853</ele>
        <time>2021-03-28T11:11:15.147Z</time>
      </trkpt>
      <trkpt lat="45.07107" lon="5.49842">
        <ele>849</ele>
        <time>2021-03-28T11:11:21.550Z</time>
      </trkpt>
      <trkpt lat="45.07077" lon="5.49918">
        <ele>847</ele>
        <time>2021-03-28T11:11:31.588Z</time>
      </trkpt>
      <trkpt lat="45.0707" lon="5.49959">
        <ele>842</ele>
        <time>2021-03-28T11:11:35.523Z</time>
      </trkpt>
      <trkpt lat="45.07069" lon="5.50006">
        <ele>831</ele>
        <time>2021-03-28T11:11:39.909Z</time>
      </trkpt>
      <trkpt lat="45.07058" lon="5.50095">
        <ele>829</ele>
        <time>2021-03-28T11:11:50.454Z</time>
      </trkpt>
      <trkpt lat="45.07041" lon="5.50144">
        <ele>843</ele>
        <time>2021-03-28T11:12:46.396Z</time>
      </trkpt>
      <trkpt lat="45.07036" lon="5.50188">
        <ele>851</ele>
        <time>2021-03-28T11:13:32.063Z</time>
      </trkpt>
      <trkpt lat="45.07021" lon="5.50222">
        <ele>866</ele>
        <time>2021-03-28T11:14:13.143Z</time>
      </trkpt>
      <trkpt lat="45.0702" lon="5.50235">
        <ele>868</ele>
        <time>2021-03-28T11:14:26.543Z</time>
      </trkpt>
      <trkpt lat="45.07032" lon="5.50281">
        <ele>860</ele>
        <time>2021-03-28T11:14:31.117Z</time>
      </trkpt>
      <trkpt lat="45.07031" lon="5.5034">
        <ele>858</ele>
        <time>2021-03-28T11:14:36.993Z</time>
      </trkpt>
      <trkpt lat="45.07026" lon="5.50385">
        <ele>851</ele>
        <time>2021-03-28T11:14:41.243Z</time>
      </trkpt>
      <trkpt lat="45.07027" lon="5.50395">
        <ele>849</ele>
        <time>2021-03-28T11:14:42.185Z</time>
      </trkpt>
      <trkpt lat="45.07056" lon="5.50498">
        <ele>834</ele>
        <time>2021-03-28T11:14:52.529Z</time>
      </trkpt>
      <trkpt lat="45.07057" lon="5.50524">
        <ele>831</ele>
        <time>2021-03-28T11:14:54.958Z</time>
      </trkpt>
      <trkpt lat="45.07053" lon="5.50552">
        <ele>825</ele>
        <time>2021-03-28T11:14:57.623Z</time>
      </trkpt>
      <trkpt lat="45.07047" lon="5.50581">
        <ele>819</ele>
        <time>2021-03-28T11:15:00.442Z</time>
      </trkpt>
      <trkpt lat="45.07038" lon="5.50599">
        <ele>817</ele>
        <time>2021-03-28T11:15:02.499Z</time>
      </trkpt>
      <trkpt lat="45.07017" lon="5.50628">
        <ele>812</ele>
        <time>2021-03-28T11:15:06.374Z</time>
      </trkpt>
      <trkpt lat="45.07007" lon="5.50648">
        <ele>808</ele>
        <time>2021-03-28T11:15:08.660Z</time>
      </trkpt>
      <trkpt lat="45.06994" lon="5.50685">
        <ele>811</ele>
        <time>2021-03-28T11:15:38.008Z</time>
      </trkpt>
      <trkpt lat="45.06966" lon="5.5074">
        <ele>819</ele>
        <time>2021-03-28T11:16:47.484Z</time>
      </trkpt>
      <trkpt lat="45.06957" lon="5.50782">
        <ele>822</ele>
        <time>2021-03-28T11:17:16.885Z</time>
      </trkpt>
      <trkpt lat="45.06938" lon="5.50901">
        <ele>826</ele>
        <time>2021-03-28T11:18:12.262Z</time>
      </trkpt>
      <trkpt lat="45.06933" lon="5.5104">
        <ele>840</ele>
        <time>2021-03-28T11:20:34.883Z</time>
      </trkpt>
      <trkpt lat="45.06927" lon="5.5107">
        <ele>842</ele>
        <time>2021-03-28T11:20:54.657Z</time>
      </trkpt>
      <trkpt lat="45.06896" lon="5.51169">
        <ele>849</ele>
        <time>2021-03-28T11:22:03.766Z</time>
      </trkpt>
      <trkpt lat="45.06882" lon="5.51236">
        <ele>867</ele>
        <time>2021-03-28T11:23:15.365Z</time>
      </trkpt>
      <trkpt lat="45.06845" lon="5.51338">
        <ele>902</ele>
        <time>2021-03-28T11:25:12.869Z</time>
      </trkpt>
      <trkpt lat="45.06838" lon="5.51382">
        <ele>901</ele>
        <time>2021-03-28T11:25:18.130Z</time>
      </trkpt>
      <trkpt lat="45.06823" lon="5.51436">
        <ele>905</ele>
        <time>2021-03-28T11:25:57.305Z</time>
      </trkpt>
      <trkpt lat="45.06823" lon="5.5147">
        <ele>900</ele>
        <time>2021-03-28T11:26:00.477Z</time>
      </trkpt>
      <trkpt lat="45.06829" lon="5.51528">
        <ele>899</ele>
        <time>2021-03-28T11:26:07.869Z</time>
      </trkpt>
      <trkpt lat="45.06827" lon="5.51542">
        <ele>903</ele>
        <time>2021-03-28T11:26:22.506Z</time>
      </trkpt>
      <trkpt lat="45.06805" lon="5.5162">
        <ele>926</ele>
        <time>2021-03-28T11:27:48.574Z</time>
      </trkpt>
      <trkpt lat="45.068" lon="5.51649">
        <ele>934</ele>
        <time>2021-03-28T11:28:19.165Z</time>
      </trkpt>
      <trkpt lat="45.06802" lon="5.51663">
        <ele>937</ele>
        <time>2021-03-28T11:28:33.802Z</time>
      </trkpt>
      <trkpt lat="45.06807" lon="5.51673">
        <ele>937</ele>
        <time>2021-03-28T11:28:37.057Z</time>
      </trkpt>
      <trkpt lat="45.06833" lon="5.517">
        <ele>929</ele>
        <time>2021-03-28T11:28:41.316Z</time>
      </trkpt>
      <trkpt lat="45.06861" lon="5.51717">
        <ele>942</ele>
        <time>2021-03-28T11:29:25.520Z</time>
      </trkpt>
      <trkpt lat="45.06883" lon="5.51746">
        <ele>948</ele>
        <time>2021-03-28T11:30:09.132Z</time>
      </trkpt>
      <trkpt lat="45.06895" lon="5.51757">
        <ele>947</ele>
        <time>2021-03-28T11:30:11.021Z</time>
      </trkpt>
      <trkpt lat="45.06947" lon="5.5182">
        <ele>920</ele>
        <time>2021-03-28T11:30:20.061Z</time>
      </trkpt>
      <trkpt lat="45.06986" lon="5.51881">
        <ele>913</ele>
        <time>2021-03-28T11:30:27.737Z</time>
      </trkpt>
      <trkpt lat="45.07049" lon="5.51951">
        <ele>926</ele>
        <time>2021-03-28T11:32:23.930Z</time>
      </trkpt>
      <trkpt lat="45.07068" lon="5.51961">
        <ele>937</ele>
        <time>2021-03-28T11:32:53.340Z</time>
      </trkpt>
      <trkpt lat="45.0709" lon="5.51964">
        <ele>947</ele>
        <time>2021-03-28T11:33:25.409Z</time>
      </trkpt>
      <trkpt lat="45.07113" lon="5.51959">
        <ele>956</ele>
        <time>2021-03-28T11:33:59.171Z</time>
      </trkpt>
      <trkpt lat="45.07138" lon="5.51959">
        <ele>962</ele>
        <time>2021-03-28T11:34:35.445Z</time>
      </trkpt>
      <trkpt lat="45.07156" lon="5.51977">
        <ele>959</ele>
        <time>2021-03-28T11:34:38.356Z</time>
      </trkpt>
      <trkpt lat="45.07172" lon="5.52005">
        <ele>952</ele>
        <time>2021-03-28T11:34:41.716Z</time>
      </trkpt>
      <trkpt lat="45.07184" lon="5.52012">
        <ele>953</ele>
        <time>2021-03-28T11:34:52.091Z</time>
      </trkpt>
      <trkpt lat="45.07199" lon="5.52012">
        <ele>951</ele>
        <time>2021-03-28T11:34:54.073Z</time>
      </trkpt>
      <trkpt lat="45.07236" lon="5.52029">
        <ele>946</ele>
        <time>2021-03-28T11:34:59.211Z</time>
      </trkpt>
      <trkpt lat="45.07267" lon="5.52038">
        <ele>944</ele>
        <time>2021-03-28T11:35:03.143Z</time>
      </trkpt>
      <trkpt lat="45.07316" lon="5.52045">
        <ele>946</ele>
        <time>2021-03-28T11:35:32.642Z</time>
      </trkpt>
      <trkpt lat="45.07334" lon="5.52043">
        <ele>947</ele>
        <time>2021-03-28T11:35:44.952Z</time>
      </trkpt>
      <trkpt lat="45.07356" lon="5.52046">
        <ele>951</ele>
        <time>2021-03-28T11:36:17.021Z</time>
      </trkpt>
      <trkpt lat="45.07391" lon="5.52045">
        <ele>959</ele>
        <time>2021-03-28T11:37:07.814Z</time>
      </trkpt>
      <trkpt lat="45.07426" lon="5.5204">
        <ele>965</ele>
        <time>2021-03-28T11:37:58.855Z</time>
      </trkpt>
      <trkpt lat="45.07493" lon="5.52035">
        <ele>964</ele>
        <time>2021-03-28T11:38:12.215Z</time>
      </trkpt>
      <trkpt lat="45.07514" lon="5.52046">
        <ele>962</ele>
        <time>2021-03-28T11:38:15.173Z</time>
      </trkpt>
      <trkpt lat="45.07529" lon="5.52061">
        <ele>959</ele>
        <time>2021-03-28T11:38:17.599Z</time>
      </trkpt>
      <trkpt lat="45.07543" lon="5.52095">
        <ele>955</ele>
        <time>2021-03-28T11:38:21.270Z</time>
      </trkpt>
      <trkpt lat="45.07558" lon="5.52114">
        <ele>959</ele>
        <time>2021-03-28T11:38:50.470Z</time>
      </trkpt>
      <trkpt lat="45.07574" lon="5.52127">
        <ele>959</ele>
        <time>2021-03-28T11:38:57.409Z</time>
      </trkpt>
      <trkpt lat="45.07591" lon="5.52131">
        <ele>960</ele>
        <time>2021-03-28T11:39:09.374Z</time>
      </trkpt>
      <trkpt lat="45.07641" lon="5.52129">
        <ele>972</ele>
        <time>2021-03-28T11:40:21.950Z</time>
      </trkpt>
      <trkpt lat="45.07652" lon="5.52132">
        <ele>974</ele>
        <time>2021-03-28T11:40:38.203Z</time>
      </trkpt>
      <trkpt lat="45.07715" lon="5.52114">
        <ele>978</ele>
        <time>2021-03-28T11:41:24.162Z</time>
      </trkpt>
      <trkpt lat="45.07744" lon="5.52099">
        <ele>978</ele>
        <time>2021-03-28T11:41:35.776Z</time>
      </trkpt>
      <trkpt lat="45.07757" lon="5.52096">
        <ele>978</ele>
        <time>2021-03-28T11:41:40.730Z</time>
      </trkpt>
      <trkpt lat="45.07779" lon="5.52099">
        <ele>977</ele>
        <time>2021-03-28T11:41:43.923Z</time>
      </trkpt>
      <trkpt lat="45.07799" lon="5.5211">
        <ele>976</ele>
        <time>2021-03-28T11:41:46.985Z</time>
      </trkpt>
      <trkpt lat="45.07843" lon="5.5212">
        <ele>973</ele>
        <time>2021-03-28T11:41:52.872Z</time>
      </trkpt>
      <trkpt lat="45.07885" lon="5.52115">
        <ele>973</ele>
        <time>2021-03-28T11:42:08.726Z</time>
      </trkpt>
      <trkpt lat="45.0793" lon="5.52117">
        <ele>973</ele>
        <time>2021-03-28T11:42:25.662Z</time>
      </trkpt>
      <trkpt lat="45.07947" lon="5.52124">
        <ele>973</ele>
        <time>2021-03-28T11:42:32.322Z</time>
      </trkpt>
      <trkpt lat="45.07962" lon="5.52134">
        <ele>971</ele>
        <time>2021-03-28T11:42:34.512Z</time>
      </trkpt>
      <trkpt lat="45.08005" lon="5.52171">
        <ele>965</ele>
        <time>2021-03-28T11:42:41.158Z</time>
      </trkpt>
      <trkpt lat="45.08013" lon="5.52174">
        <ele>965</ele>
        <time>2021-03-28T11:42:44.271Z</time>
      </trkpt>
      <trkpt lat="45.08069" lon="5.5214">
        <ele>968</ele>
        <time>2021-03-28T11:43:24.148Z</time>
      </trkpt>
      <trkpt lat="45.08139" lon="5.5211">
        <ele>970</ele>
        <time>2021-03-28T11:44:00.854Z</time>
      </trkpt>
      <trkpt lat="45.08151" lon="5.52106">
        <ele>970</ele>
        <time>2021-03-28T11:44:05.491Z</time>
      </trkpt>
      <trkpt lat="45.08173" lon="5.52115">
        <ele>968</ele>
        <time>2021-03-28T11:44:08.516Z</time>
      </trkpt>
      <trkpt lat="45.08199" lon="5.52112">
        <ele>966</ele>
        <time>2021-03-28T11:44:11.962Z</time>
      </trkpt>
      <trkpt lat="45.08212" lon="5.52104">
        <ele>965</ele>
        <time>2021-03-28T11:44:13.834Z</time>
      </trkpt>
      <trkpt lat="45.0822" lon="5.52094">
        <ele>965</ele>
        <time>2021-03-28T11:44:17.848Z</time>
      </trkpt>
      <trkpt lat="45.08229" lon="5.52076">
        <ele>965</ele>
        <time>2021-03-28T11:44:23.706Z</time>
      </trkpt>
      <trkpt lat="45.08238" lon="5.52046">
        <ele>969</ele>
        <time>2021-03-28T11:44:57.100Z</time>
      </trkpt>
      <trkpt lat="45.0825" lon="5.52027">
        <ele>971</ele>
        <time>2021-03-28T11:45:16.846Z</time>
      </trkpt>
      <trkpt lat="45.08266" lon="5.52018">
        <ele>971</ele>
        <time>2021-03-28T11:45:23.322Z</time>
      </trkpt>
      <trkpt lat="45.08314" lon="5.52001">
        <ele>965</ele>
        <time>2021-03-28T11:45:29.858Z</time>
      </trkpt>
      <trkpt lat="45.08342" lon="5.52001">
        <ele>961</ele>
        <time>2021-03-28T11:45:33.557Z</time>
      </trkpt>
      <trkpt lat="45.08407" lon="5.52026">
        <ele>956</ele>
        <time>2021-03-28T11:45:42.454Z</time>
      </trkpt>
      <trkpt lat="45.08439" lon="5.52024">
        <ele>957</ele>
        <time>2021-03-28T11:45:59.328Z</time>
      </trkpt>
      <trkpt lat="45.08451" lon="5.52026">
        <ele>956</ele>
        <time>2021-03-28T11:46:00.924Z</time>
      </trkpt>
      <trkpt lat="45.08459" lon="5.52032">
        <ele>955</ele>
        <time>2021-03-28T11:46:02.120Z</time>
      </trkpt>
      <trkpt lat="45.08512" lon="5.52116">
        <ele>941</ele>
        <time>2021-03-28T11:46:12.627Z</time>
      </trkpt>
      <trkpt lat="45.08529" lon="5.52147">
        <ele>939</ele>
        <time>2021-03-28T11:46:16.287Z</time>
      </trkpt>
      <trkpt lat="45.08544" lon="5.52183">
        <ele>937</ele>
        <time>2021-03-28T11:46:20.186Z</time>
      </trkpt>
      <trkpt lat="45.08588" lon="5.52236">
        <ele>934</ele>
        <time>2021-03-28T11:46:28.054Z</time>
      </trkpt>
      <trkpt lat="45.08602" lon="5.52272">
        <ele>934</ele>
        <time>2021-03-28T11:46:38.970Z</time>
      </trkpt>
      <trkpt lat="45.08603" lon="5.52284">
        <ele>934</ele>
        <time>2021-03-28T11:46:42.179Z</time>
      </trkpt>
      <trkpt lat="45.08579" lon="5.52398">
        <ele>933</ele>
        <time>2021-03-28T11:46:59.554Z</time>
      </trkpt>
      <trkpt lat="45.08577" lon="5.52422">
        <ele>933</ele>
        <time>2021-03-28T11:47:05.973Z</time>
      </trkpt>
      <trkpt lat="45.08565" lon="5.52449">
        <ele>934</ele>
        <time>2021-03-28T11:47:20.253Z</time>
      </trkpt>
      <trkpt lat="45.08492" lon="5.5273">
        <ele>944</ele>
        <time>2021-03-28T11:49:36.891Z</time>
      </trkpt>
      <trkpt lat="45.08466" lon="5.52852">
        <ele>952</ele>
        <time>2021-03-28T11:50:56.326Z</time>
      </trkpt>
      <trkpt lat="45.08455" lon="5.52944">
        <ele>958</ele>
        <time>2021-03-28T11:51:55.615Z</time>
      </trkpt>
      <trkpt lat="45.08446" lon="5.52995">
        <ele>961</ele>
        <time>2021-03-28T11:52:26.208Z</time>
      </trkpt>
      <trkpt lat="45.08434" lon="5.53031">
        <ele>962</ele>
        <time>2021-03-28T11:52:41.893Z</time>
      </trkpt>
      <trkpt lat="45.08397" lon="5.53085">
        <ele>960</ele>
        <time>2021-03-28T11:52:50.135Z</time>
      </trkpt>
      <trkpt lat="45.0834" lon="5.53147">
        <ele>959</ele>
        <time>2021-03-28T11:53:04.626Z</time>
      </trkpt>
      <trkpt lat="45.0822" lon="5.53254">
        <ele>949</ele>
        <time>2021-03-28T11:53:23.357Z</time>
      </trkpt>
      <trkpt lat="45.08185" lon="5.53281">
        <ele>951</ele>
        <time>2021-03-28T11:53:49.603Z</time>
      </trkpt>
      <trkpt lat="45.08113" lon="5.53318">
        <ele>950</ele>
        <time>2021-03-28T11:54:05.216Z</time>
      </trkpt>
      <trkpt lat="45.08031" lon="5.5337">
        <ele>953</ele>
        <time>2021-03-28T11:54:53.904Z</time>
      </trkpt>
      <trkpt lat="45.07959" lon="5.5342">
        <ele>951</ele>
        <time>2021-03-28T11:55:08.097Z</time>
      </trkpt>
      <trkpt lat="45.07932" lon="5.53448">
        <ele>953</ele>
        <time>2021-03-28T11:55:31.613Z</time>
      </trkpt>
      <trkpt lat="45.07882" lon="5.53521">
        <ele>959</ele>
        <time>2021-03-28T11:56:32.158Z</time>
      </trkpt>
      <trkpt lat="45.07839" lon="5.53591">
        <ele>957</ele>
        <time>2021-03-28T11:56:43.076Z</time>
      </trkpt>
      <trkpt lat="45.07808" lon="5.53654">
        <ele>964</ele>
        <time>2021-03-28T11:57:57.110Z</time>
      </trkpt>
      <trkpt lat="45.07795" lon="5.53673">
        <ele>965</ele>
        <time>2021-03-28T11:58:09.689Z</time>
      </trkpt>
      <trkpt lat="45.07787" lon="5.5368">
        <ele>965</ele>
        <time>2021-03-28T11:58:13.226Z</time>
      </trkpt>
      <trkpt lat="45.07771" lon="5.53688">
        <ele>964</ele>
        <time>2021-03-28T11:58:15.407Z</time>
      </trkpt>
      <trkpt lat="45.07663" lon="5.53697">
        <ele>957</ele>
        <time>2021-03-28T11:58:28.697Z</time>
      </trkpt>
      <trkpt lat="45.07644" lon="5.53705">
        <ele>960</ele>
        <time>2021-03-28T11:58:57.457Z</time>
      </trkpt>
      <trkpt lat="45.07635" lon="5.53712">
        <ele>960</ele>
        <time>2021-03-28T11:59:01.320Z</time>
      </trkpt>
      <trkpt lat="45.07624" lon="5.5373">
        <ele>960</ele>
        <time>2021-03-28T11:59:07.643Z</time>
      </trkpt>
      <trkpt lat="45.07601" lon="5.53806">
        <ele>955</ele>
        <time>2021-03-28T11:59:15.356Z</time>
      </trkpt>
      <trkpt lat="45.07594" lon="5.53822">
        <ele>953</ele>
        <time>2021-03-28T11:59:17.112Z</time>
      </trkpt>
      <trkpt lat="45.07587" lon="5.5383">
        <ele>951</ele>
        <time>2021-03-28T11:59:18.300Z</time>
      </trkpt>
      <trkpt lat="45.07457" lon="5.53929">
        <ele>952</ele>
        <time>2021-03-28T12:00:17.498Z</time>
      </trkpt>
      <trkpt lat="45.0733" lon="5.54022">
        <ele>952</ele>
        <time>2021-03-28T12:01:11.282Z</time>
      </trkpt>
      <trkpt lat="45.07323" lon="5.54034">
        <ele>955</ele>
        <time>2021-03-28T12:01:27.230Z</time>
      </trkpt>
      <trkpt lat="45.07322" lon="5.54047">
        <ele>956</ele>
        <time>2021-03-28T12:01:37.057Z</time>
      </trkpt>
      <trkpt lat="45.07324" lon="5.54058">
        <ele>956</ele>
        <time>2021-03-28T12:01:40.075Z</time>
      </trkpt>
      <trkpt lat="45.07331" lon="5.54066">
        <ele>954</ele>
        <time>2021-03-28T12:01:41.263Z</time>
      </trkpt>
      <trkpt lat="45.0734" lon="5.54071">
        <ele>955</ele>
        <time>2021-03-28T12:01:51.048Z</time>
      </trkpt>
      <trkpt lat="45.07376" lon="5.5408">
        <ele>963</ele>
        <time>2021-03-28T12:02:44.090Z</time>
      </trkpt>
      <trkpt lat="45.07386" lon="5.54086">
        <ele>965</ele>
        <time>2021-03-28T12:02:59.848Z</time>
      </trkpt>
      <trkpt lat="45.07393" lon="5.54093">
        <ele>967</ele>
        <time>2021-03-28T12:03:12.282Z</time>
      </trkpt>
      <trkpt lat="45.07403" lon="5.54115">
        <ele>968</ele>
        <time>2021-03-28T12:03:24.772Z</time>
      </trkpt>
      <trkpt lat="45.07405" lon="5.54128">
        <ele>967</ele>
        <time>2021-03-28T12:03:26.013Z</time>
      </trkpt>
      <trkpt lat="45.07405" lon="5.54146">
        <ele>966</ele>
        <time>2021-03-28T12:03:27.692Z</time>
      </trkpt>
      <trkpt lat="45.07401" lon="5.54167">
        <ele>965</ele>
        <time>2021-03-28T12:03:29.573Z</time>
      </trkpt>
      <trkpt lat="45.07387" lon="5.54209">
        <ele>967</ele>
        <time>2021-03-28T12:03:52.818Z</time>
      </trkpt>
      <trkpt lat="45.07374" lon="5.54274">
        <ele>973</ele>
        <time>2021-03-28T12:04:55.133Z</time>
      </trkpt>
      <trkpt lat="45.07357" lon="5.54319">
        <ele>973</ele>
        <time>2021-03-28T12:05:08.690Z</time>
      </trkpt>
      <trkpt lat="45.07346" lon="5.54337">
        <ele>969</ele>
        <time>2021-03-28T12:05:10.910Z</time>
      </trkpt>
      <trkpt lat="45.07316" lon="5.54369">
        <ele>974</ele>
        <time>2021-03-28T12:06:05.163Z</time>
      </trkpt>
      <trkpt lat="45.0731" lon="5.54383">
        <ele>978</ele>
        <time>2021-03-28T12:06:21.943Z</time>
      </trkpt>
      <trkpt lat="45.07309" lon="5.54394">
        <ele>980</ele>
        <time>2021-03-28T12:06:33.307Z</time>
      </trkpt>
      <trkpt lat="45.07309" lon="5.54405">
        <ele>982</ele>
        <time>2021-03-28T12:06:44.579Z</time>
      </trkpt>
      <trkpt lat="45.07312" lon="5.54414">
        <ele>983</ele>
        <time>2021-03-28T12:06:54.776Z</time>
      </trkpt>
      <trkpt lat="45.07326" lon="5.54442">
        <ele>979</ele>
        <time>2021-03-28T12:06:57.976Z</time>
      </trkpt>
      <trkpt lat="45.07369" lon="5.54502">
        <ele>987</ele>
        <time>2021-03-28T12:08:24.425Z</time>
      </trkpt>
      <trkpt lat="45.07378" lon="5.54525">
        <ele>985</ele>
        <time>2021-03-28T12:08:26.877Z</time>
      </trkpt>
      <trkpt lat="45.07392" lon="5.54589">
        <ele>976</ele>
        <time>2021-03-28T12:08:33.127Z</time>
      </trkpt>
      <trkpt lat="45.07393" lon="5.54603">
        <ele>974</ele>
        <time>2021-03-28T12:08:34.440Z</time>
      </trkpt>
      <trkpt lat="45.07384" lon="5.54645">
        <ele>967</ele>
        <time>2021-03-28T12:08:38.534Z</time>
      </trkpt>
      <trkpt lat="45.07365" lon="5.54673">
        <ele>964</ele>
        <time>2021-03-28T12:08:42.157Z</time>
      </trkpt>
      <trkpt lat="45.07359" lon="5.54672">
        <ele>964</ele>
        <time>2021-03-28T12:08:44.429Z</time>
      </trkpt>
      <trkpt lat="45.07352" lon="5.54676">
        <ele>964</ele>
        <time>2021-03-28T12:08:47.269Z</time>
      </trkpt>
      <trkpt lat="45.07347" lon="5.54685">
        <ele>964</ele>
        <time>2021-03-28T12:08:50.311Z</time>
      </trkpt>
      <trkpt lat="45.07346" lon="5.54693">
        <ele>964</ele>
        <time>2021-03-28T12:08:52.469Z</time>
      </trkpt>
      <trkpt lat="45.07351" lon="5.54708">
        <ele>965</ele>
        <time>2021-03-28T12:09:02.498Z</time>
      </trkpt>
      <trkpt lat="45.07356" lon="5.54712">
        <ele>965</ele>
        <time>2021-03-28T12:09:04.658Z</time>
      </trkpt>
      <trkpt lat="45.07361" lon="5.54745">
        <ele>966</ele>
        <time>2021-03-28T12:09:19.220Z</time>
      </trkpt>
      <trkpt lat="45.07382" lon="5.54815">
        <ele>970</ele>
        <time>2021-03-28T12:10:01.295Z</time>
      </trkpt>
      <trkpt lat="45.0739" lon="5.54831">
        <ele>971</ele>
        <time>2021-03-28T12:10:11.954Z</time>
      </trkpt>
      <trkpt lat="45.07405" lon="5.54851">
        <ele>971</ele>
        <time>2021-03-28T12:10:19.704Z</time>
      </trkpt>
      <trkpt lat="45.07487" lon="5.54948">
        <ele>973</ele>
        <time>2021-03-28T12:11:08.214Z</time>
      </trkpt>
      <trkpt lat="45.07535" lon="5.5499">
        <ele>974</ele>
        <time>2021-03-28T12:11:33.552Z</time>
      </trkpt>
      <trkpt lat="45.0758" lon="5.55022">
        <ele>975</ele>
        <time>2021-03-28T12:11:56.706Z</time>
      </trkpt>
      <trkpt lat="45.07649" lon="5.55065">
        <ele>976</ele>
        <time>2021-03-28T12:12:28.986Z</time>
      </trkpt>
      <trkpt lat="45.07678" lon="5.55095">
        <ele>977</ele>
        <time>2021-03-28T12:12:47.121Z</time>
      </trkpt>
      <trkpt lat="45.07711" lon="5.55141">
        <ele>979</ele>
        <time>2021-03-28T12:13:15.942Z</time>
      </trkpt>
      <trkpt lat="45.0773" lon="5.55172">
        <ele>979</ele>
        <time>2021-03-28T12:13:26.846Z</time>
      </trkpt>
      <trkpt lat="45.07765" lon="5.55237">
        <ele>976</ele>
        <time>2021-03-28T12:13:34.706Z</time>
      </trkpt>
      <trkpt lat="45.078" lon="5.5531">
        <ele>978</ele>
        <time>2021-03-28T12:14:07.905Z</time>
      </trkpt>
      <trkpt lat="45.0781" lon="5.55323">
        <ele>978</ele>
        <time>2021-03-28T12:14:13.012Z</time>
      </trkpt>
      <trkpt lat="45.07829" lon="5.55336">
        <ele>977</ele>
        <time>2021-03-28T12:14:16.002Z</time>
      </trkpt>
      <trkpt lat="45.07842" lon="5.5534">
        <ele>977</ele>
        <time>2021-03-28T12:14:21.006Z</time>
      </trkpt>
      <trkpt lat="45.07886" lon="5.55339">
        <ele>981</ele>
        <time>2021-03-28T12:15:00.547Z</time>
      </trkpt>
      <trkpt lat="45.0791" lon="5.55342">
        <ele>983</ele>
        <time>2021-03-28T12:15:20.768Z</time>
      </trkpt>
      <trkpt lat="45.07913" lon="5.55355">
        <ele>984</ele>
        <time>2021-03-28T12:15:30.553Z</time>
      </trkpt>
      <trkpt lat="45.07922" lon="5.5536">
        <ele>985</ele>
        <time>2021-03-28T12:15:40.338Z</time>
      </trkpt>
      <trkpt lat="45.07931" lon="5.55354">
        <ele>985</ele>
        <time>2021-03-28T12:15:44.080Z</time>
      </trkpt>
      <trkpt lat="45.07934" lon="5.55345">
        <ele>985</ele>
        <time>2021-03-28T12:15:46.724Z</time>
      </trkpt>
      <trkpt lat="45.07932" lon="5.55336">
        <ele>984</ele>
        <time>2021-03-28T12:15:47.604Z</time>
      </trkpt>
      <trkpt lat="45.07973" lon="5.55313">
        <ele>986</ele>
        <time>2021-03-28T12:16:15.753Z</time>
      </trkpt>
      <trkpt lat="45.08002" lon="5.55308">
        <ele>987</ele>
        <time>2021-03-28T12:16:31.762Z</time>
      </trkpt>
      <trkpt lat="45.08025" lon="5.55311">
        <ele>986</ele>
        <time>2021-03-28T12:16:35.159Z</time>
      </trkpt>
      <trkpt lat="45.08046" lon="5.55321">
        <ele>986</ele>
        <time>2021-03-28T12:16:43.493Z</time>
      </trkpt>
      <trkpt lat="45.08111" lon="5.5537">
        <ele>986</ele>
        <time>2021-03-28T12:17:11.192Z</time>
      </trkpt>
      <trkpt lat="45.08149" lon="5.55395">
        <ele>986</ele>
        <time>2021-03-28T12:17:26.953Z</time>
      </trkpt>
      <trkpt lat="45.08162" lon="5.55399">
        <ele>986</ele>
        <time>2021-03-28T12:17:31.958Z</time>
      </trkpt>
      <trkpt lat="45.08174" lon="5.554">
        <ele>985</ele>
        <time>2021-03-28T12:17:33.546Z</time>
      </trkpt>
      <trkpt lat="45.08359" lon="5.55378">
        <ele>981</ele>
        <time>2021-03-28T12:18:07.688Z</time>
      </trkpt>
      <trkpt lat="45.08386" lon="5.55379">
        <ele>980</ele>
        <time>2021-03-28T12:18:11.903Z</time>
      </trkpt>
      <trkpt lat="45.08553" lon="5.55423">
        <ele>977</ele>
        <time>2021-03-28T12:18:44.605Z</time>
      </trkpt>
      <trkpt lat="45.08942" lon="5.55537">
        <ele>977</ele>
        <time>2021-03-28T12:21:14.034Z</time>
      </trkpt>
      <trkpt lat="45.08994" lon="5.55561">
        <ele>977</ele>
        <time>2021-03-28T12:21:34.608Z</time>
      </trkpt>
      <trkpt lat="45.08998" lon="5.55564">
        <ele>977</ele>
        <time>2021-03-28T12:21:36.310Z</time>
      </trkpt>
      <trkpt lat="45.09001" lon="5.55574">
        <ele>977</ele>
        <time>2021-03-28T12:21:39.196Z</time>
      </trkpt>
      <trkpt lat="45.0901" lon="5.55582">
        <ele>977</ele>
        <time>2021-03-28T12:21:43.193Z</time>
      </trkpt>
      <trkpt lat="45.0902" lon="5.55582">
        <ele>977</ele>
        <time>2021-03-28T12:21:46.954Z</time>
      </trkpt>
      <trkpt lat="45.09029" lon="5.55573">
        <ele>977</ele>
        <time>2021-03-28T12:21:51.099Z</time>
      </trkpt>
      <trkpt lat="45.09082" lon="5.55579">
        <ele>976</ele>
        <time>2021-03-28T12:22:01.195Z</time>
      </trkpt>
      <trkpt lat="45.0953" lon="5.55679">
        <ele>983</ele>
        <time>2021-03-28T12:25:19.889Z</time>
      </trkpt>
      <trkpt lat="45.09627" lon="5.55706">
        <ele>986</ele>
        <time>2021-03-28T12:26:11.392Z</time>
      </trkpt>
      <trkpt lat="45.09724" lon="5.55738">
        <ele>987</ele>
        <time>2021-03-28T12:26:52.651Z</time>
      </trkpt>
      <trkpt lat="45.09762" lon="5.55747">
        <ele>988</ele>
        <time>2021-03-28T12:27:11.664Z</time>
      </trkpt>
      <trkpt lat="45.09789" lon="5.55758">
        <ele>989</ele>
        <time>2021-03-28T12:27:27.345Z</time>
      </trkpt>
      <trkpt lat="45.09898" lon="5.55824">
        <ele>984</ele>
        <time>2021-03-28T12:27:44.958Z</time>
      </trkpt>
      <trkpt lat="45.09936" lon="5.5585">
        <ele>986</ele>
        <time>2021-03-28T12:28:12.249Z</time>
      </trkpt>
      <trkpt lat="45.10041" lon="5.55984">
        <ele>988</ele>
        <time>2021-03-28T12:29:13.328Z</time>
      </trkpt>
      <trkpt lat="45.10073" lon="5.56014">
        <ele>989</ele>
        <time>2021-03-28T12:29:32.288Z</time>
      </trkpt>
      <trkpt lat="45.10207" lon="5.56107">
        <ele>991</ele>
        <time>2021-03-28T12:30:36.274Z</time>
      </trkpt>
      <trkpt lat="45.10264" lon="5.56141">
        <ele>990</ele>
        <time>2021-03-28T12:30:48.399Z</time>
      </trkpt>
      <trkpt lat="45.10301" lon="5.56162">
        <ele>989</ele>
        <time>2021-03-28T12:30:55.441Z</time>
      </trkpt>
      <trkpt lat="45.10465" lon="5.5624">
        <ele>988</ele>
        <time>2021-03-28T12:31:55.222Z</time>
      </trkpt>
      <trkpt lat="45.10652" lon="5.56347">
        <ele>989</ele>
        <time>2021-03-28T12:33:14.695Z</time>
      </trkpt>
      <trkpt lat="45.10683" lon="5.56367">
        <ele>989</ele>
        <time>2021-03-28T12:33:27.508Z</time>
      </trkpt>
      <trkpt lat="45.10943" lon="5.56569">
        <ele>994</ele>
        <time>2021-03-28T12:35:39.426Z</time>
      </trkpt>
      <trkpt lat="45.10986" lon="5.56608">
        <ele>994</ele>
        <time>2021-03-28T12:35:58.631Z</time>
      </trkpt>
      <trkpt lat="45.11095" lon="5.56715">
        <ele>993</ele>
        <time>2021-03-28T12:36:27.708Z</time>
      </trkpt>
      <trkpt lat="45.11126" lon="5.56757">
        <ele>991</ele>
        <time>2021-03-28T12:36:33.827Z</time>
      </trkpt>
      <trkpt lat="45.11285" lon="5.57042">
        <ele>999</ele>
        <time>2021-03-28T12:38:48.868Z</time>
      </trkpt>
      <trkpt lat="45.11299" lon="5.57079">
        <ele>1001</ele>
        <time>2021-03-28T12:39:10.881Z</time>
      </trkpt>
      <trkpt lat="45.11335" lon="5.57208">
        <ele>1001</ele>
        <time>2021-03-28T12:39:47.706Z</time>
      </trkpt>
      <trkpt lat="45.11362" lon="5.57247">
        <ele>1001</ele>
        <time>2021-03-28T12:40:02.209Z</time>
      </trkpt>
      <trkpt lat="45.1138" lon="5.57262">
        <ele>1002</ele>
        <time>2021-03-28T12:40:15.757Z</time>
      </trkpt>
      <trkpt lat="45.114" lon="5.57273">
        <ele>1002</ele>
        <time>2021-03-28T12:40:23.827Z</time>
      </trkpt>
      <trkpt lat="45.11419" lon="5.57277">
        <ele>1003</ele>
        <time>2021-03-28T12:40:36.635Z</time>
      </trkpt>
      <trkpt lat="45.11439" lon="5.57277">
        <ele>1003</ele>
        <time>2021-03-28T12:40:44.158Z</time>
      </trkpt>
      <trkpt lat="45.11574" lon="5.57246">
        <ele>1007</ele>
        <time>2021-03-28T12:41:54.429Z</time>
      </trkpt>
      <trkpt lat="45.116" lon="5.57233">
        <ele>1008</ele>
        <time>2021-03-28T12:42:09.961Z</time>
      </trkpt>
      <trkpt lat="45.11652" lon="5.57197">
        <ele>1011</ele>
        <time>2021-03-28T12:42:48.491Z</time>
      </trkpt>
      <trkpt lat="45.1168" lon="5.57185">
        <ele>1013</ele>
        <time>2021-03-28T12:43:10.365Z</time>
      </trkpt>
      <trkpt lat="45.11705" lon="5.5718">
        <ele>1013</ele>
        <time>2021-03-28T12:43:19.862Z</time>
      </trkpt>
      <trkpt lat="45.11735" lon="5.57181">
        <ele>1014</ele>
        <time>2021-03-28T12:43:36.110Z</time>
      </trkpt>
      <trkpt lat="45.11807" lon="5.57193">
        <ele>1013</ele>
        <time>2021-03-28T12:43:50.749Z</time>
      </trkpt>
      <trkpt lat="45.12027" lon="5.57255">
        <ele>1015</ele>
        <time>2021-03-28T12:45:22.631Z</time>
      </trkpt>
      <trkpt lat="45.12064" lon="5.57277">
        <ele>1013</ele>
        <time>2021-03-28T12:45:28.196Z</time>
      </trkpt>
      <trkpt lat="45.12092" lon="5.57302">
        <ele>1010</ele>
        <time>2021-03-28T12:45:32.568Z</time>
      </trkpt>
      <trkpt lat="45.12181" lon="5.57416">
        <ele>999</ele>
        <time>2021-03-28T12:45:48.414Z</time>
      </trkpt>
      <trkpt lat="45.12422" lon="5.57604">
        <ele>1002</ele>
        <time>2021-03-28T12:47:43.380Z</time>
      </trkpt>
      <trkpt lat="45.12499" lon="5.57667">
        <ele>1002</ele>
        <time>2021-03-28T12:48:16.825Z</time>
      </trkpt>
      <trkpt lat="45.1254" lon="5.57707">
        <ele>1002</ele>
        <time>2021-03-28T12:48:35.549Z</time>
      </trkpt>
      <trkpt lat="45.12589" lon="5.57747">
        <ele>1002</ele>
        <time>2021-03-28T12:48:56.820Z</time>
      </trkpt>
      <trkpt lat="45.12613" lon="5.57764">
        <ele>1002</ele>
        <time>2021-03-28T12:49:06.912Z</time>
      </trkpt>
      <trkpt lat="45.12636" lon="5.57772">
        <ele>1002</ele>
        <time>2021-03-28T12:49:15.821Z</time>
      </trkpt>
      <trkpt lat="45.13003" lon="5.5806">
        <ele>1006</ele>
        <time>2021-03-28T12:52:08.723Z</time>
      </trkpt>
      <trkpt lat="45.13017" lon="5.58074">
        <ele>1006</ele>
        <time>2021-03-28T12:52:15.168Z</time>
      </trkpt>
      <trkpt lat="45.13042" lon="5.58088">
        <ele>1006</ele>
        <time>2021-03-28T12:52:25.280Z</time>
      </trkpt>
      <trkpt lat="45.13047" lon="5.58095">
        <ele>1006</ele>
        <time>2021-03-28T12:52:27.924Z</time>
      </trkpt>
      <trkpt lat="45.1305" lon="5.58105">
        <ele>1006</ele>
        <time>2021-03-28T12:52:30.807Z</time>
      </trkpt>
      <trkpt lat="45.13052" lon="5.58141">
        <ele>1005</ele>
        <time>2021-03-28T12:52:34.699Z</time>
      </trkpt>
      <trkpt lat="45.13057" lon="5.5815">
        <ele>1004</ele>
        <time>2021-03-28T12:52:35.767Z</time>
      </trkpt>
      <trkpt lat="45.13075" lon="5.58163">
        <ele>1003</ele>
        <time>2021-03-28T12:52:38.577Z</time>
      </trkpt>
      <trkpt lat="45.13079" lon="5.58177">
        <ele>1003</ele>
        <time>2021-03-28T12:52:42.585Z</time>
      </trkpt>
      <trkpt lat="45.13071" lon="5.58197">
        <ele>1004</ele>
        <time>2021-03-28T12:52:54.136Z</time>
      </trkpt>
      <trkpt lat="45.13032" lon="5.5822">
        <ele>1005</ele>
        <time>2021-03-28T12:53:14.425Z</time>
      </trkpt>
      <trkpt lat="45.1302" lon="5.58233">
        <ele>1006</ele>
        <time>2021-03-28T12:53:25.540Z</time>
      </trkpt>
      <trkpt lat="45.13012" lon="5.58247">
        <ele>1006</ele>
        <time>2021-03-28T12:53:30.321Z</time>
      </trkpt>
      <trkpt lat="45.12993" lon="5.58295">
        <ele>1007</ele>
        <time>2021-03-28T12:53:49.437Z</time>
      </trkpt>
      <trkpt lat="45.12821" lon="5.58874">
        <ele>1017</ele>
        <time>2021-03-28T12:57:19.597Z</time>
      </trkpt>
      <trkpt lat="45.12806" lon="5.58991">
        <ele>1019</ele>
        <time>2021-03-28T12:57:59.974Z</time>
      </trkpt>
      <trkpt lat="45.12767" lon="5.59159">
        <ele>1021</ele>
        <time>2021-03-28T12:58:54.989Z</time>
      </trkpt>
      <trkpt lat="45.12735" lon="5.59281">
        <ele>1024</ele>
        <time>2021-03-28T12:59:44.284Z</time>
      </trkpt>
      <trkpt lat="45.12675" lon="5.59484">
        <ele>1027</ele>
        <time>2021-03-28T13:00:55.256Z</time>
      </trkpt>
      <trkpt lat="45.12647" lon="5.59549">
        <ele>1030</ele>
        <time>2021-03-28T13:01:32.003Z</time>
      </trkpt>
      <trkpt lat="45.12641" lon="5.59568">
        <ele>1030</ele>
        <time>2021-03-28T13:01:37.528Z</time>
      </trkpt>
      <trkpt lat="45.12624" lon="5.59761">
        <ele>1038</ele>
        <time>2021-03-28T13:03:12.979Z</time>
      </trkpt>
      <trkpt lat="45.12626" lon="5.59793">
        <ele>1040</ele>
        <time>2021-03-28T13:03:32.871Z</time>
      </trkpt>
      <trkpt lat="45.1263" lon="5.59813">
        <ele>1041</ele>
        <time>2021-03-28T13:03:43.823Z</time>
      </trkpt>
      <trkpt lat="45.12636" lon="5.5983">
        <ele>1041</ele>
        <time>2021-03-28T13:03:48.868Z</time>
      </trkpt>
      <trkpt lat="45.1265" lon="5.59855">
        <ele>1041</ele>
        <time>2021-03-28T13:03:57.339Z</time>
      </trkpt>
      <trkpt lat="45.1267" lon="5.59872">
        <ele>1039</ele>
        <time>2021-03-28T13:04:00.420Z</time>
      </trkpt>
      <trkpt lat="45.12728" lon="5.59909">
        <ele>1038</ele>
        <time>2021-03-28T13:04:12.958Z</time>
      </trkpt>
      <trkpt lat="45.12785" lon="5.59939">
        <ele>1043</ele>
        <time>2021-03-28T13:05:03.659Z</time>
      </trkpt>
      <trkpt lat="45.12811" lon="5.59943">
        <ele>1046</ele>
        <time>2021-03-28T13:05:33.523Z</time>
      </trkpt>
      <trkpt lat="45.12874" lon="5.59917">
        <ele>1047</ele>
        <time>2021-03-28T13:06:02.211Z</time>
      </trkpt>
      <trkpt lat="45.129" lon="5.59913">
        <ele>1048</ele>
        <time>2021-03-28T13:06:17.351Z</time>
      </trkpt>
      <trkpt lat="45.12919" lon="5.59914">
        <ele>1048</ele>
        <time>2021-03-28T13:06:24.504Z</time>
      </trkpt>
      <trkpt lat="45.12944" lon="5.59922">
        <ele>1048</ele>
        <time>2021-03-28T13:06:34.145Z</time>
      </trkpt>
      <trkpt lat="45.12997" lon="5.59957">
        <ele>1047</ele>
        <time>2021-03-28T13:06:45.477Z</time>
      </trkpt>
      <trkpt lat="45.13008" lon="5.59969">
        <ele>1047</ele>
        <time>2021-03-28T13:06:50.699Z</time>
      </trkpt>
      <trkpt lat="45.1302" lon="5.5999">
        <ele>1048</ele>
        <time>2021-03-28T13:07:03.444Z</time>
      </trkpt>
      <trkpt lat="45.13027" lon="5.60013">
        <ele>1050</ele>
        <time>2021-03-28T13:07:23.277Z</time>
      </trkpt>
      <trkpt lat="45.13036" lon="5.60062">
        <ele>1057</ele>
        <time>2021-03-28T13:08:15.107Z</time>
      </trkpt>
      <trkpt lat="45.1305" lon="5.60088">
        <ele>1060</ele>
        <time>2021-03-28T13:08:47.009Z</time>
      </trkpt>
      <trkpt lat="45.1306" lon="5.60099">
        <ele>1061</ele>
        <time>2021-03-28T13:08:57.288Z</time>
      </trkpt>
      <trkpt lat="45.13071" lon="5.60105">
        <ele>1061</ele>
        <time>2021-03-28T13:09:01.722Z</time>
      </trkpt>
      <trkpt lat="45.13081" lon="5.60106">
        <ele>1060</ele>
        <time>2021-03-28T13:09:03.046Z</time>
      </trkpt>
      <trkpt lat="45.13103" lon="5.60097">
        <ele>1057</ele>
        <time>2021-03-28T13:09:06.071Z</time>
      </trkpt>
      <trkpt lat="45.13113" lon="5.60096">
        <ele>1056</ele>
        <time>2021-03-28T13:09:07.395Z</time>
      </trkpt>
      <trkpt lat="45.13122" lon="5.60098">
        <ele>1055</ele>
        <time>2021-03-28T13:09:08.598Z</time>
      </trkpt>
      <trkpt lat="45.13132" lon="5.60104">
        <ele>1055</ele>
        <time>2021-03-28T13:09:12.683Z</time>
      </trkpt>
      <trkpt lat="45.13138" lon="5.6011">
        <ele>1056</ele>
        <time>2021-03-28T13:09:23.337Z</time>
      </trkpt>
      <trkpt lat="45.13168" lon="5.60159">
        <ele>1062</ele>
        <time>2021-03-28T13:10:27.569Z</time>
      </trkpt>
      <trkpt lat="45.13177" lon="5.60166">
        <ele>1062</ele>
        <time>2021-03-28T13:10:31.431Z</time>
      </trkpt>
      <trkpt lat="45.13217" lon="5.60187">
        <ele>1062</ele>
        <time>2021-03-28T13:10:47.477Z</time>
      </trkpt>
      <trkpt lat="45.13232" lon="5.60206">
        <ele>1062</ele>
        <time>2021-03-28T13:10:55.044Z</time>
      </trkpt>
      <trkpt lat="45.13294" lon="5.60319">
        <ele>1070</ele>
        <time>2021-03-28T13:12:17.196Z</time>
      </trkpt>
      <trkpt lat="45.13338" lon="5.60379">
        <ele>1068</ele>
        <time>2021-03-28T13:12:27.140Z</time>
      </trkpt>
      <trkpt lat="45.13343" lon="5.60393">
        <ele>1068</ele>
        <time>2021-03-28T13:12:31.305Z</time>
      </trkpt>
      <trkpt lat="45.13351" lon="5.60439">
        <ele>1072</ele>
        <time>2021-03-28T13:13:11.757Z</time>
      </trkpt>
      <trkpt lat="45.13365" lon="5.60467">
        <ele>1075</ele>
        <time>2021-03-28T13:13:42.635Z</time>
      </trkpt>
      <trkpt lat="45.13385" lon="5.6048">
        <ele>1076</ele>
        <time>2021-03-28T13:13:56.688Z</time>
      </trkpt>
      <trkpt lat="45.13411" lon="5.6049">
        <ele>1076</ele>
        <time>2021-03-28T13:14:06.822Z</time>
      </trkpt>
      <trkpt lat="45.13434" lon="5.60502">
        <ele>1077</ele>
        <time>2021-03-28T13:14:21.544Z</time>
      </trkpt>
      <trkpt lat="45.13509" lon="5.60555">
        <ele>1088</ele>
        <time>2021-03-28T13:16:19.433Z</time>
      </trkpt>
      <trkpt lat="45.13524" lon="5.60558">
        <ele>1090</ele>
        <time>2021-03-28T13:16:40.975Z</time>
      </trkpt>
      <trkpt lat="45.13537" lon="5.60556">
        <ele>1090</ele>
        <time>2021-03-28T13:16:45.893Z</time>
      </trkpt>
      <trkpt lat="45.13571" lon="5.60541">
        <ele>1088</ele>
        <time>2021-03-28T13:16:50.575Z</time>
      </trkpt>
      <trkpt lat="45.1359" lon="5.60536">
        <ele>1088</ele>
        <time>2021-03-28T13:16:57.844Z</time>
      </trkpt>
      <trkpt lat="45.13605" lon="5.60536">
        <ele>1090</ele>
        <time>2021-03-28T13:17:19.577Z</time>
      </trkpt>
      <trkpt lat="45.13638" lon="5.60541">
        <ele>1096</ele>
        <time>2021-03-28T13:18:07.731Z</time>
      </trkpt>
      <trkpt lat="45.13653" lon="5.60531">
        <ele>1096</ele>
        <time>2021-03-28T13:18:13.966Z</time>
      </trkpt>
      <trkpt lat="45.13681" lon="5.60489">
        <ele>1089</ele>
        <time>2021-03-28T13:18:19.351Z</time>
      </trkpt>
      <trkpt lat="45.13716" lon="5.6045">
        <ele>1086</ele>
        <time>2021-03-28T13:18:25.231Z</time>
      </trkpt>
      <trkpt lat="45.13744" lon="5.60433">
        <ele>1087</ele>
        <time>2021-03-28T13:18:41.616Z</time>
      </trkpt>
      <trkpt lat="45.13758" lon="5.60431">
        <ele>1088</ele>
        <time>2021-03-28T13:18:52.354Z</time>
      </trkpt>
      <trkpt lat="45.13779" lon="5.60435">
        <ele>1089</ele>
        <time>2021-03-28T13:19:06.039Z</time>
      </trkpt>
      <trkpt lat="45.13791" lon="5.60442">
        <ele>1091</ele>
        <time>2021-03-28T13:19:24.867Z</time>
      </trkpt>
      <trkpt lat="45.13849" lon="5.60517">
        <ele>1104</ele>
        <time>2021-03-28T13:21:18.772Z</time>
      </trkpt>
      <trkpt lat="45.13899" lon="5.60588">
        <ele>1109</ele>
        <time>2021-03-28T13:22:12.605Z</time>
      </trkpt>
      <trkpt lat="45.13908" lon="5.60595">
        <ele>1110</ele>
        <time>2021-03-28T13:22:22.400Z</time>
      </trkpt>
      <trkpt lat="45.1393" lon="5.606">
        <ele>1109</ele>
        <time>2021-03-28T13:22:25.630Z</time>
      </trkpt>
      <trkpt lat="45.13946" lon="5.60594">
        <ele>1105</ele>
        <time>2021-03-28T13:22:27.816Z</time>
      </trkpt>
      <trkpt lat="45.13976" lon="5.6057">
        <ele>1095</ele>
        <time>2021-03-28T13:22:32.366Z</time>
      </trkpt>
      <trkpt lat="45.13996" lon="5.60563">
        <ele>1091</ele>
        <time>2021-03-28T13:22:35.087Z</time>
      </trkpt>
      <trkpt lat="45.14018" lon="5.60564">
        <ele>1091</ele>
        <time>2021-03-28T13:22:43.367Z</time>
      </trkpt>
      <trkpt lat="45.1404" lon="5.60569">
        <ele>1093</ele>
        <time>2021-03-28T13:23:03.186Z</time>
      </trkpt>
      <trkpt lat="45.14066" lon="5.6058">
        <ele>1095</ele>
        <time>2021-03-28T13:23:24.315Z</time>
      </trkpt>
      <trkpt lat="45.14117" lon="5.60607">
        <ele>1098</ele>
        <time>2021-03-28T13:24:01.363Z</time>
      </trkpt>
      <trkpt lat="45.14127" lon="5.60619">
        <ele>1099</ele>
        <time>2021-03-28T13:24:11.777Z</time>
      </trkpt>
      <trkpt lat="45.14141" lon="5.60648">
        <ele>1101</ele>
        <time>2021-03-28T13:24:32.184Z</time>
      </trkpt>
      <trkpt lat="45.14153" lon="5.60698">
        <ele>1111</ele>
        <time>2021-03-28T13:25:26.237Z</time>
      </trkpt>
      <trkpt lat="45.1416" lon="5.60712">
        <ele>1113</ele>
        <time>2021-03-28T13:25:43.799Z</time>
      </trkpt>
      <trkpt lat="45.14169" lon="5.60723">
        <ele>1113</ele>
        <time>2021-03-28T13:25:48.269Z</time>
      </trkpt>
      <trkpt lat="45.14182" lon="5.60732">
        <ele>1116</ele>
        <time>2021-03-28T13:26:09.260Z</time>
      </trkpt>
      <trkpt lat="45.14195" lon="5.60734">
        <ele>1116</ele>
        <time>2021-03-28T13:26:14.179Z</time>
      </trkpt>
      <trkpt lat="45.14344" lon="5.60712">
        <ele>1114</ele>
        <time>2021-03-28T13:26:44.601Z</time>
      </trkpt>
      <trkpt lat="45.14366" lon="5.60711">
        <ele>1113</ele>
        <time>2021-03-28T13:26:47.775Z</time>
      </trkpt>
      <trkpt lat="45.1438" lon="5.60715">
        <ele>1114</ele>
        <time>2021-03-28T13:26:58.587Z</time>
      </trkpt>
      <trkpt lat="45.14419" lon="5.60736">
        <ele>1117</ele>
        <time>2021-03-28T13:27:30.627Z</time>
      </trkpt>
      <trkpt lat="45.14449" lon="5.60749">
        <ele>1115</ele>
        <time>2021-03-28T13:27:34.509Z</time>
      </trkpt>
      <trkpt lat="45.14488" lon="5.60758">
        <ele>1110</ele>
        <time>2021-03-28T13:27:39.729Z</time>
      </trkpt>
      <trkpt lat="45.14499" lon="5.60765">
        <ele>1109</ele>
        <time>2021-03-28T13:27:41.321Z</time>
      </trkpt>
      <trkpt lat="45.14506" lon="5.60775">
        <ele>1110</ele>
        <time>2021-03-28T13:27:51.102Z</time>
      </trkpt>
      <trkpt lat="45.14509" lon="5.60805">
        <ele>1111</ele>
        <time>2021-03-28T13:28:04.870Z</time>
      </trkpt>
      <trkpt lat="45.14504" lon="5.60817">
        <ele>1112</ele>
        <time>2021-03-28T13:28:14.651Z</time>
      </trkpt>
      <trkpt lat="45.14494" lon="5.6083">
        <ele>1114</ele>
        <time>2021-03-28T13:28:34.336Z</time>
      </trkpt>
      <trkpt lat="45.14437" lon="5.60879">
        <ele>1120</ele>
        <time>2021-03-28T13:29:33.759Z</time>
      </trkpt>
      <trkpt lat="45.14361" lon="5.60932">
        <ele>1132</ele>
        <time>2021-03-28T13:31:36.648Z</time>
      </trkpt>
      <trkpt lat="45.14351" lon="5.60943">
        <ele>1133</ele>
        <time>2021-03-28T13:31:46.927Z</time>
      </trkpt>
      <trkpt lat="45.14342" lon="5.60958">
        <ele>1134</ele>
        <time>2021-03-28T13:31:57.601Z</time>
      </trkpt>
      <trkpt lat="45.14337" lon="5.60983">
        <ele>1131</ele>
        <time>2021-03-28T13:32:00.022Z</time>
      </trkpt>
      <trkpt lat="45.14338" lon="5.61007">
        <ele>1130</ele>
        <time>2021-03-28T13:32:02.202Z</time>
      </trkpt>
      <trkpt lat="45.14345" lon="5.6103">
        <ele>1134</ele>
        <time>2021-03-28T13:32:27.837Z</time>
      </trkpt>
      <trkpt lat="45.14359" lon="5.61049">
        <ele>1134</ele>
        <time>2021-03-28T13:32:35.128Z</time>
      </trkpt>
      <trkpt lat="45.14368" lon="5.61056">
        <ele>1132</ele>
        <time>2021-03-28T13:32:36.484Z</time>
      </trkpt>
      <trkpt lat="45.1442" lon="5.61079">
        <ele>1120</ele>
        <time>2021-03-28T13:32:43.679Z</time>
      </trkpt>
      <trkpt lat="45.14434" lon="5.61088">
        <ele>1119</ele>
        <time>2021-03-28T13:32:45.562Z</time>
      </trkpt>
      <trkpt lat="45.14449" lon="5.61111">
        <ele>1117</ele>
        <time>2021-03-28T13:32:48.481Z</time>
      </trkpt>
      <trkpt lat="45.14452" lon="5.6112">
        <ele>1116</ele>
        <time>2021-03-28T13:32:49.408Z</time>
      </trkpt>
      <trkpt lat="45.14455" lon="5.61137">
        <ele>1116</ele>
        <time>2021-03-28T13:32:54.058Z</time>
      </trkpt>
      <trkpt lat="45.14454" lon="5.61158">
        <ele>1118</ele>
        <time>2021-03-28T13:33:15.597Z</time>
      </trkpt>
      <trkpt lat="45.14445" lon="5.61185">
        <ele>1119</ele>
        <time>2021-03-28T13:33:29.226Z</time>
      </trkpt>
      <trkpt lat="45.14387" lon="5.61266">
        <ele>1128</ele>
        <time>2021-03-28T13:34:57.990Z</time>
      </trkpt>
      <trkpt lat="45.14335" lon="5.61359">
        <ele>1132</ele>
        <time>2021-03-28T13:35:52.261Z</time>
      </trkpt>
      <trkpt lat="45.14286" lon="5.6148">
        <ele>1130</ele>
        <time>2021-03-28T13:36:10.618Z</time>
      </trkpt>
      <trkpt lat="45.14247" lon="5.61588">
        <ele>1130</ele>
        <time>2021-03-28T13:36:42.811Z</time>
      </trkpt>
      <trkpt lat="45.1424" lon="5.61614">
        <ele>1133</ele>
        <time>2021-03-28T13:37:11.292Z</time>
      </trkpt>
      <trkpt lat="45.14237" lon="5.61636">
        <ele>1133</ele>
        <time>2021-03-28T13:37:17.237Z</time>
      </trkpt>
      <trkpt lat="45.14242" lon="5.61674">
        <ele>1130</ele>
        <time>2021-03-28T13:37:20.839Z</time>
      </trkpt>
      <trkpt lat="45.14252" lon="5.61701">
        <ele>1131</ele>
        <time>2021-03-28T13:37:34.669Z</time>
      </trkpt>
      <trkpt lat="45.14262" lon="5.61719">
        <ele>1131</ele>
        <time>2021-03-28T13:37:40.749Z</time>
      </trkpt>
      <trkpt lat="45.14308" lon="5.61774">
        <ele>1125</ele>
        <time>2021-03-28T13:37:48.697Z</time>
      </trkpt>
      <trkpt lat="45.14319" lon="5.61799">
        <ele>1124</ele>
        <time>2021-03-28T13:37:51.624Z</time>
      </trkpt>
      <trkpt lat="45.14329" lon="5.61832">
        <ele>1124</ele>
        <time>2021-03-28T13:38:01.153Z</time>
      </trkpt>
      <trkpt lat="45.14347" lon="5.6191">
        <ele>1123</ele>
        <time>2021-03-28T13:38:12.349Z</time>
      </trkpt>
      <trkpt lat="45.14355" lon="5.61966">
        <ele>1126</ele>
        <time>2021-03-28T13:38:43.912Z</time>
      </trkpt>
      <trkpt lat="45.14365" lon="5.61997">
        <ele>1126</ele>
        <time>2021-03-28T13:38:52.956Z</time>
      </trkpt>
      <trkpt lat="45.14382" lon="5.62026">
        <ele>1125</ele>
        <time>2021-03-28T13:38:57.084Z</time>
      </trkpt>
      <trkpt lat="45.14405" lon="5.62055">
        <ele>1123</ele>
        <time>2021-03-28T13:39:00.857Z</time>
      </trkpt>
      <trkpt lat="45.14493" lon="5.62127">
        <ele>1123</ele>
        <time>2021-03-28T13:39:39.076Z</time>
      </trkpt>
      <trkpt lat="45.14515" lon="5.62139">
        <ele>1125</ele>
        <time>2021-03-28T13:39:59.168Z</time>
      </trkpt>
      <trkpt lat="45.14689" lon="5.62178">
        <ele>1123</ele>
        <time>2021-03-28T13:40:35.874Z</time>
      </trkpt>
      <trkpt lat="45.14735" lon="5.62191">
        <ele>1125</ele>
        <time>2021-03-28T13:41:04.826Z</time>
      </trkpt>
      <trkpt lat="45.14756" lon="5.62194">
        <ele>1125</ele>
        <time>2021-03-28T13:41:12.766Z</time>
      </trkpt>
      <trkpt lat="45.14769" lon="5.62191">
        <ele>1126</ele>
        <time>2021-03-28T13:41:23.202Z</time>
      </trkpt>
      <trkpt lat="45.14811" lon="5.62171">
        <ele>1121</ele>
        <time>2021-03-28T13:41:29.054Z</time>
      </trkpt>
      <trkpt lat="45.14843" lon="5.62165">
        <ele>1121</ele>
        <time>2021-03-28T13:41:41.196Z</time>
      </trkpt>
      <trkpt lat="45.14917" lon="5.62163">
        <ele>1129</ele>
        <time>2021-03-28T13:42:59.793Z</time>
      </trkpt>
      <trkpt lat="45.14936" lon="5.62158">
        <ele>1130</ele>
        <time>2021-03-28T13:43:12.651Z</time>
      </trkpt>
      <trkpt lat="45.15118" lon="5.62066">
        <ele>1122</ele>
        <time>2021-03-28T13:43:41.570Z</time>
      </trkpt>
      <trkpt lat="45.1525" lon="5.62033">
        <ele>1132</ele>
        <time>2021-03-28T13:45:26.679Z</time>
      </trkpt>
      <trkpt lat="45.15274" lon="5.62033">
        <ele>1130</ele>
        <time>2021-03-28T13:45:29.849Z</time>
      </trkpt>
      <trkpt lat="45.1534" lon="5.62043">
        <ele>1129</ele>
        <time>2021-03-28T13:45:43.041Z</time>
      </trkpt>
      <trkpt lat="45.15402" lon="5.62041">
        <ele>1132</ele>
        <time>2021-03-28T13:46:23.402Z</time>
      </trkpt>
      <trkpt lat="45.15454" lon="5.62058">
        <ele>1137</ele>
        <time>2021-03-28T13:47:12.583Z</time>
      </trkpt>
      <trkpt lat="45.15481" lon="5.62057">
        <ele>1137</ele>
        <time>2021-03-28T13:47:22.743Z</time>
      </trkpt>
      <trkpt lat="45.15501" lon="5.62044">
        <ele>1136</ele>
        <time>2021-03-28T13:47:25.915Z</time>
      </trkpt>
      <trkpt lat="45.15512" lon="5.62031">
        <ele>1137</ele>
        <time>2021-03-28T13:47:36.741Z</time>
      </trkpt>
      <trkpt lat="45.15559" lon="5.61947">
        <ele>1135</ele>
        <time>2021-03-28T13:47:49.904Z</time>
      </trkpt>
      <trkpt lat="45.15572" lon="5.61929">
        <ele>1135</ele>
        <time>2021-03-28T13:47:56.738Z</time>
      </trkpt>
      <trkpt lat="45.1559" lon="5.61918">
        <ele>1134</ele>
        <time>2021-03-28T13:47:59.429Z</time>
      </trkpt>
      <trkpt lat="45.15609" lon="5.61915">
        <ele>1135</ele>
        <time>2021-03-28T13:48:12.197Z</time>
      </trkpt>
      <trkpt lat="45.15646" lon="5.61918">
        <ele>1136</ele>
        <time>2021-03-28T13:48:30.715Z</time>
      </trkpt>
      <trkpt lat="45.1575" lon="5.61953">
        <ele>1148</ele>
        <time>2021-03-28T13:50:29.471Z</time>
      </trkpt>
      <trkpt lat="45.15788" lon="5.61979">
        <ele>1160</ele>
        <time>2021-03-28T13:51:30.689Z</time>
      </trkpt>
      <trkpt lat="45.15796" lon="5.61981">
        <ele>1161</ele>
        <time>2021-03-28T13:51:40.944Z</time>
      </trkpt>
      <trkpt lat="45.15809" lon="5.6198">
        <ele>1162</ele>
        <time>2021-03-28T13:51:51.332Z</time>
      </trkpt>
      <trkpt lat="45.15817" lon="5.61974">
        <ele>1162</ele>
        <time>2021-03-28T13:51:54.736Z</time>
      </trkpt>
      <trkpt lat="45.15825" lon="5.61963">
        <ele>1160</ele>
        <time>2021-03-28T13:51:56.208Z</time>
      </trkpt>
      <trkpt lat="45.15867" lon="5.61856">
        <ele>1150</ele>
        <time>2021-03-28T13:52:07.615Z</time>
      </trkpt>
      <trkpt lat="45.15886" lon="5.61834">
        <ele>1149</ele>
        <time>2021-03-28T13:52:11.308Z</time>
      </trkpt>
      <trkpt lat="45.15901" lon="5.61826">
        <ele>1152</ele>
        <time>2021-03-28T13:52:34.560Z</time>
      </trkpt>
      <trkpt lat="45.15954" lon="5.61811">
        <ele>1154</ele>
        <time>2021-03-28T13:53:05.315Z</time>
      </trkpt>
      <trkpt lat="45.16006" lon="5.61788">
        <ele>1154</ele>
        <time>2021-03-28T13:53:25.805Z</time>
      </trkpt>
      <trkpt lat="45.1602" lon="5.61784">
        <ele>1154</ele>
        <time>2021-03-28T13:53:31.177Z</time>
      </trkpt>
      <trkpt lat="45.16042" lon="5.61785">
        <ele>1154</ele>
        <time>2021-03-28T13:53:39.457Z</time>
      </trkpt>
      <trkpt lat="45.16049" lon="5.61789">
        <ele>1155</ele>
        <time>2021-03-28T13:53:50.262Z</time>
      </trkpt>
      <trkpt lat="45.16064" lon="5.6181">
        <ele>1157</ele>
        <time>2021-03-28T13:54:09.903Z</time>
      </trkpt>
      <trkpt lat="45.16067" lon="5.61839">
        <ele>1160</ele>
        <time>2021-03-28T13:54:39.890Z</time>
      </trkpt>
      <trkpt lat="45.16061" lon="5.61861">
        <ele>1161</ele>
        <time>2021-03-28T13:54:51.607Z</time>
      </trkpt>
      <trkpt lat="45.16035" lon="5.61907">
        <ele>1166</ele>
        <time>2021-03-28T13:55:42.287Z</time>
      </trkpt>
      <trkpt lat="45.16028" lon="5.61945">
        <ele>1169</ele>
        <time>2021-03-28T13:56:11.770Z</time>
      </trkpt>
      <trkpt lat="45.1603" lon="5.61963">
        <ele>1169</ele>
        <time>2021-03-28T13:56:16.603Z</time>
      </trkpt>
      <trkpt lat="45.16037" lon="5.61985">
        <ele>1169</ele>
        <time>2021-03-28T13:56:23.005Z</time>
      </trkpt>
      <trkpt lat="45.16082" lon="5.62066">
        <ele>1165</ele>
        <time>2021-03-28T13:56:32.657Z</time>
      </trkpt>
      <trkpt lat="45.1609" lon="5.62089">
        <ele>1166</ele>
        <time>2021-03-28T13:56:44.979Z</time>
      </trkpt>
      <trkpt lat="45.16096" lon="5.62108">
        <ele>1167</ele>
        <time>2021-03-28T13:56:55.936Z</time>
      </trkpt>
      <trkpt lat="45.16102" lon="5.62173">
        <ele>1172</ele>
        <time>2021-03-28T13:57:45.064Z</time>
      </trkpt>
      <trkpt lat="45.16109" lon="5.62191">
        <ele>1173</ele>
        <time>2021-03-28T13:57:55.953Z</time>
      </trkpt>
      <trkpt lat="45.16152" lon="5.62256">
        <ele>1168</ele>
        <time>2021-03-28T13:58:04.254Z</time>
      </trkpt>
      <trkpt lat="45.16161" lon="5.62286">
        <ele>1168</ele>
        <time>2021-03-28T13:58:12.902Z</time>
      </trkpt>
      <trkpt lat="45.16177" lon="5.62362">
        <ele>1171</ele>
        <time>2021-03-28T13:58:50.586Z</time>
      </trkpt>
      <trkpt lat="45.16253" lon="5.6252">
        <ele>1161</ele>
        <time>2021-03-28T13:59:08.400Z</time>
      </trkpt>
      <trkpt lat="45.16269" lon="5.62543">
        <ele>1161</ele>
        <time>2021-03-28T13:59:16.970Z</time>
      </trkpt>
      <trkpt lat="45.16285" lon="5.62554">
        <ele>1162</ele>
        <time>2021-03-28T13:59:29.164Z</time>
      </trkpt>
      <trkpt lat="45.16331" lon="5.62572">
        <ele>1162</ele>
        <time>2021-03-28T13:59:47.114Z</time>
      </trkpt>
      <trkpt lat="45.16352" lon="5.62586">
        <ele>1163</ele>
        <time>2021-03-28T14:00:01.536Z</time>
      </trkpt>
      <trkpt lat="45.16366" lon="5.626">
        <ele>1162</ele>
        <time>2021-03-28T14:00:03.748Z</time>
      </trkpt>
      <trkpt lat="45.1641" lon="5.62657">
        <ele>1162</ele>
        <time>2021-03-28T14:00:26.165Z</time>
      </trkpt>
      <trkpt lat="45.16427" lon="5.62674">
        <ele>1163</ele>
        <time>2021-03-28T14:00:39.676Z</time>
      </trkpt>
      <trkpt lat="45.16452" lon="5.62691">
        <ele>1167</ele>
        <time>2021-03-28T14:01:19.903Z</time>
      </trkpt>
      <trkpt lat="45.1647" lon="5.62695">
        <ele>1169</ele>
        <time>2021-03-28T14:01:39.602Z</time>
      </trkpt>
      <trkpt lat="45.16488" lon="5.62688">
        <ele>1170</ele>
        <time>2021-03-28T14:01:52.173Z</time>
      </trkpt>
      <trkpt lat="45.16506" lon="5.62671">
        <ele>1170</ele>
        <time>2021-03-28T14:02:00.308Z</time>
      </trkpt>
      <trkpt lat="45.16553" lon="5.62613">
        <ele>1178</ele>
        <time>2021-03-28T14:03:24.583Z</time>
      </trkpt>
      <trkpt lat="45.16577" lon="5.62576">
        <ele>1179</ele>
        <time>2021-03-28T14:03:42.564Z</time>
      </trkpt>
      <trkpt lat="45.16592" lon="5.62528">
        <ele>1173</ele>
        <time>2021-03-28T14:03:47.453Z</time>
      </trkpt>
      <trkpt lat="45.16605" lon="5.62463">
        <ele>1163</ele>
        <time>2021-03-28T14:03:53.746Z</time>
      </trkpt>
      <trkpt lat="45.16622" lon="5.62442">
        <ele>1163</ele>
        <time>2021-03-28T14:04:02.226Z</time>
      </trkpt>
      <trkpt lat="45.16644" lon="5.62431">
        <ele>1164</ele>
        <time>2021-03-28T14:04:16.674Z</time>
      </trkpt>
      <trkpt lat="45.16651" lon="5.6243">
        <ele>1165</ele>
        <time>2021-03-28T14:04:26.882Z</time>
      </trkpt>
      <trkpt lat="45.16664" lon="5.62433">
        <ele>1168</ele>
        <time>2021-03-28T14:04:45.992Z</time>
      </trkpt>
      <trkpt lat="45.1668" lon="5.62447">
        <ele>1170</ele>
        <time>2021-03-28T14:05:05.603Z</time>
      </trkpt>
      <trkpt lat="45.16707" lon="5.62492">
        <ele>1178</ele>
        <time>2021-03-28T14:06:06.050Z</time>
      </trkpt>
      <trkpt lat="45.16713" lon="5.62498">
        <ele>1179</ele>
        <time>2021-03-28T14:06:16.702Z</time>
      </trkpt>
      <trkpt lat="45.16726" lon="5.62503">
        <ele>1180</ele>
        <time>2021-03-28T14:06:27.234Z</time>
      </trkpt>
      <trkpt lat="45.16741" lon="5.62504">
        <ele>1180</ele>
        <time>2021-03-28T14:06:32.883Z</time>
      </trkpt>
      <trkpt lat="45.16808" lon="5.62489">
        <ele>1175</ele>
        <time>2021-03-28T14:06:41.843Z</time>
      </trkpt>
      <trkpt lat="45.16827" lon="5.62479">
        <ele>1173</ele>
        <time>2021-03-28T14:06:44.520Z</time>
      </trkpt>
      <trkpt lat="45.16847" lon="5.62461">
        <ele>1168</ele>
        <time>2021-03-28T14:06:47.648Z</time>
      </trkpt>
      <trkpt lat="45.16863" lon="5.62451">
        <ele>1166</ele>
        <time>2021-03-28T14:06:49.958Z</time>
      </trkpt>
      <trkpt lat="45.16879" lon="5.6245">
        <ele>1166</ele>
        <time>2021-03-28T14:06:55.982Z</time>
      </trkpt>
      <trkpt lat="45.16896" lon="5.62458">
        <ele>1168</ele>
        <time>2021-03-28T14:07:15.750Z</time>
      </trkpt>
      <trkpt lat="45.16906" lon="5.62466">
        <ele>1168</ele>
        <time>2021-03-28T14:07:20.069Z</time>
      </trkpt>
      <trkpt lat="45.1692" lon="5.62494">
        <ele>1170</ele>
        <time>2021-03-28T14:07:40.318Z</time>
      </trkpt>
      <trkpt lat="45.16924" lon="5.62516">
        <ele>1172</ele>
        <time>2021-03-28T14:08:00.996Z</time>
      </trkpt>
      <trkpt lat="45.16918" lon="5.62615">
        <ele>1181</ele>
        <time>2021-03-28T14:09:35.839Z</time>
      </trkpt>
      <trkpt lat="45.16919" lon="5.62637">
        <ele>1182</ele>
        <time>2021-03-28T14:09:47.122Z</time>
      </trkpt>
      <trkpt lat="45.16926" lon="5.62655">
        <ele>1181</ele>
        <time>2021-03-28T14:09:49.037Z</time>
      </trkpt>
      <trkpt lat="45.16949" lon="5.62679">
        <ele>1177</ele>
        <time>2021-03-28T14:09:52.809Z</time>
      </trkpt>
      <trkpt lat="45.17015" lon="5.62717">
        <ele>1169</ele>
        <time>2021-03-28T14:10:02.217Z</time>
      </trkpt>
      <trkpt lat="45.17027" lon="5.62726">
        <ele>1170</ele>
        <time>2021-03-28T14:10:12.785Z</time>
      </trkpt>
      <trkpt lat="45.17049" lon="5.62757">
        <ele>1171</ele>
        <time>2021-03-28T14:10:29.340Z</time>
      </trkpt>
      <trkpt lat="45.17055" lon="5.62779">
        <ele>1170</ele>
        <time>2021-03-28T14:10:31.457Z</time>
      </trkpt>
      <trkpt lat="45.17058" lon="5.6282">
        <ele>1169</ele>
        <time>2021-03-28T14:10:36.112Z</time>
      </trkpt>
      <trkpt lat="45.17062" lon="5.62914">
        <ele>1166</ele>
        <time>2021-03-28T14:10:45.708Z</time>
      </trkpt>
      <trkpt lat="45.17061" lon="5.62945">
        <ele>1165</ele>
        <time>2021-03-28T14:10:48.855Z</time>
      </trkpt>
      <trkpt lat="45.17057" lon="5.62966">
        <ele>1165</ele>
        <time>2021-03-28T14:10:54.624Z</time>
      </trkpt>
      <trkpt lat="45.17059" lon="5.6298">
        <ele>1164</ele>
        <time>2021-03-28T14:10:55.954Z</time>
      </trkpt>
      <trkpt lat="45.17116" lon="5.63073">
        <ele>1162</ele>
        <time>2021-03-28T14:11:11.664Z</time>
      </trkpt>
      <trkpt lat="45.17123" lon="5.63073">
        <ele>1162</ele>
        <time>2021-03-28T14:11:14.298Z</time>
      </trkpt>
      <trkpt lat="45.17141" lon="5.63062">
        <ele>1161</ele>
        <time>2021-03-28T14:11:16.988Z</time>
      </trkpt>
      <trkpt lat="45.1719" lon="5.63048">
        <ele>1157</ele>
        <time>2021-03-28T14:11:23.591Z</time>
      </trkpt>
      <trkpt lat="45.17201" lon="5.63049">
        <ele>1156</ele>
        <time>2021-03-28T14:11:25.047Z</time>
      </trkpt>
      <trkpt lat="45.17214" lon="5.63054">
        <ele>1154</ele>
        <time>2021-03-28T14:11:26.826Z</time>
      </trkpt>
      <trkpt lat="45.17227" lon="5.63066">
        <ele>1152</ele>
        <time>2021-03-28T14:11:28.875Z</time>
      </trkpt>
      <trkpt lat="45.17235" lon="5.6308">
        <ele>1151</ele>
        <time>2021-03-28T14:11:30.553Z</time>
      </trkpt>
      <trkpt lat="45.17242" lon="5.63116">
        <ele>1151</ele>
        <time>2021-03-28T14:11:40.456Z</time>
      </trkpt>
      <trkpt lat="45.17247" lon="5.6316">
        <ele>1152</ele>
        <time>2021-03-28T14:11:57.139Z</time>
      </trkpt>
      <trkpt lat="45.17248" lon="5.63203">
        <ele>1154</ele>
        <time>2021-03-28T14:12:19.415Z</time>
      </trkpt>
      <trkpt lat="45.17236" lon="5.63347">
        <ele>1156</ele>
        <time>2021-03-28T14:13:06.264Z</time>
      </trkpt>
      <trkpt lat="45.17249" lon="5.63437">
        <ele>1149</ele>
        <time>2021-03-28T14:13:14.820Z</time>
      </trkpt>
      <trkpt lat="45.17249" lon="5.63451">
        <ele>1148</ele>
        <time>2021-03-28T14:13:16.123Z</time>
      </trkpt>
      <trkpt lat="45.17243" lon="5.63485">
        <ele>1146</ele>
        <time>2021-03-28T14:13:19.387Z</time>
      </trkpt>
      <trkpt lat="45.17215" lon="5.63582">
        <ele>1137</ele>
        <time>2021-03-28T14:13:29.148Z</time>
      </trkpt>
      <trkpt lat="45.17206" lon="5.63606">
        <ele>1133</ele>
        <time>2021-03-28T14:13:31.679Z</time>
      </trkpt>
      <trkpt lat="45.17183" lon="5.63641">
        <ele>1127</ele>
        <time>2021-03-28T14:13:36.135Z</time>
      </trkpt>
      <trkpt lat="45.17164" lon="5.63655">
        <ele>1125</ele>
        <time>2021-03-28T14:13:38.963Z</time>
      </trkpt>
      <trkpt lat="45.1709" lon="5.6368">
        <ele>1120</ele>
        <time>2021-03-28T14:13:48.234Z</time>
      </trkpt>
      <trkpt lat="45.1708" lon="5.63687">
        <ele>1120</ele>
        <time>2021-03-28T14:13:52.429Z</time>
      </trkpt>
      <trkpt lat="45.17071" lon="5.63697">
        <ele>1120</ele>
        <time>2021-03-28T14:13:56.729Z</time>
      </trkpt>
      <trkpt lat="45.17038" lon="5.63759">
        <ele>1116</ele>
        <time>2021-03-28T14:14:03.964Z</time>
      </trkpt>
      <trkpt lat="45.16987" lon="5.63831">
        <ele>1110</ele>
        <time>2021-03-28T14:14:13.469Z</time>
      </trkpt>
      <trkpt lat="45.16956" lon="5.63862">
        <ele>1106</ele>
        <time>2021-03-28T14:14:18.479Z</time>
      </trkpt>
      <trkpt lat="45.16927" lon="5.63885">
        <ele>1104</ele>
        <time>2021-03-28T14:14:22.707Z</time>
      </trkpt>
      <trkpt lat="45.16895" lon="5.63905">
        <ele>1103</ele>
        <time>2021-03-28T14:14:28.654Z</time>
      </trkpt>
      <trkpt lat="45.16886" lon="5.63909">
        <ele>1103</ele>
        <time>2021-03-28T14:14:32.202Z</time>
      </trkpt>
      <trkpt lat="45.16856" lon="5.63905">
        <ele>1107</ele>
        <time>2021-03-28T14:15:15.493Z</time>
      </trkpt>
      <trkpt lat="45.16848" lon="5.63907">
        <ele>1108</ele>
        <time>2021-03-28T14:15:25.748Z</time>
      </trkpt>
      <trkpt lat="45.16841" lon="5.63914">
        <ele>1107</ele>
        <time>2021-03-28T14:15:26.880Z</time>
      </trkpt>
      <trkpt lat="45.16837" lon="5.63923">
        <ele>1107</ele>
        <time>2021-03-28T14:15:29.701Z</time>
      </trkpt>
      <trkpt lat="45.16836" lon="5.63939">
        <ele>1104</ele>
        <time>2021-03-28T14:15:31.197Z</time>
      </trkpt>
      <trkpt lat="45.16838" lon="5.63947">
        <ele>1103</ele>
        <time>2021-03-28T14:15:31.988Z</time>
      </trkpt>
      <trkpt lat="45.16847" lon="5.63959">
        <ele>1100</ele>
        <time>2021-03-28T14:15:33.619Z</time>
      </trkpt>
      <trkpt lat="45.16855" lon="5.63962">
        <ele>1099</ele>
        <time>2021-03-28T14:15:34.712Z</time>
      </trkpt>
      <trkpt lat="45.16861" lon="5.63961">
        <ele>1098</ele>
        <time>2021-03-28T14:15:35.510Z</time>
      </trkpt>
      <trkpt lat="45.16942" lon="5.6392">
        <ele>1095</ele>
        <time>2021-03-28T14:15:49.220Z</time>
      </trkpt>
      <trkpt lat="45.16988" lon="5.639">
        <ele>1095</ele>
        <time>2021-03-28T14:16:07.319Z</time>
      </trkpt>
      <trkpt lat="45.17027" lon="5.6389">
        <ele>1093</ele>
        <time>2021-03-28T14:16:12.786Z</time>
      </trkpt>
      <trkpt lat="45.17089" lon="5.63882">
        <ele>1087</ele>
        <time>2021-03-28T14:16:21.010Z</time>
      </trkpt>
      <trkpt lat="45.1717" lon="5.63881">
        <ele>1075</ele>
        <time>2021-03-28T14:16:31.709Z</time>
      </trkpt>
      <trkpt lat="45.17196" lon="5.63889">
        <ele>1075</ele>
        <time>2021-03-28T14:16:41.717Z</time>
      </trkpt>
      <trkpt lat="45.17206" lon="5.63895">
        <ele>1074</ele>
        <time>2021-03-28T14:16:43.152Z</time>
      </trkpt>
      <trkpt lat="45.17256" lon="5.63946">
        <ele>1068</ele>
        <time>2021-03-28T14:16:51.286Z</time>
      </trkpt>
      <trkpt lat="45.17274" lon="5.63954">
        <ele>1066</ele>
        <time>2021-03-28T14:16:53.778Z</time>
      </trkpt>
      <trkpt lat="45.17296" lon="5.63953">
        <ele>1066</ele>
        <time>2021-03-28T14:17:02.058Z</time>
      </trkpt>
      <trkpt lat="45.17355" lon="5.63942">
        <ele>1064</ele>
        <time>2021-03-28T14:17:11.666Z</time>
      </trkpt>
      <trkpt lat="45.17388" lon="5.6394">
        <ele>1063</ele>
        <time>2021-03-28T14:17:17.186Z</time>
      </trkpt>
      <trkpt lat="45.17418" lon="5.63947">
        <ele>1060</ele>
        <time>2021-03-28T14:17:21.202Z</time>
      </trkpt>
      <trkpt lat="45.17432" lon="5.6396">
        <ele>1058</ele>
        <time>2021-03-28T14:17:23.412Z</time>
      </trkpt>
      <trkpt lat="45.17444" lon="5.63976">
        <ele>1056</ele>
        <time>2021-03-28T14:17:25.587Z</time>
      </trkpt>
      <trkpt lat="45.17454" lon="5.64001">
        <ele>1054</ele>
        <time>2021-03-28T14:17:28.264Z</time>
      </trkpt>
      <trkpt lat="45.17457" lon="5.64028">
        <ele>1053</ele>
        <time>2021-03-28T14:17:30.890Z</time>
      </trkpt>
      <trkpt lat="45.17455" lon="5.64099">
        <ele>1050</ele>
        <time>2021-03-28T14:17:37.279Z</time>
      </trkpt>
      <trkpt lat="45.17443" lon="5.64225">
        <ele>1046</ele>
        <time>2021-03-28T14:17:50.301Z</time>
      </trkpt>
      <trkpt lat="45.17442" lon="5.64258">
        <ele>1045</ele>
        <time>2021-03-28T14:17:53.736Z</time>
      </trkpt>
      <trkpt lat="45.17444" lon="5.64302">
        <ele>1041</ele>
        <time>2021-03-28T14:17:57.842Z</time>
      </trkpt>
      <trkpt lat="45.17452" lon="5.64325">
        <ele>1039</ele>
        <time>2021-03-28T14:18:00.230Z</time>
      </trkpt>
      <trkpt lat="45.1746" lon="5.64337">
        <ele>1038</ele>
        <time>2021-03-28T14:18:01.768Z</time>
      </trkpt>
      <trkpt lat="45.17477" lon="5.64348">
        <ele>1037</ele>
        <time>2021-03-28T14:18:04.279Z</time>
      </trkpt>
      <trkpt lat="45.17493" lon="5.6435">
        <ele>1037</ele>
        <time>2021-03-28T14:18:10.321Z</time>
      </trkpt>
      <trkpt lat="45.17515" lon="5.64346">
        <ele>1039</ele>
        <time>2021-03-28T14:18:30.122Z</time>
      </trkpt>
      <trkpt lat="45.17538" lon="5.64345">
        <ele>1039</ele>
        <time>2021-03-28T14:18:38.778Z</time>
      </trkpt>
      <trkpt lat="45.17565" lon="5.64355">
        <ele>1038</ele>
        <time>2021-03-28T14:18:43.184Z</time>
      </trkpt>
      <trkpt lat="45.17691" lon="5.6442">
        <ele>1032</ele>
        <time>2021-03-28T14:19:02.640Z</time>
      </trkpt>
      <trkpt lat="45.17715" lon="5.64435">
        <ele>1032</ele>
        <time>2021-03-28T14:19:12.505Z</time>
      </trkpt>
      <trkpt lat="45.17757" lon="5.64473">
        <ele>1030</ele>
        <time>2021-03-28T14:19:20.050Z</time>
      </trkpt>
      <trkpt lat="45.17798" lon="5.64558">
        <ele>1015</ele>
        <time>2021-03-28T14:19:29.640Z</time>
      </trkpt>
      <trkpt lat="45.17841" lon="5.64593">
        <ele>1010</ele>
        <time>2021-03-28T14:19:36.188Z</time>
      </trkpt>
      <trkpt lat="45.17906" lon="5.64641">
        <ele>1005</ele>
        <time>2021-03-28T14:19:45.868Z</time>
      </trkpt>
      <trkpt lat="45.18053" lon="5.64713">
        <ele>997</ele>
        <time>2021-03-28T14:20:07.141Z</time>
      </trkpt>
      <trkpt lat="45.18165" lon="5.64771">
        <ele>992</ele>
        <time>2021-03-28T14:20:24.897Z</time>
      </trkpt>
      <trkpt lat="45.18233" lon="5.64791">
        <ele>987</ele>
        <time>2021-03-28T14:20:34.071Z</time>
      </trkpt>
      <trkpt lat="45.18275" lon="5.64795">
        <ele>990</ele>
        <time>2021-03-28T14:21:06.242Z</time>
      </trkpt>
      <trkpt lat="45.18303" lon="5.64794">
        <ele>994</ele>
        <time>2021-03-28T14:21:46.881Z</time>
      </trkpt>
      <trkpt lat="45.18309" lon="5.648">
        <ele>992</ele>
        <time>2021-03-28T14:21:47.850Z</time>
      </trkpt>
      <trkpt lat="45.18311" lon="5.6481">
        <ele>987</ele>
        <time>2021-03-28T14:21:48.818Z</time>
      </trkpt>
      <trkpt lat="45.1831" lon="5.64818">
        <ele>983</ele>
        <time>2021-03-28T14:21:49.575Z</time>
      </trkpt>
      <trkpt lat="45.18302" lon="5.64825">
        <ele>979</ele>
        <time>2021-03-28T14:21:50.816Z</time>
      </trkpt>
      <trkpt lat="45.18266" lon="5.64819">
        <ele>978</ele>
        <time>2021-03-28T14:21:57.048Z</time>
      </trkpt>
      <trkpt lat="45.18159" lon="5.64826">
        <ele>964</ele>
        <time>2021-03-28T14:22:11.197Z</time>
      </trkpt>
      <trkpt lat="45.18123" lon="5.64825">
        <ele>959</ele>
        <time>2021-03-28T14:22:15.953Z</time>
      </trkpt>
      <trkpt lat="45.18017" lon="5.64808">
        <ele>952</ele>
        <time>2021-03-28T14:22:28.965Z</time>
      </trkpt>
      <trkpt lat="45.17992" lon="5.64802">
        <ele>952</ele>
        <time>2021-03-28T14:22:38.503Z</time>
      </trkpt>
      <trkpt lat="45.17976" lon="5.64801">
        <ele>951</ele>
        <time>2021-03-28T14:22:40.505Z</time>
      </trkpt>
      <trkpt lat="45.17902" lon="5.64809">
        <ele>941</ele>
        <time>2021-03-28T14:22:50.308Z</time>
      </trkpt>
      <trkpt lat="45.17808" lon="5.64809">
        <ele>936</ele>
        <time>2021-03-28T14:23:02.977Z</time>
      </trkpt>
      <trkpt lat="45.17631" lon="5.64814">
        <ele>920</ele>
        <time>2021-03-28T14:23:26.362Z</time>
      </trkpt>
      <trkpt lat="45.17605" lon="5.64808">
        <ele>918</ele>
        <time>2021-03-28T14:23:29.842Z</time>
      </trkpt>
      <trkpt lat="45.17569" lon="5.6479">
        <ele>920</ele>
        <time>2021-03-28T14:23:55.349Z</time>
      </trkpt>
      <trkpt lat="45.17549" lon="5.64784">
        <ele>920</ele>
        <time>2021-03-28T14:24:03.039Z</time>
      </trkpt>
      <trkpt lat="45.17532" lon="5.64783">
        <ele>920</ele>
        <time>2021-03-28T14:24:09.439Z</time>
      </trkpt>
      <trkpt lat="45.17509" lon="5.64788">
        <ele>917</ele>
        <time>2021-03-28T14:24:12.513Z</time>
      </trkpt>
      <trkpt lat="45.17444" lon="5.64812">
        <ele>907</ele>
        <time>2021-03-28T14:24:21.385Z</time>
      </trkpt>
      <trkpt lat="45.17388" lon="5.64822">
        <ele>904</ele>
        <time>2021-03-28T14:24:28.994Z</time>
      </trkpt>
      <trkpt lat="45.17244" lon="5.64856">
        <ele>893</ele>
        <time>2021-03-28T14:24:48.277Z</time>
      </trkpt>
      <trkpt lat="45.17222" lon="5.64857">
        <ele>894</ele>
        <time>2021-03-28T14:25:02.334Z</time>
      </trkpt>
      <trkpt lat="45.17171" lon="5.64852">
        <ele>897</ele>
        <time>2021-03-28T14:25:37.988Z</time>
      </trkpt>
      <trkpt lat="45.17159" lon="5.64856">
        <ele>898</ele>
        <time>2021-03-28T14:25:48.173Z</time>
      </trkpt>
      <trkpt lat="45.17152" lon="5.64862">
        <ele>897</ele>
        <time>2021-03-28T14:25:49.254Z</time>
      </trkpt>
      <trkpt lat="45.17144" lon="5.64875">
        <ele>895</ele>
        <time>2021-03-28T14:25:50.861Z</time>
      </trkpt>
      <trkpt lat="45.17137" lon="5.64928">
        <ele>880</ele>
        <time>2021-03-28T14:25:55.882Z</time>
      </trkpt>
      <trkpt lat="45.17135" lon="5.64938">
        <ele>878</ele>
        <time>2021-03-28T14:25:56.850Z</time>
      </trkpt>
      <trkpt lat="45.1713" lon="5.64946">
        <ele>877</ele>
        <time>2021-03-28T14:25:57.846Z</time>
      </trkpt>
      <trkpt lat="45.17121" lon="5.64951">
        <ele>877</ele>
        <time>2021-03-28T14:26:01.481Z</time>
      </trkpt>
      <trkpt lat="45.1709" lon="5.64948">
        <ele>881</ele>
        <time>2021-03-28T14:26:43.697Z</time>
      </trkpt>
      <trkpt lat="45.17073" lon="5.6495">
        <ele>882</ele>
        <time>2021-03-28T14:26:55.589Z</time>
      </trkpt>
      <trkpt lat="45.17033" lon="5.64969">
        <ele>879</ele>
        <time>2021-03-28T14:27:01.161Z</time>
      </trkpt>
      <trkpt lat="45.17019" lon="5.64984">
        <ele>876</ele>
        <time>2021-03-28T14:27:03.479Z</time>
      </trkpt>
      <trkpt lat="45.17007" lon="5.65004">
        <ele>872</ele>
        <time>2021-03-28T14:27:05.924Z</time>
      </trkpt>
      <trkpt lat="45.16994" lon="5.65051">
        <ele>870</ele>
        <time>2021-03-28T14:27:10.603Z</time>
      </trkpt>
      <trkpt lat="45.16992" lon="5.65079">
        <ele>868</ele>
        <time>2021-03-28T14:27:13.224Z</time>
      </trkpt>
      <trkpt lat="45.16998" lon="5.65094">
        <ele>865</ele>
        <time>2021-03-28T14:27:14.830Z</time>
      </trkpt>
      <trkpt lat="45.17004" lon="5.65099">
        <ele>864</ele>
        <time>2021-03-28T14:27:15.749Z</time>
      </trkpt>
      <trkpt lat="45.17013" lon="5.65099">
        <ele>862</ele>
        <time>2021-03-28T14:27:16.938Z</time>
      </trkpt>
      <trkpt lat="45.1702" lon="5.65092">
        <ele>861</ele>
        <time>2021-03-28T14:27:18.069Z</time>
      </trkpt>
      <trkpt lat="45.17028" lon="5.65065">
        <ele>862</ele>
        <time>2021-03-28T14:27:31.512Z</time>
      </trkpt>
      <trkpt lat="45.17036" lon="5.65019">
        <ele>867</ele>
        <time>2021-03-28T14:28:19.977Z</time>
      </trkpt>
      <trkpt lat="45.17042" lon="5.65007">
        <ele>868</ele>
        <time>2021-03-28T14:28:29.780Z</time>
      </trkpt>
      <trkpt lat="45.17051" lon="5.64998">
        <ele>869</ele>
        <time>2021-03-28T14:28:39.667Z</time>
      </trkpt>
      <trkpt lat="45.17068" lon="5.64993">
        <ele>869</ele>
        <time>2021-03-28T14:28:46.198Z</time>
      </trkpt>
      <trkpt lat="45.17091" lon="5.64998">
        <ele>866</ele>
        <time>2021-03-28T14:28:49.272Z</time>
      </trkpt>
      <trkpt lat="45.17106" lon="5.65005">
        <ele>864</ele>
        <time>2021-03-28T14:28:51.358Z</time>
      </trkpt>
      <trkpt lat="45.17124" lon="5.65018">
        <ele>860</ele>
        <time>2021-03-28T14:28:54.026Z</time>
      </trkpt>
      <trkpt lat="45.17162" lon="5.65054">
        <ele>851</ele>
        <time>2021-03-28T14:29:00.062Z</time>
      </trkpt>
      <trkpt lat="45.17173" lon="5.65061">
        <ele>848</ele>
        <time>2021-03-28T14:29:01.654Z</time>
      </trkpt>
      <trkpt lat="45.17189" lon="5.65067">
        <ele>844</ele>
        <time>2021-03-28T14:29:03.840Z</time>
      </trkpt>
      <trkpt lat="45.17208" lon="5.6506">
        <ele>843</ele>
        <time>2021-03-28T14:29:06.537Z</time>
      </trkpt>
      <trkpt lat="45.17224" lon="5.65044">
        <ele>844</ele>
        <time>2021-03-28T14:29:19.506Z</time>
      </trkpt>
      <trkpt lat="45.1724" lon="5.65011">
        <ele>849</ele>
        <time>2021-03-28T14:30:00.473Z</time>
      </trkpt>
      <trkpt lat="45.17253" lon="5.64991">
        <ele>852</ele>
        <time>2021-03-28T14:30:28.299Z</time>
      </trkpt>
      <trkpt lat="45.1727" lon="5.64978">
        <ele>854</ele>
        <time>2021-03-28T14:30:47.870Z</time>
      </trkpt>
      <trkpt lat="45.17388" lon="5.64974">
        <ele>846</ele>
        <time>2021-03-28T14:31:03.461Z</time>
      </trkpt>
      <trkpt lat="45.17405" lon="5.6498">
        <ele>843</ele>
        <time>2021-03-28T14:31:05.775Z</time>
      </trkpt>
      <trkpt lat="45.17459" lon="5.65034">
        <ele>825</ele>
        <time>2021-03-28T14:31:14.503Z</time>
      </trkpt>
      <trkpt lat="45.17498" lon="5.65049">
        <ele>824</ele>
        <time>2021-03-28T14:31:21.669Z</time>
      </trkpt>
      <trkpt lat="45.17528" lon="5.65047">
        <ele>824</ele>
        <time>2021-03-28T14:31:32.967Z</time>
      </trkpt>
      <trkpt lat="45.1757" lon="5.65059">
        <ele>819</ele>
        <time>2021-03-28T14:31:38.626Z</time>
      </trkpt>
      <trkpt lat="45.17711" lon="5.65138">
        <ele>800</ele>
        <time>2021-03-28T14:31:58.651Z</time>
      </trkpt>
      <trkpt lat="45.17744" lon="5.65169">
        <ele>793</ele>
        <time>2021-03-28T14:32:03.879Z</time>
      </trkpt>
      <trkpt lat="45.17764" lon="5.65195">
        <ele>790</ele>
        <time>2021-03-28T14:32:07.463Z</time>
      </trkpt>
      <trkpt lat="45.17781" lon="5.65222">
        <ele>786</ele>
        <time>2021-03-28T14:32:10.833Z</time>
      </trkpt>
      <trkpt lat="45.17801" lon="5.65238">
        <ele>784</ele>
        <time>2021-03-28T14:32:13.866Z</time>
      </trkpt>
      <trkpt lat="45.17825" lon="5.65252">
        <ele>782</ele>
        <time>2021-03-28T14:32:17.294Z</time>
      </trkpt>
      <trkpt lat="45.17885" lon="5.65279">
        <ele>778</ele>
        <time>2021-03-28T14:32:25.096Z</time>
      </trkpt>
      <trkpt lat="45.17939" lon="5.65274">
        <ele>783</ele>
        <time>2021-03-28T14:33:14.381Z</time>
      </trkpt>
      <trkpt lat="45.17951" lon="5.65284">
        <ele>781</ele>
        <time>2021-03-28T14:33:16.219Z</time>
      </trkpt>
      <trkpt lat="45.17956" lon="5.653">
        <ele>777</ele>
        <time>2021-03-28T14:33:17.848Z</time>
      </trkpt>
      <trkpt lat="45.17956" lon="5.65317">
        <ele>772</ele>
        <time>2021-03-28T14:33:19.431Z</time>
      </trkpt>
      <trkpt lat="45.17946" lon="5.65332">
        <ele>767</ele>
        <time>2021-03-28T14:33:21.354Z</time>
      </trkpt>
      <trkpt lat="45.1792" lon="5.65337">
        <ele>764</ele>
        <time>2021-03-28T14:33:24.819Z</time>
      </trkpt>
      <trkpt lat="45.17889" lon="5.65339">
        <ele>763</ele>
        <time>2021-03-28T14:33:29.901Z</time>
      </trkpt>
      <trkpt lat="45.1784" lon="5.65348">
        <ele>761</ele>
        <time>2021-03-28T14:33:37.361Z</time>
      </trkpt>
      <trkpt lat="45.17703" lon="5.65385">
        <ele>745</ele>
        <time>2021-03-28T14:33:55.782Z</time>
      </trkpt>
      <trkpt lat="45.1767" lon="5.65388">
        <ele>743</ele>
        <time>2021-03-28T14:33:59.981Z</time>
      </trkpt>
      <trkpt lat="45.17646" lon="5.65387">
        <ele>742</ele>
        <time>2021-03-28T14:34:03.566Z</time>
      </trkpt>
      <trkpt lat="45.176" lon="5.6538">
        <ele>741</ele>
        <time>2021-03-28T14:34:12.067Z</time>
      </trkpt>
      <trkpt lat="45.17587" lon="5.65385">
        <ele>740</ele>
        <time>2021-03-28T14:34:13.847Z</time>
      </trkpt>
      <trkpt lat="45.17582" lon="5.6539">
        <ele>739</ele>
        <time>2021-03-28T14:34:14.655Z</time>
      </trkpt>
      <trkpt lat="45.17576" lon="5.65415">
        <ele>736</ele>
        <time>2021-03-28T14:34:17.114Z</time>
      </trkpt>
      <trkpt lat="45.1758" lon="5.65436">
        <ele>734</ele>
        <time>2021-03-28T14:34:19.139Z</time>
      </trkpt>
      <trkpt lat="45.17599" lon="5.65464">
        <ele>730</ele>
        <time>2021-03-28T14:34:22.758Z</time>
      </trkpt>
      <trkpt lat="45.17607" lon="5.65485">
        <ele>727</ele>
        <time>2021-03-28T14:34:24.981Z</time>
      </trkpt>
      <trkpt lat="45.17611" lon="5.65511">
        <ele>723</ele>
        <time>2021-03-28T14:34:27.459Z</time>
      </trkpt>
      <trkpt lat="45.17609" lon="5.65535">
        <ele>720</ele>
        <time>2021-03-28T14:34:29.709Z</time>
      </trkpt>
      <trkpt lat="45.17604" lon="5.65557">
        <ele>717</ele>
        <time>2021-03-28T14:34:31.862Z</time>
      </trkpt>
      <trkpt lat="45.17541" lon="5.65723">
        <ele>708</ele>
        <time>2021-03-28T14:34:49.417Z</time>
      </trkpt>
      <trkpt lat="45.17518" lon="5.6579">
        <ele>703</ele>
        <time>2021-03-28T14:34:56.356Z</time>
      </trkpt>
      <trkpt lat="45.17475" lon="5.65874">
        <ele>700</ele>
        <time>2021-03-28T14:35:07.351Z</time>
      </trkpt>
      <trkpt lat="45.17418" lon="5.6597">
        <ele>695</ele>
        <time>2021-03-28T14:35:18.951Z</time>
      </trkpt>
      <trkpt lat="45.17391" lon="5.66023">
        <ele>690</ele>
        <time>2021-03-28T14:35:25.040Z</time>
      </trkpt>
      <trkpt lat="45.17379" lon="5.66059">
        <ele>686</ele>
        <time>2021-03-28T14:35:28.748Z</time>
      </trkpt>
      <trkpt lat="45.17375" lon="5.66086">
        <ele>683</ele>
        <time>2021-03-28T14:35:31.317Z</time>
      </trkpt>
      <trkpt lat="45.17375" lon="5.66167">
        <ele>678</ele>
        <time>2021-03-28T14:35:38.860Z</time>
      </trkpt>
      <trkpt lat="45.17371" lon="5.66181">
        <ele>679</ele>
        <time>2021-03-28T14:35:48.693Z</time>
      </trkpt>
      <trkpt lat="45.17345" lon="5.66223">
        <ele>682</ele>
        <time>2021-03-28T14:36:19.966Z</time>
      </trkpt>
      <trkpt lat="45.17339" lon="5.66237">
        <ele>683</ele>
        <time>2021-03-28T14:36:29.958Z</time>
      </trkpt>
      <trkpt lat="45.17332" lon="5.66264">
        <ele>681</ele>
        <time>2021-03-28T14:36:32.637Z</time>
      </trkpt>
      <trkpt lat="45.17324" lon="5.66314">
        <ele>674</ele>
        <time>2021-03-28T14:36:37.412Z</time>
      </trkpt>
      <trkpt lat="45.17311" lon="5.66356">
        <ele>669</ele>
        <time>2021-03-28T14:36:41.683Z</time>
      </trkpt>
      <trkpt lat="45.173" lon="5.66378">
        <ele>667</ele>
        <time>2021-03-28T14:36:44.195Z</time>
      </trkpt>
      <trkpt lat="45.17283" lon="5.66402">
        <ele>665</ele>
        <time>2021-03-28T14:36:47.363Z</time>
      </trkpt>
      <trkpt lat="45.17273" lon="5.66412">
        <ele>665</ele>
        <time>2021-03-28T14:36:51.965Z</time>
      </trkpt>
      <trkpt lat="45.17231" lon="5.66442">
        <ele>664</ele>
        <time>2021-03-28T14:37:00.641Z</time>
      </trkpt>
      <trkpt lat="45.17212" lon="5.66461">
        <ele>661</ele>
        <time>2021-03-28T14:37:03.712Z</time>
      </trkpt>
      <trkpt lat="45.17183" lon="5.66499">
        <ele>656</ele>
        <time>2021-03-28T14:37:08.927Z</time>
      </trkpt>
      <trkpt lat="45.17157" lon="5.66555">
        <ele>653</ele>
        <time>2021-03-28T14:37:14.789Z</time>
      </trkpt>
      <trkpt lat="45.17151" lon="5.66578">
        <ele>650</ele>
        <time>2021-03-28T14:37:17.073Z</time>
      </trkpt>
      <trkpt lat="45.17161" lon="5.66675">
        <ele>640</ele>
        <time>2021-03-28T14:37:26.202Z</time>
      </trkpt>
      <trkpt lat="45.17159" lon="5.66696">
        <ele>641</ele>
        <time>2021-03-28T14:37:37.255Z</time>
      </trkpt>
      <trkpt lat="45.17151" lon="5.66709">
        <ele>640</ele>
        <time>2021-03-28T14:37:38.862Z</time>
      </trkpt>
      <trkpt lat="45.1714" lon="5.66712">
        <ele>639</ele>
        <time>2021-03-28T14:37:40.342Z</time>
      </trkpt>
      <trkpt lat="45.1712" lon="5.66706">
        <ele>638</ele>
        <time>2021-03-28T14:37:43.200Z</time>
      </trkpt>
      <trkpt lat="45.17069" lon="5.66679">
        <ele>642</ele>
        <time>2021-03-28T14:38:25.516Z</time>
      </trkpt>
    </trkseg>
  </trk>
</gpx>